     2              OBSERVATION DATA    GPS                 RINEX VERSION / TYPE
teqc 1998Mar9 19980312 00:55:51UTC                          PGM / RUN BY / DATE
                                                            COMMENT
Original Marker Name: unknown                               COMMENT
Campaign Name: Cholame 1989                                 COMMENT
4-Character Station Name: BENH                              COMMENT
6-Character Antenna Code: TI4100                            COMMENT
Vertical Measurement Point: PAE                             COMMENT
Vertical Offset to Rinex Ref. Point: 0.0000                 COMMENT
Radial Measurement Point: PAE                               COMMENT
Radial Offset to Rinex Ref. Point: 0.0842                   COMMENT
Antenna Height from Field Measurement: 1.3200 m             COMMENT
Original XYZ: -2618990.9421 -4473012.9450 3705860.5297      COMMENT
New XYZ position is based on association with SCEC monument COMMENT
E1F1E5C7+0011. Position of that monument is believed to be  COMMENT
valid to within 1 m horizontally; vertical accuracy         COMMENT
should be no worse than 3-times this value.                 COMMENT
                                                            COMMENT
Revised Rinex header created by UCSD GPS archive for        COMMENT
GSAC on 17-Apr-1999 (1999:107) 03:30:39 GMT                 COMMENT
For assistance contact dagnew@ucsd.edu or hjohnson@ucsd.edu COMMENT
                                                            COMMENT
BENCH                                                       MARKER NAME
unknown UCLA                                                OBSERVER / AGENCY
UN01 TI 4100 1.9                                            REC # / TYPE / VERS
UN01 TI 4100                                                ANT # / TYPE
 -2618992.0000 -4472668.0000  3705684.0000                  APPROX POSITION XYZ
        1.3173        0.0000        0.0000                  ANTENNA: DELTA H/E/N
     1     1     0                                          WAVELENGTH FACT L1/2
     4    P1    P2    L1    L2                              # / TYPES OF OBSERV
     0                                                      INTERVAL
  1989    11    17    10    26   59.000000                  TIME OF FIRST OBS
  1989    11    17    16    40   59.000000                  TIME OF LAST OBS
     0                                                      # OF SATELLITES
                                                            END OF HEADER
 89 11 17 10 26 59.0800000  0  4G 2G 6G11G 9
  23783814.429    23783817.864     2816975.168 7  -1513783.614 8
  21124019.244    21124020.787     1444842.742 9  -2290032.007 8
  22322638.698    22322642.470      922681.885 9  -2739806.078 7
                                  27897199.734   -20805849.397 1
 89 11 17 10 27 29.0800000  0  4G 2G 6G11G 9
  23799124.761    23799127.410     2897430.827 7  -1451090.963 7
  21115467.199    21115469.699     1399907.889 9  -2325046.181 8
  22304953.485    22304955.501      829741.587 1  -2812227.058 1
                  26627022.973   -27074667.307 1
 89 11 17 10 27 59.0800000  0  4G 2G 6G11G 9
  23814438.756    23814444.005     2977911.507 8  -1388378.834 8
  21106956.905    21106959.021     1355183.491 9  -2359896.349 8
  22287333.927    22287337.025      737152.917 9  -2884374.049 9
                  25248064.743   -24042930.921 1
 89 11 17 10 28 29.0800000  0  4G 2G 6G11G 9
  23829759.359    23829762.949     3058416.584 8  -1325647.685 8
  21098486.689    21098487.179     1310671.467 9  -2394581.029 8
  22269782.106    22269785.296      644918.549 8  -2956244.973 8
                  23879736.919   -18532276.296 1
 89 11 17 10 28 59.0800000  0  4G 2G 6G11G 9
  23845082.976    23845087.664     3138945.989 7  -1262897.583 8
  21090056.859    21090058.374     1266373.607 9  -2429098.860 7
  22252298.241    22252302.086      553041.492 9  -3027837.454 8
                  22191317.385   -13801274.535 1
 89 11 17 10 29 29.0800000  0  4G 2G 6G11G 9
  23860412.346    23860415.849     3219498.623 9  -1200129.380 8
  21081668.778    21081669.554     1222291.700 9  -2463448.406 8
  22234882.772    22234886.809      461523.746 9  -3099149.965 8
                  20586719.395    -9849468.004 1
 89 11 17 10 29 59.0800000  0  4G 2G 6G11G 9
  23875744.514    23875748.725     3300073.942 9  -1137343.551 9
  21073322.257    21073322.288     1178427.575 9  -2497628.234 9
  22217537.372    22217540.737      370368.250 9  -3170180.194 8
                  26115972.125    -1345353.437 1
 89 11 17 10 30 29.0800000  0  4G 2G 6G11G 9
  23891082.430    23891086.807     3380671.108 9  -1074540.683 9
  21065016.527    21065018.344     1134783.188 9  -2531636.843 8
  22200260.352    22200264.064      279577.307 9  -3240926.371 7
                  25680810.448    -2570097.585 1
 89 11 17 10 30 59.0800000  0  4G 2G 6G11G 9
  23906424.477    23906427.497     3461289.672 8  -1011721.125 8
  21056753.507    21056754.638     1091360.413 9  -2565472.787 8
  22183053.002    22183057.029      189153.251 9  -3311386.643 8
                  25272803.689    -4571521.838 1
 89 11 17 10 31 29.0800000  0  4G 2G 6G11G 9
  23921769.208    23921773.401     3541929.413 9   -948885.053 8
  21048532.404    21048535.321     1048161.029 9  -2599134.649 8
  22165915.860    22165919.065       99098.837 9  -3381558.904 9
                  24920381.858    -7357305.239 1
 89 11 17 10 31 59.0800000  0  4G 2G 6G11G 9
  23937118.912    23937121.537     3622589.367 9   -886033.261 8
  21040354.727    21040356.876     1005186.962 8  -2632620.962 8
  22148850.031    22148853.315        9416.296 9  -3451441.390 8
                  24106380.726   -10922444.703 1
 89 11 17 10 32 29.0800000  0  4G 2G 6G11G 9
  23952471.718    23952475.241     3703269.360 9   -823165.852 9
  21032220.353    21032222.610      962440.058 9  -2665930.245 8
  22131855.078    22131859.471      -79891.581 9  -3521031.923 7
                  23426372.078   -15268008.213 1
 89 11 17 10 32 59.0800000  0  4G 2G 6G11G 9
  23967828.138    23967831.382     3783968.607 9   -760283.406 9
  21024129.117    21024131.390      919922.382 9  -2699060.915 8
  22114932.640    22114935.267     -168821.945 9  -3590328.303 8
                  22444527.265   -20392771.758 1
 89 11 17 10 33 59.0800000  0  3G 6G11G 9
                  21195422.377                    -2395468.196 9
                  22268646.210    -2434847.343 9
                  19965198.216   -29128407.581 1
 89 11 17 10 34 29.0800000  0  4G 2G 6G11G 9
                  24201261.731    -2391529.762 9  21187492.398
                  21187493.588    -2437286.915 9   3243695.476 8
  22251970.172    22251972.390    -2522631.066 9   3347128.293 9
                  18732687.818   -23252067.528 1
 89 11 17 10 34 59.0800000  0  4G 2G 6G11G 9
  24216659.863    24216663.734    -2310758.850 9   3535673.393 9
  21179579.992    21179581.382    -2478869.236 9   3211293.660 7
  22235339.409    22235342.562    -2610027.689 9   3279027.039 8
                  16942353.141   -18157273.574 1
 89 11 17 10 35 29.0800000  0  4G 2G 6G11G 9
  24232034.185    24232035.943    -2229971.196 1   3598624.675 2
  21171712.157    21171713.670    -2520212.930 9   3179077.779 8
  22218783.002    22218785.789    -2697034.632 9   3211229.430 8
                  15399960.661   -13846234.971 1
 89 11 17 10 35 59.0800000  0  3G 2G 6G11
  24247410.048    24247413.972    -2149166.983 9   3661588.867 8
  21163890.761    21163892.239    -2561316.182 9   3147049.260 8
  22202299.640    22202302.779    -2783649.577 9   3143737.279 8
 89 11 17 10 36 29.0800000  0  4G 2G 6G11G 9
  24262789.441    24262793.608    -2068346.735 8   3724565.588 7
  21156115.312    21156116.134    -2602177.056 9   3115209.602 9
  22185892.410    22185895.435    -2869870.136 9   3076552.438 9
                  23397350.033    -3301786.928 1
 89 11 17 10 36 59.0800000  0  3G 2G 6G11
  24278170.825    24278175.192    -1987511.185 8   3787554.272 8
  21148386.251    21148387.001    -2642793.566 8   3083560.373 8
  22169560.557    22169563.596    -2955694.257 8   3009676.515 8
 89 11 17 10 37 29.0800000  0  3G 2G 6G11
  24293556.903    24293561.048    -1906660.971 8   3850554.377 8
  21140703.456    21140705.609    -2683163.794 9   3052103.040 8
  22153305.601    22153307.694    -3041119.284 9   2943111.574 9
 89 11 17 10 37 59.0800000  0  3G 2G 6G11
  24308944.936    24308948.870    -1825796.930 7   3913565.249 8
  21133069.714    21133069.341    -2723285.739 9   3020839.169 7
  22137125.177    22137128.243    -3126142.435 9   2876859.788 8
 89 11 17 10 38 29.0800000  0  3G 2G 6G11
  24324335.785    24324339.363    -1744919.273 7   3976586.743 7
  21125482.124    21125481.807    -2763157.681 9   2989770.117 7
  22121023.120    22121025.508    -3210761.927 9   2810922.542 9
 89 11 17 10 38 59.0800000  0  3G 2G 6G11
  24339728.673    24339732.266    -1664027.791 8   4039619.038 8
  21117942.844    21117942.938    -2802777.381 9   2958897.607 8
  22104997.509    22105000.843    -3294975.158 9   2745301.864 8
 89 11 17 10 39 29.0800000  0  3G 2G 6G11
  24355123.767    24355128.335    -1583123.151 7   4102661.539 8
  21110451.179    21110451.433    -2842143.064 9   2928223.036 8
  22089050.380    22089052.618    -3378779.631 9   2679999.676 8
 89 11 17 10 39 59.0800000  0  3G 2G 6G11
  24370520.391    24370525.139    -1502206.666 8   4165713.272 8
  21103008.998    21103010.440    -2881252.691 9   2897747.986 8
  22073180.765    22073183.358    -3462173.185 9   2615017.719 8
 89 11 17 10 40 29.0800000  0  3G 2G 6G11
  24385922.592    24385926.694    -1421278.453 8   4228774.124 7
  21095616.241    21095617.357    -2920104.393 9   2867473.907 8
  22057389.987    22057393.187    -3545153.696 9   2550357.586 8
 89 11 17 10 40 59.0800000  0  3G 2G 6G11
  24401325.186    24401328.135    -1340338.605 8   4291844.083 8
  21088272.362    21088272.925    -2958696.146 8   2837402.389 8
  22041678.024    22041681.871    -3627718.827 9   2486021.129 8
 89 11 17 10 41 29.0800000  0  3G 2G 6G11
  24416730.594    24416733.032    -1259387.558 9   4354922.768 7
  21080978.255    21080979.258    -2997026.033 9   2807534.915 8
  22026046.368    22026049.765    -3709866.050 9   2422010.321 8
 89 11 17 10 41 59.0800000  0  3G 2G 6G11
  24432135.532    24432139.613    -1178425.532 9   4418010.016 7
  21073734.114    21073735.774    -3035092.002 9   2777873.110 8
  22010494.013    22010497.133    -3791592.935 9   2358327.040 8
 89 11 17 10 42 29.0800000  0  3G 2G 6G11
  24447544.234    24447547.691    -1097453.075 9   4481105.389 8
  21066540.996    21066542.586    -3072892.106 9   2748418.454 8
  21995022.960    21995025.381    -3872897.543 9   2294972.820 8
 89 11 17 10 42 59.0800000  0  3G 2G 6G11
  24462954.976    24462959.610    -1016470.794 9   4544208.442 7
  21059399.457    21059399.855    -3110424.358 9   2719172.512 8
  21979631.669    21979633.229    -3953777.597 9   2231949.408 8
 89 11 17 10 43 29.0800000  0  4G 2G 6G11G 9
  24478367.980    24478371.661     -935479.022 9   4607318.913 8
  21052308.307    21052310.096    -3147686.801 9   2690136.815 8
  21964322.132    21964324.888    -4034231.213 9   2169258.287 8
                  26118464.819    -6194240.597 1
 89 11 17 10 43 59.0800000  0  4G 2G 6G11G 9
  24493782.027    24493785.117     -854478.485 9   4670436.191 8
  21045269.445    21045270.806    -3184677.515 9   2661312.857 8
  21949093.797    21949096.662    -4114255.937 9   2106901.384 9
                  25969766.732    -7405638.606 1
 89 11 17 10 44 29.0800000  0  4G 2G 6G11G 9
  24509196.561    24509200.116     -773469.377 9   4733560.154 9
  21038282.698    21038283.987    -3221394.362 9   2632702.297 8
  21933947.449    21933950.153    -4193849.692 9   2044880.276 8
                  25542695.851    -9393055.419 1
 89 11 17 10 44 59.0800000  0  4G 2G 6G11G 9
  24524614.281    24524618.003     -692451.654 9   4796690.821 9
  21031347.694    21031350.224    -3257835.436 9   2604306.604 8
  21918884.445    21918886.570    -4273009.908 9   1983197.002 8
                  24854680.180   -12166546.532 1
 89 11 17 10 45 29.0800000  0  4G 2G 6G11G 9
  24540032.690    24540036.384     -611426.161 9   4859827.569 8
  21024466.807    21024467.646    -3293998.625 9   2576127.472 8
  21903903.556    21903906.556    -4351734.550 9   1921853.143 9
                  24225887.563   -15716058.274 1
 89 11 17 10 45 59.0800000  0  4G 2G 6G11G 9
  24555453.685    24555456.617     -530393.531 8   4922969.906 9
  21017638.114    21017640.362    -3329882.093 9   2548166.320 8
  21889006.047    21889009.135    -4430021.520 9   1860850.327 8
                  23293230.813   -20047727.015 1
 89 11 17 10 46 29.0800000  0  4G 2G 6G11G 9
  24570874.051    24570878.323     -449353.181 9   4986118.226 9
  21010862.027    21010865.448    -3365483.823 9   2520424.670 8
  21874192.098    21874194.777    -4507868.807 9   1800190.127 8
                  22367250.211   -25160512.212 1
 89 11 17 10 46 59.0800000  0  4G 2G 6G11G 9
  24586297.685    24586301.723     -368305.777 9   5049272.066 9
  21004142.287    21004145.194    -3400801.725 9   2492904.196 8
  21859462.058    21859464.751    -4585274.151 9   1739874.272 8
                  21394654.255   -31057262.733 1
 89 11 17 10 47 59.0800000  0  3G 6G11G 9
                  21178208.135    -7410512.911 9
                  22017599.394    -7462608.342 9
                  18576380.262   -28303718.227 1
 89 11 17 10 48 29.0800000  0  3G 6G11G 9
  21171678.075    21171681.024    -7444967.683 9   9732275.525 8
  22003150.934    22003154.712    -7538676.266 9   9665951.906 7
                  17120962.890   -23196592.458 1
 89 11 17 10 48 59.0800000  0  3G 6G11G 9
  21165177.827    21165179.785    -7479130.491 9   9705655.121 8
  21988762.168    21988764.970    -7614293.417 9   9607029.475 8
                  15357221.438   -18870420.611 1
 89 11 17 10 49 29.0800000  0  3G 6G11G 9
  21158731.375    21158733.556    -7512999.456 8   9679263.708 8
  21974458.828    21974462.480    -7689458.138 9   9548459.569 8
                  26082525.588    -8092044.868 1
 89 11 17 10 49 59.0800000  0  3G 6G11G 9
  21152344.004    21152345.418    -7546572.673 9   9653102.725 8
  21960242.013    21960244.683    -7764168.877 9   9490243.434 8
                  25921122.760    -8675666.872 1
 89 11 17 10 50 29.0800000  0  3G 6G11G 9
  21146011.641    21146012.944    -7579847.825 9   9627174.014 9
  21946111.843    21946114.053    -7838423.503 9   9432382.716 8
                  25770927.764   -10041231.320 1
 89 11 17 10 50 59.0800000  0  3G 6G11G 9
  21139736.864    21139738.138    -7612823.200 9   9601478.893 8
  21932068.132    21932070.736    -7912219.832 9   9374879.119 8
                  25305239.919   -12186921.703 1
 89 11 17 10 51 29.0800000  0  3G 6G11G 9
  21133519.461    21133520.420    -7645496.625 8   9576019.055 8
  21918113.223    21918116.927    -7985556.040 9   9317734.040 8
                  24926384.562   -15111384.405 1
 89 11 17 10 51 59.0800000  0  3G 6G11G 9
  21127358.997    21127361.061    -7677866.011 9   9550796.137 8
  21904244.803    21904248.910    -8058430.024 9   9260949.147 7
                  24192920.195   -18818249.826 1
 89 11 17 10 52 29.0800000  0  3G 6G11G 9
  21121257.204    21121260.255    -7709929.459 8   9525811.619 8
  21890466.012    21890468.178    -8130839.854 9   9204525.907 8
                  23180834.445   -23307060.871 1
 89 11 17 10 52 59.0800000  0  3G 6G11G 9
  21115215.022    21115216.140    -7741684.936 9   9501067.076 8
  21876776.021    21876779.518    -8202783.658 9   9148465.821 8
                  22133388.781   -28574589.323 1
 89 11 17 10 53 29.0800000  0  3G 6G11G 9
  21109230.545    21109232.548    -7773130.437 8   9476564.109 8
  21863175.100    21863177.881    -8274259.680 9   9092770.244 8
                  21171754.836   -34623174.058 1
 89 11 17 10 53 59.0800000  0  3G 6G11G 9
  21103306.587    21103307.555    -7804263.906 8   9452304.257 9
  21849661.730    21849665.448    -8345265.819 9   9037440.813 9
                  19821441.717   -35056395.125 1
 89 11 17 10 54 29.0800000  0  3G 6G11G 9
  21097441.942    21097443.667    -7835083.352 9   9428289.114 9
  21836239.896    21836243.425    -8415800.592 9   8982478.674 9
                  18207424.328   -29324338.218 1
 89 11 17 10 54 59.0800000  0  3G 6G11G 9
  21091638.515    21091639.296    -7865586.747 8   9404520.233 7
  21822908.053    21822911.041    -8485861.976 9   8927885.407 8
                  16595222.837   -24369678.739 1
 89 11 17 10 55 29.0800000  0  3G 6G11G 9
  21085893.727    21085893.635    -7895772.040 8   9380999.222 8
  21809665.963    21809669.714    -8555448.010 9   8873662.532 9
                  15057022.644   -20198079.512 1
 89 11 17 10 55 59.0800000  0  3G 6G11G 9
  21080210.598    21080212.480    -7925637.236 9   9357727.651 7
  21796514.871    21796518.279    -8624556.969 9   8819811.421 8
                  26023351.730   -10627807.721 1
 89 11 17 10 56 29.0800000  0  3G 6G11G 9
  21074587.959    21074589.944    -7955180.273 9   9334707.106 8
  21783455.824    21783458.519    -8693187.331 9   8766333.228 8
                  25947482.965   -11750624.856 1
 89 11 17 10 56 59.0800000  0  3G 6G11G 9
  21069028.626    21069029.249    -7984399.381 9   9311938.952 9
  21770487.202    21770488.970    -8761337.361 9   8713229.322 8
                  25600564.909   -13651016.141 1
 89 11 17 10 57 29.0800000  0  3G 6G11G 9
  21063530.093    21063531.228    -8013292.307 9   9289424.985 8
  21757609.618    21757614.000    -8829005.210 9   8660501.146 7
                  24994171.031   -16335921.749 1
 89 11 17 10 57 59.0800000  0  3G 6G11G 9
  21058093.947    21058095.196    -8041857.229 9   9267166.607 8
  21744825.305    21744828.250    -8896188.889 9   8608150.243 8
                  24200212.654   -19800125.573 1
 89 11 17 10 58 29.0800000  0  3G 6G11G 9
  21052721.204    21052723.874    -8070091.915 9   9245165.562 7
  21732133.360    21732136.179    -8962886.659 9   8556177.981 8
                  23576524.095   -24045075.142 1
 89 11 17 10 58 59.0800000  0  3G 6G11G 9
  21047412.753    21047413.481    -8097994.459 9   9223423.320 7
  21719534.508    21719536.569    -9029096.878 9   8504585.631 8
                  22643512.055   -29068530.846 1
 89 11 17 10 59 29.0800000  0  3G 6G11G 9
  21042165.201    21042167.327    -8125562.824 9   9201941.486 7
  21707027.453    21707028.926    -9094818.035 9   8453374.375 8
                  21473606.259   -34876411.505 1
 89 11 17 10 59 59.0800000  0  3G 6G11G 9
  21036983.515    21036984.743    -8152795.047 9   9180721.577 6
  21694615.161    21694616.457    -9160048.378 9   8402545.560 8
                  20113484.596   -39217020.568 1
 89 11 17 11  0 29.0800000  0  3G 6G11G 9
  21031865.894    21031866.828    -8179689.187 9   9159765.111 8
  21682295.390    21682297.113    -9224786.291 9   8352100.460 8
                  18894535.450   -33241465.810 1
 89 11 17 11  0 59.0800000  0  3G 6G11G 9
  21026812.762    21026813.593    -8206243.180 8   9139073.710 7
  21670070.237    21670072.678    -9289030.388 9   8302040.151 7
                  17380409.460   -28043995.744 1
 89 11 17 11  1 29.0800000  0  3G 6G11G 9
  21021824.504    21021825.416    -8232455.153 9   9118648.797 7
  21657938.937    21657941.540    -9352778.896 9   8252366.004 7
                  15580801.760   -23630642.276 1
 89 11 17 11  1 59.0800000  0  3G 6G11G 9
  21016901.959    21016903.384    -8258323.013 9   9098492.058 8
  21645902.781    21645904.739    -9416030.314 9   8203079.214 9
                  26000244.438   -12760397.690 1
 89 11 17 11  2 29.0800000  0  4G13G 6G11G 9
                  24912254.928   -12731601.153 9
  21012045.813    21012047.811    -8283844.587 9   9078605.096 8
  21633961.799    21633963.698    -9478783.074 9   8154180.978 8
                  25921938.349   -13842123.527 1
 89 11 17 11  2 59.0800000  0  4G13G 6G11G 9
  24889636.254    24889642.676   -12850635.598 9  16261892.872 7
  21007255.130    21007256.754    -8309018.036 9   9058989.401 7
  21622114.889    21622116.871    -9541035.785 9   8105672.397 8
                  25542170.552   -15702621.009 1
 89 11 17 11  3 29.0800000  0  4G13G 6G11G 9
  24867009.328    24867008.268   -12969558.529 9  16169225.605 7
  21002532.666    21002532.574    -8333841.582 8   9039646.376 7
  21610363.868    21610365.951    -9602787.159 9   8057554.484 7
                  24880326.466   -18349359.418 1
 89 11 17 11  3 59.0800000  0  4G13G 6G11G 9
  24844399.227    24844401.735   -13088367.939 9  16076646.774 7
  20997874.972    20997875.333    -8358312.959 8   9020577.765 7
  21598709.323    21598710.753    -9664035.577 9   8009828.461 7
                  24231612.524   -21769478.499 1
 89 11 17 11  4 29.0800000  0  4G13G 6G11G 9
  24821813.328    24821819.787   -13207061.145 8  15984158.489 7
  20993285.771    20993286.929    -8382430.349 9   9001784.993 8
  21587150.113    21587151.031    -9724779.173 9   7962495.818 7
                  23645546.158   -25973802.364 1
 89 11 17 11  4 59.0800000  0  4G13G 6G11G 9
  24799249.148    24799253.571   -13325635.992 8  15891762.474 6
  20988763.624    20988764.764    -8406191.749 9   8983269.617 7
  21575687.148    21575689.660    -9785016.745 9   7915557.480 8
                  22469541.471   -30959033.051 1
 89 11 17 11  5 29.0800000  0  4G13G 6G11G 9
  24776710.058    24776710.477   -13444089.297 9  15799461.107 6
  20984310.847    20984312.084    -8429595.123 9   8965033.235 7
  21564320.570    21564322.924    -9844746.832 8   7869014.556 6
                  21513249.988   -36726982.901 1
 89 11 17 11  5 59.0800000  0  4G13G 6G11G 9
  24754192.196    24754196.238   -13562418.252 9  15707256.692 7
  20979925.083    20979926.553    -8452638.352 9   8947077.459 8
  21553051.204    21553053.748    -9903968.110 9   7822868.153 7
                  20167013.212   -41923922.647 1
 89 11 17 11  6 29.0800000  0  4G13G 6G11G 9
  24731699.923    24731701.239   -13680620.636 8  15615150.877 7
  20975609.304    20975609.898    -8475319.612 9   8929403.782 8
  21541879.065    21541881.325    -9962679.086 9   7777119.376 7
                  18738406.009   -35907448.370 1
 89 11 17 11  6 59.0800000  0  4G13G 6G11G 9
  24709231.159    24709233.040   -13798693.389 9  15523146.096 6
  20971362.052    20971362.762    -8497636.815 9   8912013.799 7
  21530803.043    21530805.753   -10020878.412 9   7731769.282 8
                  17273717.861   -30673480.898 1
 89 11 17 11  7 29.0800000  0  4G13G 6G11G 9
  24686788.050    24686789.000   -13916634.427 8  15431243.930 6
  20967184.471    20967186.225    -8519588.312 8   8894908.770 7
  21519826.015    21519828.644   -10078565.030 9   7686818.698 7
                  15786555.720   -26216734.857 1
 89 11 17 11  7 59.0800000  0  4G13G 6G11G 9
  24664370.155    24664372.629   -14034441.466 9  15339446.190 8
  20963077.421    20963080.609    -8541171.872 9   8878090.377 7
  21508946.261    21508948.266   -10135737.310 8   7642268.912 8
                  13782513.719   -22545051.028 1
 89 11 17 11  8 29.0800000  0  3G13G 6G11
  24641976.582    24641979.484   -14152111.100 9  15247755.545 7
  20959040.917    20959041.543    -8562385.568 9   8861560.279 8
  21498165.543    21498168.101   -10192394.156 9   7598120.731 7
 89 11 17 11  8 59.0800000  0  4G13G 6G11G 9
  24619610.125    24619617.708   -14269640.956 1  15156173.773 1
  20955075.382    20955075.549    -8583227.434 7   8845319.909 6
  21487482.425    21487484.639   -10248534.176 5   7554375.306 4
  22538175.870    22538178.173   -14959426.990 9  19071027.486 8
 89 11 17 11  9 29.0800000  0  4G13G 6G11G 9
  24597273.084    24597276.775   -14387028.716 8  15064702.814 8
  20951180.221    20951181.430    -8603695.604 8   8829370.728 7
  21476897.586    21476900.518   -10304156.186 9   7511033.508 7
  22522739.514    22522740.530   -15040543.174 9  19007819.590 8
 89 11 17 11  9 59.0800000  0  4G13G 6G11G 9
  24574963.265    24574966.446   -14504271.729 9  14973344.625 7
  20947356.019    20947355.778    -8623788.091 8   8813714.270 7
  21466411.928    21466414.194   -10359258.961 9   7468096.331 8
  22507331.261    22507333.364   -15121509.668 9  18944728.839 8
 89 11 17 11 10 29.0800000  0  4G13G 6G11G 9
  24552681.327    24552683.534   -14621367.122 9  14882101.436 8
  20943604.708    20943604.507    -8643502.960 9   8798352.042 8
  21456025.445    21456027.796   -10413841.102 9   7425564.824 8
  22491953.458    22491955.304   -15202324.269 9  18881756.471 8
 89 11 17 11 10 59.0800000  0  4G13G 6G11G 9
  24530425.891    24530429.157   -14738312.561 9  14790975.141 8
  20939924.716    20939925.045    -8662838.312 9   8783285.543 7
  21445737.758    21445741.397   -10467901.538 9   7383439.829 8
  22476604.331    22476605.619   -15282985.036 9  18818903.941 8
 89 11 17 11 11 29.0800000  0  4G13G 6G11G 9
  24508201.223    24508205.407   -14855105.026 9  14699968.022 7
  20936318.366    20936320.169    -8681792.201 9   8768516.315 8
  21435549.912    21435552.575   -10521439.115 9   7341722.262 8
  22461283.965    22461286.583   -15363489.737 9  18756173.005 8
 89 11 17 11 11 59.0800000  0  4G13G 6G11G 9
  24486006.892    24486009.602   -14971742.460 9  14609081.739 7
  20932784.049    20932785.525    -8700362.657 9   8754045.837 7
  21425462.346    21425464.281   -10574452.906 9   7300412.854 7
  22445995.136    22445996.996   -15443836.151 9  18693565.433 8
 89 11 17 11 12 29.0800000  0  4G13G 6G11G 9
  24463840.581    24463845.020   -15088222.124 9  14518318.395 8
  20929323.910    20929325.135    -8718547.757 9   8739875.634 8
  21415473.102    21415475.370   -10626941.618 9   7259512.597 8
  22430736.386    22430737.974   -15524021.902 9  18631083.076 7
 89 11 17 11 12 59.0800000  0  4G13G 6G11G 9
  24441706.642    24441710.031   -15204541.025 9  14427680.325 8
  20925937.149    20925937.758    -8736345.415 9   8726007.354 7
  21405585.270    21405587.753   -10678903.750 9   7219022.669 9
  22415508.486    22415509.931   -15604045.004 9  18568727.455 7
 89 11 17 11 13 29.0800000  0  4G13G 6G11G 9
  24419600.878    24419604.962   -15320696.632 9  14337169.514 7
  20922624.188    20922625.276    -8753753.996 8   8712442.225 8
  21395798.005    21395800.793   -10730338.359 9   7178943.779 7
  22400311.179    22400314.126   -15683903.206 8  18506500.322 8
 89 11 17 11 13 59.0800000  0  4G13G 6G11G 9
  24397530.431    24397533.663   -15436687.031 9  14246787.423 9
  20919385.807    20919387.059    -8770771.533 9   8699181.777 7
  21386111.343    21386113.337   -10781244.540 9   7139276.665 7
  22385147.098    22385148.444   -15763594.365 9  18444403.309 8
 89 11 17 11 14 29.0800000  0  4G13G 6G11G 9
  24375489.567    24375492.897   -15552509.412 9  14156536.268 8
  20916222.678    20916223.917    -8787396.156 8   8686227.554 7
  21376523.987    21376525.623   -10831621.209 9   7100022.136 8
  22370013.753    22370016.901   -15843116.405 9  18382438.114 7
 89 11 17 11 14 59.0800000  0  4G13G 6G11G 9
  24353481.077    24353485.376   -15668160.529 9  14066418.583 8
  20913133.152    20913134.527    -8803625.916 8   8673581.001 7
  21367039.514    21367039.561   -10881467.396 9   7061180.981 9
  22354914.465    22354916.182   -15922466.791 9  18320606.693 9
 89 11 17 11 15 29.0800000  0  4G13G 6G11G 9
  24331507.552    24331510.604   -15783638.227 9  13976435.997 8
  20910120.797    20910122.568    -8819458.728 9   8661243.771 8
  21357654.747    21357657.508   -10930782.027 9   7022754.042 7
  22339846.455    22339849.245   -16001643.179 9  18258910.838 8
 89 11 17 11 15 59.0800000  0  4G13G 6G11G 9
  24309565.122    24309569.003   -15898940.113 9  13886590.413 7
  20907184.524    20907185.630    -8834893.146 8   8649216.930 7
  21348370.996    21348373.432   -10979564.473 9   6984741.757 8
  22324814.219    22324815.921   -16080643.700 9  18197352.029 8
 89 11 17 11 16 29.0800000  0  4G13G 6G11G 9
  24287659.300    24287662.611   -16014063.091 9  13796884.276 8
  20904321.992    20904324.166    -8849927.082 9   8637502.158 8
  21339189.815    21339190.633   -11027813.599 9   6947145.056 8
  22309814.465    22309816.797   -16159465.971 9  18135932.090 8
 89 11 17 11 16 59.0800000  0  4G13G 6G11G 9
  24265786.897    24265788.856   -16129005.201 9  13707319.033 8
  20901538.612    20901539.420    -8864558.505 9   8626101.093 8
  21330109.980    21330111.527   -11075528.161 9   6909964.911 8
  22294849.911    22294851.671   -16238107.618 8  18074652.897 9
 89 11 17 11 17 29.0800000  0  4G13G 6G11G 9
  24243948.016    24243951.525   -16243764.134 8  13617896.524 7
  20898832.178    20898832.102    -8878785.585 8   8615015.105 8
  21321131.766    21321134.281   -11122707.283 9   6873201.987 7
  22279919.986    22279921.888   -16316566.237 9  18013516.333 9
 89 11 17 11 17 59.0800000  0  4G13G 6G11G 9
  24222145.907    24222148.774   -16358336.851 9  13528619.148 8
  20896201.764    20896203.434    -8892606.574 8   8604245.513 8
  21312256.821    21312258.465   -11169350.167 9   6836856.909 8
  22265025.260    22265027.735   -16394839.646 9  17952524.087 8
 89 11 17 11 18 29.0800000  0  4G13G 6G11G 9
  24200379.729    24200381.258   -16472720.974 8  13439488.699 7
  20893649.248    20893650.802    -8906019.766 8   8593793.699 8
  21303482.458    21303483.989   -11215456.139 9   6800930.193 8
  22250165.108    22250168.469   -16472925.825 9  17891677.735 8
 89 11 17 11 18 59.0800000  0  4G13G 6G11G 9
  24178648.538    24178651.820   -16586913.741 9  13350507.377 7
  20891174.000    20891174.987    -8919023.317 9   8583661.064 8
  21294811.502    21294813.316   -11261024.564 9   6765422.354 7
  22235342.444    22235343.731   -16550822.429 9  17830979.052 8
 89 11 17 11 19 29.0800000  0  4G13G 6G11G 9
  24156955.774    24156960.043   -16700912.795 9  13261676.990 7
  20888777.924    20888779.515    -8931615.378 9   8573849.041 8
  21286242.739    21286244.306   -11306054.605 9   6730334.025 7
  22220555.296    22220557.728   -16628526.922 9  17770430.077 8
 89 11 17 11 19 59.0800000  0  4G13G 6G11G 9
  24135298.890    24135301.942   -16814715.916 9  13172999.277 8
  20886460.713    20886462.023    -8943794.045 8   8564359.148 8
  21277776.346    21277777.828   -11350544.856 9   6695666.302 7
  22205806.954    22205808.141   -16706037.028 9  17710032.584 8
 89 11 17 11 20 29.0800000  0  4G13G 6G11G 9
  24113679.946    24113684.185   -16928320.191 9  13084476.537 7
  20884222.652    20884223.988    -8955557.427 9   8555192.876 8
  21269412.510    21269414.801   -11394494.755 9   6661419.634 6
  22191092.497    22191096.216   -16783350.480 9  17649788.331 8
 89 11 17 11 20 59.0800000  0  4G13G 6G11G 9
  24092102.463    24092105.551   -17041722.821 9  12996110.914 8
  20882063.318    20882064.747    -8966903.778 8   8546351.595 7
  21261152.396    21261153.900   -11437903.841 9   6627594.386 8
  22176419.821    22176421.181   -16860464.680 9  17589699.411 9
 89 11 17 11 21 29.0800000  0  4G13G 6G11G 9
  24070561.202    24070563.486   -17154921.776 5  12907903.975 4
  20879984.761    20879985.418    -8977831.454 8   8537836.510 8
  21252994.610    21252996.119   -11480771.061 9   6594191.367 7
  22161783.186    22161784.866   -16937377.623 9  17529767.276 8
 89 11 17 11 21 59.0800000  0  4G13G 6G11G 9
  24049059.098    24049062.780   -17267914.593 4  12819857.678 3
  20877984.307    20877986.281    -8988338.650 8   8529649.078 8
  21244940.160    21244942.688   -11523096.127 9   6561210.812 7
  22147185.600    22147188.023   -17014086.888 9  17469993.833 8
 89 11 17 11 22 29.0800000  0  4G13G 6G11G 9
  24027596.332    24027598.739   -17380698.237 9  12731974.377 7
  20876065.234    20876067.163    -8998423.503 9   8521790.764 7
  21236989.471    21236992.039   -11564878.130 9   6528653.409 7
  22132627.505    22132629.945   -17090589.952 8  17410381.101 9
 89 11 17 11 22 59.0800000  0  4G13G 6G11G 9
  24006174.202    24006177.280   -17493270.476 9  12644255.799 8
  20874226.795    20874227.607    -9008084.145 8   8514263.009 7
  21229141.490    21229143.324   -11606116.311 9   6496519.777 7
  22118108.882    22118111.156   -17166884.421 9  17350930.930 9
 89 11 17 11 23 29.0800000  0  4G13G 6G11G 9
  23984792.889    23984796.740   -17605628.915 9  12556703.841 8
  20872470.093    20872470.690    -9017318.870 8   8507067.106 8
  21221397.542    21221401.076   -11646809.987 9   6464810.425 7
  22103630.581    22103632.414   -17242968.009 9  17291645.068 7
 89 11 17 11 23 59.0800000  0  4G13G 6G11G 9
  23963453.416    23963456.338   -17717770.813 8  12469320.613 8
  20870793.176    20870794.574    -9026125.829 9   8500204.559 8
  21213758.599    21213761.006   -11686958.811 9   6433525.624 8
  22089193.550    22089196.081   -17318838.314 8  17232525.436 8
 89 11 17 11 24 29.0800000  0  4G13G 6G11G 9
  23942155.544    23942159.023   -17829693.686 9  12382108.020 8
  20869198.156    20869200.307    -9034503.553 8   8493676.498 7
  21206221.235    21206224.775   -11726562.276 9   6402665.807 7
  22074796.556    22074798.754   -17394492.987 9  17173573.796 9
 89 11 17 11 24 59.0800000  0  4G13G 6G11G 9
  23920898.409    23920902.978   -17941395.346 8  12295067.847 8
  20867687.629    20867688.129    -9042450.370 8   8487484.174 8
  21198789.224    21198791.129   -11765619.789 9   6372231.397 8
  22060441.489    22060443.188   -17469929.670 9  17114792.030 9
 89 11 17 11 25 29.0800000  0  4G13G 6G11G 9
  23899685.548    23899688.610   -18052873.312 9  12208201.948 8
  20866257.680    20866259.917    -9049964.334 8   8481629.158 8
  21191460.907    21191461.294   -11804130.543 8   6342223.016 7
  22046128.661    22046129.445   -17545145.872 8  17056182.094 8
 89 11 17 11 25 59.0800000  0  4G13G 6G11G 9
  23878513.731    23878517.327   -18164125.111 9  12121512.295 8
  20864909.755    20864911.808    -9057043.785 8   8476112.664 8
  21184236.755    21184239.630   -11842094.108 9   6312641.016 7
  22031857.527    22031859.745   -17620139.188 8  16997745.784 8
 89 11 17 11 26 29.0800000  0  4G13G 6G11G 9
  23857387.125    23857391.179   -18275147.908 8  12035001.083 8
  20863645.543    20863647.305    -9063686.943 9   8470936.193 8
  21177117.761    21177120.186   -11879510.058 9   6283485.719 8
  22017629.752    22017631.454   -17694907.138 9  16939485.057 8
 89 11 17 11 26 59.0800000  0  4G13G 6G11G 9
  23836305.169    23836309.050   -18385939.587 9  11948669.950 8
  20862465.078    20862466.774    -9069892.274 9   8466100.888 7
  21170101.900    21170103.389   -11916378.123 9   6254757.359 8
  22003445.050    22003445.960   -17769447.308 9  16881401.898 8
 89 11 17 11 27 29.0800000  0  4G13G 6G11G 9
  23815266.384    23815270.793   -18496497.221 9  11862521.185 8
  20861366.873    20861369.780    -9075658.147 8   8461608.022 9
  21163189.397    21163192.851   -11952697.409 9   6226456.629 7
  21989303.531    21989305.232   -17843757.315 9  16823498.036 8
 89 11 17 11 27 59.0800000  0  4G13G 6G11G 9
  23794273.295    23794275.782   -18606818.982 9  11776556.231 8
  20860354.644    20860356.300    -9080982.779 8   8457458.945 6
  21156382.803    21156385.611   -11988467.567 9   6198583.778 8
  21975208.173    21975209.574   -17917834.774 9  16765775.399 9
 89 11 17 11 28 29.0800000  0  4G13G 6G11G 9
  23773324.921    23773327.372   -18716902.464 9  11690776.926 8
  20859425.548    20859426.701    -9085864.527 9   8453654.992 7
  21149680.505    21149683.086   -12023688.346 8   6171139.042 8
  21961155.773    21961156.691   -17991677.194 9  16708235.878 7
 89 11 17 11 28 59.0800000  0  4G13G 6G11G 9
  23752422.679    23752425.388   -18826745.094 8  11605185.295 9
  20858580.144    20858582.424    -9090301.933 7   8450197.252 8
  21143082.713    21143085.670   -12058359.311 8   6144122.733 8
  21947149.907    21947151.604   -18065282.114 8  16650881.401 7
 89 11 17 11 29 29.0800000  0  4G13G 6G11G 9
  23731566.720    23731569.210   -18936344.302 9  11519783.353 8
  20857822.512    20857821.873    -9094293.161 8   8447087.159 8
  21136590.443    21136592.716   -12092480.236 8   6117534.978 8
  21933188.882    21933189.882   -18138647.010 9  16593713.979 8
 89 11 17 11 29 59.0800000  0  4G13G 6G11G 9
  23710757.339    23710759.622   -19045697.562 9  11434573.040 7
  20857147.164    20857148.832    -9097836.633 8   8444325.998 7
  21130202.307    21130204.271   -12126050.786 9   6091376.109 7
  21919273.709    21919275.563   -18211769.339 9  16536735.587 8
 89 11 17 11 30 29.0800000  0  4G13G 6G11G 9
  23689995.630    23689997.624   -19154802.505 9  11349556.242 8
  20856558.227    20856560.260    -9100930.605 8   8441915.105 8
  21123918.692    21123919.604   -12159070.702 9   6065646.318 8
  21905405.496    21905407.446   -18284646.758 9  16479947.965 7
 89 11 17 11 30 59.0800000  0  4G13G 6G11G 9
  23669280.846    23669283.684   -19263656.829 9  11264734.712 7
  20856055.359    20856057.327    -9103573.603 7   8439855.621 8
  21117739.510    21117742.778   -12191539.479 8   6040345.973 8
  21891585.047    21891586.776   -18357276.696 9  16423353.209 6
 89 11 17 11 31 29.0800000  0  4G13G 6G11G 9
  23648614.836    23648617.594   -19372257.852 9  11180110.567 8
  20855638.034    20855640.277    -9105763.914 9   8438148.893 8
  21111666.138    21111668.582   -12223456.885 8   6015475.281 7
  21877811.048    21877812.401   -18429656.619 9  16366953.280 8
 89 11 17 11 31 59.0800000  0  4G13G 6G11G 9
  23627996.171    23628000.236   -19480603.635 9  11095685.301 8
  20855308.900    20855310.399    -9107500.291 8   8436795.823 7
  21105697.947    21105699.773   -12254822.966 8   5991034.184 7
  21864085.553    21864086.552   -18501783.988 9  16310750.154 9
 89 11 17 11 32 29.0800000  0  4G13G 6G11G 9
  23607429.302    23607431.699   -19588691.287 8  11011461.177 8
  20855063.964    20855065.964    -9108780.917 8   8435797.934 7
  21099833.575    21099835.856   -12285637.634 9   5967022.761 9
  21850409.256    21850410.767   -18573656.658 9  16254745.508 8
 89 11 17 11 32 59.0800000  0  4G13G 6G11G 9
  23586908.925    23586913.560   -19696518.569 8  10927439.947 8
  20854907.708    20854910.377    -9109604.207 8   8435156.400 8
  21094074.653    21094076.757   -12315900.006 8   5943441.698 8
  21836781.350    21836782.606   -18645271.629 8  16198941.648 8
 89 11 17 11 33 29.0800000  0  4G13G 6G11G 9
  23566441.662    23566444.654   -19804083.280 9  10843623.305 8
  20854837.844    20854839.461    -9109968.740 8   8434872.331 7
  21088421.263    21088424.853   -12345610.272 9   5920290.837 8
  21823202.495    21823204.712   -18716626.544 9  16143340.437 8
 89 11 17 11 33 59.0800000  0  4G13G 6G11G 9
  23546021.659    23546024.508   -19911383.293 8  10760012.929 8
  20854857.445    20854858.858    -9109872.860 8   8434947.040 8
  21082872.325    21082874.560   -12374768.255 9   5897570.318 8
  21809674.555    21809676.240   -18787718.792 9  16087943.870 8
 89 11 17 11 34 29.0800000  0  4G13G 6G11G 9
  23525654.123    23525658.177   -20018415.655 9  10676611.114 9
  20854963.737    20854964.678    -9109315.055 8   8435381.672 7
  21077429.570    21077432.342   -12403373.526 9   5875280.516 7
  21796196.554    21796197.049   -18858545.918 9  16032753.919 8
 89 11 17 11 34 59.0800000  0  4G13G 6G11G 9
  23505338.852    23505341.918   -20125177.969 9  10593419.705 9
  20855157.358    20855159.237    -9108293.851 8   8436177.391 8
  21072090.677    21072093.246   -12431426.409 9   5853421.161 8
  21782769.865    21782770.466   -18929105.235 8  15977772.684 8
 89 11 17 11 35 29.0800000  0  4G13G 6G11G 9
  23485073.392    23485077.235   -20231668.313 9  10510440.220 7
  20855438.845    20855441.781    -9106807.794 9   8437335.370 8
  21066858.917    21066860.403   -12458926.630 9   5831992.416 8
  21769393.489    21769394.744   -18999394.554 9  15923001.797 8
 89 11 17 11 35 59.0800000  0  4G13G 6G11G 9
  23464861.703    23464865.980   -20337884.244 9  10427674.586 8
  20855811.789    20855813.356    -9104855.387 9   8438856.792 8
  21061730.475    21061732.920   -12485873.982 8   5810994.504 8
  21756070.369    21756071.151   -19069411.075 9  15868443.486 8
 89 11 17 11 36 29.0800000  0  4G13G 6G11G 9
  23444701.654    23444704.369   -20443823.502 9  10345124.526 9
  20856271.789    20856273.929    -9102435.293 8   8440742.600 8
  21056706.196    21056708.471   -12512268.950 9   5790427.000 8
  21742798.679    21742799.675   -19139152.374 9  15814099.626 8
 89 11 17 11 36 59.0800000  0  4G13G 6G11G 9
  23424595.309    23424598.250   -20549483.657 9  10262791.948 8
  20856822.851    20856824.593    -9099546.109 9   8442993.862 8
  21051789.359    21051791.582   -12538111.322 9   5770290.121 7
  21729580.304    21729580.684   -19208615.964 9  15759972.139 8
 89 11 17 11 37 29.0800000  0  4G13G 6G11G 9
  23404543.227    23404545.795   -20654862.173 9  10180678.831 8
  20857460.652    20857463.161    -9096186.186 9   8445611.971 8
  21046976.551    21046980.968   -12563401.159 9   5750583.747 7
  21716415.756    21716416.942   -19277799.048 9  15706063.194 7
 89 11 17 11 37 59.0800000  0  4G13G 6G11G 9
  23384545.010    23384546.693   -20759957.111 9  10098786.670 8
  20858190.117    20858191.722    -9092354.303 8   8448597.832 8
  21042270.452    21042271.634   -12588138.316 8   5731308.032 7
  21703303.815    21703305.798   -19346699.141 9  15652374.805 8
 89 11 17 11 38 29.0800000  0  4G13G 6G11G 9
  23364599.770    23364602.400   -20864766.249 8  10017117.209 8
  20859009.797    20859010.271    -9088048.992 8   8451952.602 8
  21037667.462    21037670.120   -12612322.922 9   5712462.897 8
  21690247.046    21690248.202   -19415313.888 9  15598908.763 8
 89 11 17 11 38 59.0800000  0  4G13G 6G11G 9
  23344709.892    23344711.453   -20969287.276 9   9935672.259 8
  20859919.704    20859920.690    -9083268.731 8   8455677.487 8
  21033169.588    21033173.336   -12635954.971 9   5694048.354 8
  21677244.456    21677246.381   -19483640.378 9  15545667.359 8
 89 11 17 11 39 29.0800000  0  4G13G 6G11G 9
  23324874.566    23324878.093   -21073517.714 9   9854453.735 8
  20860919.862    20860921.738    -9078012.228 8   8459773.455 9
  21028778.627    21028779.678   -12659034.842 9   5676063.982 7
  21664298.438    21664298.663   -19551676.092 9  15492652.559 7
 89 11 17 11 39 59.0800000  0  4G13G 6G11G 9
  23305096.525    23305099.698   -21177455.445 9   9773463.294 8
  20862010.829    20862011.761    -9072278.238 8   8464241.523 8
  21024491.670    21024493.562   -12681562.499 9   5658509.962 8
  21651406.686    21651409.530   -19619418.515 8  15439866.236 8
 89 11 17 11 40 29.0800000  0  4G13G 6G11G 9
  23285374.639    23285377.351   -21281098.404 9   9692702.539 7
  20863193.046    20863194.633    -9066065.409 8   8469082.676 8
  21020309.630    21020312.031   -12703538.099 9   5641386.118 8
  21638571.422    21638574.581   -19686865.426 9  15387310.184 8
 89 11 17 11 40 59.0800000  0  4G13G 6G11G 9
  23265707.946    23265711.515   -21384443.787 9   9612173.673 9
  20864467.262    20864469.279    -9059372.263 9   8474298.138 8
  21016232.286    21016234.570   -12724961.657 9   5624692.457 7
  21625794.714    21625795.715   -19754013.669 9  15334986.940 8
 89 11 17 11 41 29.0800000  0  4G13G 6G11G 9
  23246098.737    23246102.087   -21487489.377 8   9531878.417 8
  20865831.301    20865834.079    -9052197.688 9   8479888.709 8
  21012261.571    21012263.211   -12745833.747 8   5608428.496 8
  21613074.443    21613075.570   -19820860.980 9  15282898.158 9
 89 11 17 11 41 59.0800000  0  4G13G 6G11G 9
  23226548.127    23226551.047   -21590233.463 9   9451818.092 8
  20867290.057    20867291.224    -9044540.232 9   8485855.591 9
  21008395.040    21008397.181   -12766154.468 8   5592594.218 8
  21600411.377    21600412.290   -19887404.714 9  15231045.951 8
 89 11 17 11 42 29.0800000  0  4G13G 6G11G 9
  23207054.018    23207057.099   -21692673.684 9   9371994.558 8
  20868838.045    20868839.078    -9036398.616 8   8492199.780 7
  21004631.295    21004635.076   -12785924.354 9   5577189.044 8
  21587805.747    21587807.982   -19953642.168 9  15179432.413 8
 89 11 17 11 42 59.0800000  0  4G13G 6G11G 9
  23187618.707    23187622.020   -21794807.732 9   9292409.592 8
  20870480.584    20870481.270    -9027771.746 9   8498922.018 8
  21000975.014    21000976.637   -12805143.232 9   5562213.340 7
  21575260.340    21575262.379   -20019570.906 9  15128059.398 8
 89 11 17 11 43 29.0800000  0  4G13G 6G11G 9
  23168241.683    23168244.965   -21896633.190 9   9213065.089 8
  20872214.511    20872216.580    -9018658.271 8   8506023.444 7
  20997422.969    20997425.033   -12823811.496 8   5547666.716 7
  21562773.221    21562775.131   -20085188.323 9  15076928.962 8
 89 11 17 11 43 59.0800000  0  4G13G 6G11G 9
  23148924.980    23148927.209   -21998147.971 9   9133962.667 7
  20874040.015    20874042.335    -9009057.111 9   8513504.875 7
  20993973.935    20993976.632   -12841929.845 9   5533548.515 8
  21550347.141    21550347.653   -20150491.885 9  15026043.084 8
 89 11 17 11 44 29.0800000  0  4G13G 6G11G 9
  23129665.506    23129668.666   -22099350.199 9   9055103.788 8
  20875961.411    20875962.961    -8998966.838 9   8521367.441 8
  20990631.136    20990634.367   -12859497.987 9   5519859.059 8
  21537979.706    21537982.074   -20215478.815 9  14975403.934 8
 89 11 17 11 44 59.0800000  0  4G13G 6G11G 9
  23110467.035    23110471.055   -22200237.500 9   8976490.300 8
  20877974.611    20877978.274    -8988386.298 9   8529612.025 7
  20987393.169    20987394.578   -12876516.702 9   5506597.749 7
  21525673.915    21525675.481   -20280146.603 9  14925013.458 8
 89 11 17 11 45 29.0800000  0  4G13G 6G11G 9
  23091330.017    23091332.198   -22300807.839 9   8898123.802 8
  20880082.020    20880084.919    -8977314.362 9   8538239.498 7
  20984258.935    20984260.846   -12892986.304 7   5493764.322 8
  21513429.820    21513431.221   -20344492.685 9  14874873.674 8
 89 11 17 11 45 59.0800000  0  4G13G 6G11G 9
  23072253.330    23072256.330   -22401059.208 9   8820005.852 8
  20882283.988    20882285.095    -8965749.935 8   8547250.700 7
  20981229.337    20981231.664   -12908907.405 9   5481358.272 8
  21501246.860    21501248.343   -20408514.325 9  14824986.678 7
 89 11 17 11 46 29.0800000  0  4G13G 6G11G 9
  23053236.678    23053240.069   -22500988.831 9   8742138.615 8
  20884576.395    20884578.137    -8953691.775 8   8556646.673 7
  20978303.804    20978305.364   -12924280.343 9   5469379.361 8
  21489126.511    21489127.894   -20472208.895 9  14775354.526 8
 89 11 17 11 46 59.0800000  0  4G13G 6G11G 9
  23034281.233    23034285.296   -22600594.832 9   8664523.545 8
  20886966.417    20886967.732    -8941138.804 9   8566428.211 8
  20975482.663    20975484.345   -12939105.076 9   5457827.640 8
  21477069.125    21477069.282   -20535573.755 9  14725979.324 8
 89 11 17 11 47 29.0800000  0  4G13G 6G11G 9
  23015390.359    23015392.818   -22699874.913 9   8587162.466 9
  20889449.746    20889452.437    -8928089.880 8   8576596.164 7
  20972764.902    20972768.571   -12953382.778 8   5446702.119 7
  21465073.385    21465074.926   -20598606.532 9  14676862.846 9
 89 11 17 11 47 59.0800000  0  4G13G 6G11G 9
  22996560.284    22996563.068   -22798827.450 9   8510056.595 8
  20892026.513    20892028.195    -8914543.778 8   8587151.640 8
  20970152.409    20970154.901   -12967113.763 9   5436002.650 7
  21453142.553    21453145.106   -20661304.565 9  14628007.248 7
 89 11 17 11 48 29.0800000  0  4G13G 6G11G 9
  22977791.511    22977796.445   -22897450.558 9   8433207.439 8
  20894698.809    20894701.639    -8900499.830 9   8598094.913 8
  20967643.687    20967645.833   -12980298.522 8   5425728.785 6
  21441275.963    21441278.407   -20723664.929 9  14579414.789 8
 89 11 17 11 48 59.0800000  0  4G13G 6G11G 9
  22959088.450    22959091.354   -22995742.097 9   8356616.650 8
  20897466.568    20897467.652    -8885956.541 9   8609427.320 8
  20965239.258    20965240.151   -12992937.334 9   5415880.359 7
  21429473.484    21429474.422   -20785685.376 9  14531087.203 8
 89 11 17 11 49 29.0800000  0  4G13G 6G11G 9
  22940447.477    22940451.449   -23093699.273 9   8280286.401 7
  20900329.474    20900330.504    -8870913.005 8   8621149.545 8
  20962936.797    20962939.567   -13005031.224 9   5406456.526 8
  21417736.650    21417738.336   -20847363.121 8  14483026.635 9
 89 11 17 11 49 59.0800000  0  4G13G 6G11G 9
  22921871.466    22921874.222   -23191320.285 9   8204218.098 8
  20903287.347    20903288.683    -8855368.297 9   8633262.287 8
  20960738.867    20960743.028   -13016580.594 9   5397457.057 7
  21406065.414    21406065.882   -20908695.671 9  14435234.997 9
 89 11 17 11 50 29.0800000  0  4G13G 6G11G 9
  22903359.416    22903361.858   -23288603.329 9   8128413.147 8
  20906341.948    20906342.751    -8839321.178 8   8645766.506 8
  20958646.246    20958647.003   -13027586.084 8   5388881.323 7
  21394460.686    21394462.528   -20969680.193 9  14387714.573 9
 89 11 17 11 50 59.0800000  0  4G13G 6G11G 9
  22884910.683    22884913.118   -23385546.586 9   8052872.947 8
  20909490.408    20909491.718    -8822770.937 9   8658662.808 8
  20956655.258    20956656.909   -13038048.270 9   5380728.997 8
  21382922.494    21382924.135   -21030314.354 9  14340467.185 8
 89 11 17 11 51 29.0800000  0  4G13G 6G11G 9
  22866528.141    22866532.250   -23482147.857 9   7977599.249 8
  20912736.391    20912737.484    -8805716.587 9   8671951.927 7
  20954767.843    20954768.744   -13047967.785 8   5372999.529 8
  21371450.671    21371452.897   -21090595.201 9  14293495.131 7
 89 11 17 11 51 59.0800000  0  4G13G 6G11G 9
  22848211.564    22848213.836   -23578404.968 9   7902593.723 8
  20916077.461    20916078.846    -8788156.988 9   8685634.752 8
  20952981.054    20952984.003   -13057345.297 9   5365692.330 7
  21360048.415    21360048.982   -21150520.327 9  14246800.268 8
 89 11 17 11 52 29.0800000  0  4G13G 6G11G 9
  22829959.866    22829962.781   -23674316.118 9   7827857.782 8
  20919514.816    20919515.490    -8770091.385 8   8699711.853 8
  20951300.986    20951301.929   -13066181.366 9   5358807.053 7
  21348712.333    21348714.970   -21210087.070 9  14200384.620 9
 89 11 17 11 52 59.0800000  0  4G13G 6G11G 9
  22811775.020    22811778.342   -23769879.130 9   7753393.118 8
  20923049.020    20923050.382    -8751518.785 9   8714184.018 8
  20949722.472    20949724.000   -13074477.113 9   5352342.823 7
  21337447.015    21337447.809   -21269292.945 9  14154250.155 8
 89 11 17 11 53 29.0800000  0  4G13G 6G11G 9
  22793656.603    22793659.038   -23865091.808 9   7679201.434 7
  20926680.905    20926682.181    -8732438.348 8   8729051.893 7
  20948245.596    20948248.129   -13082233.258 8   5346299.081 8
  21326248.243    21326250.328   -21328135.310 9  14108398.956 8
 89 11 17 11 53 59.0800000  0  4G13G 6G11G 9
  22775605.290    22775608.578   -23959952.225 9   7605284.236 8
  20930408.304    20930410.607    -8712849.038 9   8744316.309 8
  20946872.959    20946875.149   -13089450.589 8   5340675.110 8
  21315121.723    21315122.335   -21386611.250 9  14062833.318 8
 89 11 17 11 54 29.0800000  0  4G13G 6G11G 9
  22757621.081    22757624.272   -24054459.375 9   7531642.330 8
  20934232.195    20934234.619    -8692750.145 9   8759977.796 8
  20945602.131    20945604.862   -13096129.783 8   5335470.556 8
  21304063.463    21304065.079   -21444718.529 8  14017554.940 8
 89 11 17 11 54 59.0800000  0  4G13G 6G11G 9
  22739704.523    22739707.816   -24148610.583 9   7458277.769 7
  20938154.625    20938155.149    -8672140.928 9   8776036.924 9
  20944432.672    20944435.405   -13102271.544 7   5330684.785 8
  21293077.350    21293078.648   -21502454.188 9  13972566.147 7
 89 11 17 11 55 29.0800000  0  4G13G 6G11G 9
  22721856.127    22721858.738   -24242403.553 9   7385192.352 8
  20942174.310    20942174.039    -8651020.286 8   8792494.546 8
  20943365.751    20943368.470   -13107876.852 9   5326317.023 7
  21282160.978    21282162.621   -21559816.020 8  13927868.635 9
 89 11 17 11 55 59.0800000  0  4G13G 6G11G 9
  22704076.530    22704079.025   -24335836.901 9   7312387.185 9
  20946290.887    20946292.099    -8629387.592 9   8809351.172 8
  20942400.313    20942404.822   -13112946.322 9   5322366.762 7
  21271317.014    21271317.869   -21616801.096 9  13883464.704 8
 89 11 17 11 56 29.0800000  0  4G13G 6G11G 9
  22686365.338    22686366.883   -24428908.890 9   7239863.569 8
  20950504.309    20950506.683    -8607241.989 8   8826607.518 8
  20941538.884    20941541.817   -13117481.215 9   5318833.058 7
  21260545.199    21260547.306   -21673406.888 8  13839356.352 9
 89 11 17 11 56 59.0800000  0  4G13G 6G11G 9
  22668724.206    22668726.430   -24521617.313 9   7167623.263 8
  20954816.223    20954817.236    -8584582.877 8   8844263.993 8
  20940776.795    20940779.464   -13121482.123 8   5315715.489 8
  21249845.950    21249848.449   -21729630.981 9  13795545.412 8
 89 11 17 11 57 29.0800000  0  4G13G 6G11G 9
  22651150.842    22651153.933   -24613960.154 9   7095667.819 8
  20959225.616    20959227.764    -8561409.301 9   8862321.359 8
  20940117.777    20940120.133   -13124950.065 9   5313013.180 7
  21239219.970    21239222.256   -21785470.642 8  13752033.972 8
 89 11 17 11 57 59.0800000  0  4G13G 6G11G 9
  22633649.775    22633651.933   -24705935.763 9   7023998.541 8
  20963734.388    20963736.293    -8537720.582 8   8880780.121 8
  20939558.688    20939561.026   -13127885.675 8   5310725.707 8
  21228668.113    21228669.867   -21840923.077 8  13708824.312 8
 89 11 17 11 58 29.0800000  0  4G13G 6G11G 9
  22616217.462    22616219.473   -24797541.963 8   6952617.106 8
  20968340.628    20968340.917    -8513516.130 9   8899640.733 9
  20939101.196    20939104.148   -13130290.466 8   5308851.821 7
  21218190.176    21218191.687   -21895985.957 9  13665918.222 8
 89 11 17 11 58 59.0800000  0  4G13G 6G11G 9
  22598855.964    22598858.822   -24888777.438 9   6881524.556 7
  20973044.274    20973045.390    -8488795.165 9   8918903.841 8
  20938745.141    20938747.669   -13132165.021 9   5307391.139 7
  21207786.044    21207787.456   -21950656.691 9  13623317.676 8
 89 11 17 11 59 29.0800000  0  4G13G 6G11G 9
  22581564.507    22581567.111   -24979640.020 9   6810722.570 8
  20977847.281    20977848.648    -8463557.125 9   8938569.844 9
  20938488.235    20938489.657   -13133510.292 9   5306342.883 7
  21197459.185    21197459.980   -22004932.531 8  13581024.819 8
 89 11 17 11 59 59.0800000  0  4G13G 6G11G 9
  22564344.946    22564347.689   -25070128.222 9   6740212.284 7
  20982748.105    20982749.644    -8437801.299 9   8958639.328 8
  20938333.019    20938335.887   -13134327.296 8   5305706.268 7
  21187205.243    21187206.701   -22058811.102 9  13539041.505 8
 89 11 17 12  0 29.0800000  0  4G13G 6G11G 9
  22547197.536    22547201.171   -25160240.082 9   6669995.276 7
  20987747.459    20987749.619    -8411527.043 8   8979112.744 8
  20938277.578    20938281.278   -13134617.355 9   5305480.241 6
  21177027.774    21177030.043   -22112289.671 9  13497369.936 8
 89 11 17 12  0 59.0800000  0  4G13G 6G11G 9
  22530121.697    22530125.049   -25249973.862 9   6600072.878 8
  20992846.182    20992847.807    -8384733.862 9   8999990.539 8
  20938322.626    20938324.255   -13134381.260 8   5305664.230 8
  21166928.827    21166929.853   -22165365.920 9  13456011.793 7
 89 11 17 12  1 29.0800000  0  4G13G 6G11G 9
  22513118.421    22513121.623   -25339327.947 9   6530446.348 9
  20998044.446    20998044.539    -8357421.118 9   9021273.169 8
  20938467.905    20938470.369   -13133620.726 9   5306256.824 7
  21156905.582    21156907.451   -22218036.862 8  13414969.504 7
 89 11 17 12  1 59.0800000  0  4G13G 6G11G 9
  22496187.655    22496190.493   -25428300.408 9   6461117.171 7
  21003341.317    21003341.900    -8329588.241 9   9042961.098 7
  20938712.928    20938713.425   -13132336.363 9   5307257.612 7
  21146960.231    21146961.856   -22270300.049 9  13374244.995 8
 89 11 17 12  2 29.0800000  0  4G13G 6G11G 9
  22479328.937    22479331.803   -25516889.694 9   6392086.581 8
  21008735.705    21008738.142    -8301234.471 9   9065054.977 8
  20939056.212    20939057.394   -13130529.097 8   5308665.874 7
  21137092.752    21137094.653   -22322152.968 9  13333840.220 8
 89 11 17 12  2 59.0800000  0  4G13G 6G11G 9
  22462544.423    22462546.756   -25605093.682 9   6323356.208 9
  21014230.578    21014231.401    -8272359.623 9   9087554.866 8
  20939498.518    20939501.462   -13128200.612 8   5310480.253 7
  21127304.146    21127305.715   -22373593.167 9  13293756.945 7
 89 11 17 12  3 29.0800000  0  4G13G 6G11G 9
  22445834.464    22445836.655   -25692910.980 9   6254927.158 7
  21019824.402    21019825.236    -8242962.995 9   9110461.316 8
  20940040.847    20940043.290   -13125351.533 8   5312700.323 8
  21117594.040    21117595.154   -22424618.178 9  13253997.212 8
 89 11 17 12  3 59.0800000  0  4G13G 6G11G 9
  22429196.766    22429198.806   -25780339.452 9   6186801.107 8
  21025518.788    21025519.820    -8213044.172 9   9133774.690 9
  20940682.884    20940684.305   -13121983.060 9   5315325.117 7
  21107964.380    21107966.821   -22475225.329 9  13214563.081 8
 89 11 17 12  4 29.0800000  0  4G13G 6G11G 9
  22412634.395    22412636.173   -25867377.774 8   6118979.049 9
  21031310.311    21031311.809    -8182602.685 8   9157495.370 9
  20941421.582    20941422.964   -13118096.716 9   5318353.415 7
  21098413.505    21098416.778   -22525411.876 8  13175456.657 7
 89 11 17 12  4 59.0800000  0  4G13G 6G11G 9
  22396145.382    22396148.688   -25954024.141 9   6051462.413 9
  21037203.339    21037204.747    -8151638.059 9   9181623.664 9
  20942259.315    20942261.521   -13113693.596 8   5321784.419 7
  21088943.570    21088945.910   -22575175.510 8  13136679.818 9
 89 11 17 12  5 29.0800000  0  4G13G 6G11G 9
  22379731.835    22379735.201   -26040277.232 9   5984252.245 8
  21043196.496    21043196.669    -8120149.997 9   9206159.833 8
  20943195.364    20943198.586   -13108775.007 9   5325617.063 7
  21079555.219    21079557.302   -22624513.811 8  13098234.327 9
 89 11 17 12  5 59.0800000  0  4G13G 6G11G 9
  22363394.433    22363395.938   -26126135.064 9   5917350.052 9
  21049286.502    21049288.431    -8088137.898 9   9231104.311 9
  20944229.371    20944231.461   -13103342.075 9   5329850.520 7
  21070248.428    21070250.529   -22673423.902 8  13060122.562 8
 89 11 17 12  6 29.0800000  0  4G13G 6G11G 9
  22347131.856    22347133.957   -26211596.104 9   5850757.058 8
  21055477.658    21055479.943    -8055601.526 9   9256457.348 8
  20945361.266    20945363.112   -13097395.981 8   5334483.838 7
  21061022.691    21061025.735   -22721903.381 8  13022346.324 8
 89 11 17 12  6 59.0800000  0  4G13G 6G11G 9
  22330944.242    22330946.821   -26296658.859 9   5784474.417 8
  21061769.770    21061771.896    -8022540.552 9   9282219.150 9
  20946589.380    20946592.406   -13090938.191 7   5339515.891 7
  21051880.143    21051882.675   -22769949.949 9  12984907.432 9
 89 11 17 12  7 29.0800000  0  4G13G 6G11G 9
  22314833.030    22314836.549   -26381321.781 9   5718503.332 8
  21068160.244    21068163.308    -7988954.506 8   9308390.117 8
  20947916.141    20947917.705   -13083969.960 9   5344945.666 7
  21042821.050    21042821.802   -22817560.870 8  12947808.016 9
 89 11 17 12  7 59.0800000  0  4G13G 6G11G 9
  22298799.009    22298803.023   -26465582.863 9   5652845.373 9
  21074651.999    21074654.187    -7954843.027 9   9334970.516 9
  20949338.717    20949341.587   -13076492.677 8   5350772.136 7
  21033843.602    21033844.410   -22864733.492 9  12911050.142 8
 89 11 17 12  8 29.0800000  0  4G13G 6G11G 9
  22282841.391    22282843.518   -26549440.790 9   5587501.563 9
  21081243.219    21081245.482    -7920206.080 9   9361960.347 9
  20950857.387    20950859.768   -13068507.556 8   5356994.295 7
  21024950.636    21024952.364   -22911465.630 9  12874635.538 8
 89 11 17 12  8 59.0800000  0  4G13G 6G11G 9
  22266960.754    22266963.384   -26632894.254 9   5522472.918 8
  21087933.608    21087935.922    -7885043.284 9   9389359.928 8
  20952473.566    20952475.319   -13060015.809 9   5363611.272 7
  21016141.638    21016143.835   -22957754.645 9  12838566.194 8
 89 11 17 12  9 29.0800000  0  4G13G 6G11G 9
  22251158.386    22251159.953   -26715941.035 9   5457761.162 8
  21094725.311    21094727.689    -7849354.382 9   9417169.463 9
  20954186.063    20954187.192   -13051019.098 8   5370621.699 7
  21007418.949    21007419.660   -23003598.273 9  12802843.911 8
 89 11 17 12  9 59.0800000  0  4G13G 6G11G 9
  22235431.665    22235435.423   -26798580.330 9   5393366.917 8
  21101616.435    21101619.030    -7813139.112 9   9445389.152 8
  20955993.844    20955995.449   -13041518.704 8   5378024.616 7
  20998781.004    20998781.431   -23048993.827 9  12767470.779 8
 89 11 17 12 10 29.0800000  0  4G13G 6G11G 9
  22219783.597    22219786.537   -26880811.017 9   5329291.078 8
  21108608.837    21108610.467    -7776397.320 9   9474019.124 8
  20957898.074    20957900.622   -13031516.007 8   5385818.921 8
  20990227.653    20990228.908   -23093938.956 9  12732448.636 8
 89 11 17 12 10 59.0800000  0  4G13G 6G11G 9
  22204214.013    22204215.958   -26962631.405 9   5265534.948 8
  21115700.427    21115702.635    -7739128.760 9   9503059.585 8
  20959896.652    20959897.540   -13021012.588 9   5394003.363 7
  20981760.616    20981763.030   -23138431.064 9  12697779.525 8
 89 11 17 12 11 29.0800000  0  4G13G 6G11G 9
  22188722.857    22188724.990   -27044039.329 9   5202100.223 7
  21122893.186    21122893.789    -7701333.235 9   9532510.635 8
  20961990.329    20961992.007   -13010009.826 9   5402576.950 8
  20973380.320    20973382.135   -23182468.010 8  12663464.999 7
 89 11 17 12 11 59.0800000  0  4G13G 6G11G 9
  22173309.342    22173311.924   -27125033.479 9   5138987.919 7
  21130185.857    21130187.487    -7663010.743 8   9562372.308 8
  20964178.373    20964179.874   -12998508.766 8   5411538.807 8
  20965088.054    20965089.248   -23226047.172 9  12629507.216 8
 89 11 17 12 12 29.0800000  0  4G13G 6G11G 9
  22157975.924    22157978.646   -27205612.636 9   5076198.982 7
  21137578.475    21137580.526    -7624160.961 9   9592644.865 9
  20966462.136    20966463.216   -12986511.369 7   5420887.461 7
  20956883.189    20956884.626   -23269166.131 9  12595907.974 7
 89 11 17 12 12 59.0800000  0  4G13G 6G11G 9
  22142721.186    22142723.728   -27285775.101 9   5013734.752 8
  21145071.349    21145073.042    -7584783.905 9   9623328.295 8
  20968838.704    20968840.985   -12974019.110 9   5430621.700 7
  20948765.665    20948767.121   -23311822.255 9  12562669.409 8
 89 11 17 12 13 29.0800000  0  4G13G 6G11G 9
  22127546.661    22127548.616   -27365519.922 9   4951595.957 8
  21152666.162    21152667.269    -7544879.541 8   9654422.599 9
  20971309.919    20971313.413   -12961033.141 7   5440740.649 6
  20940736.177    20940738.373   -23354013.171 8  12529793.417 9
 89 11 17 12 13 59.0800000  0  4G13G 6G11G 9
  22112451.672    22112452.905   -27444845.746 9   4889783.660 8
  21160359.791    21160360.028    -7504447.798 9   9685927.843 9
  20973874.186    20973877.855   -12947555.453 8   5451242.748 7
  20932797.232    20932798.435   -23395736.736 9  12497281.548 8
 89 11 17 12 14 29.0800000  0  4G13G 6G11G 9
  22097436.582    22097438.525   -27523750.385 9   4828299.530 8
  21168154.074    21168155.390    -7463488.636 9   9717844.064 8
  20976532.162    20976534.378   -12933587.315 9   5462127.003 7
  20924947.122    20924947.173   -23436990.419 9  12465135.895 8
 89 11 17 12 14 59.0800000  0  4G13G 6G11G 9
  22082501.439    22082503.716   -27602233.121 9   4767144.184 7
  21176048.143    21176049.050    -7422001.886 9   9750171.406 9
  20979282.724    20979285.614   -12919130.534 9   5473391.996 8
  20917185.957    20917186.993   -23477771.934 9  12433358.059 7
 89 11 17 12 15 29.0800000  0  4G13G 6G11G 9
  22067647.585    22067649.866   -27680292.434 9   4706318.780 9
  21184042.040    21184044.248    -7379987.633 9   9782909.802 8
  20982126.972    20982128.923   -12904186.531 8   5485036.642 8
  20909515.251    20909515.811   -23518078.709 9  12401950.207 8
 89 11 17 12 15 59.0800000  0  4G13G 6G11G 9
  22052873.822    22052876.393   -27757927.088 9   4645824.264 9
  21192138.456    21192139.502    -7337445.940 8   9816059.162 8
  20985063.376    20985066.506   -12888756.635 9   5497059.886 8
  20901936.902    20901937.945   -23557908.443 9  12370914.065 8
 89 11 17 12 16 29.0800000  0  4G13G 6G11G 9
  22038181.086    22038184.989   -27835136.104 9   4585661.415 8
  21200334.781    21200336.402    -7294376.823 9   9849619.521 7
  20988091.718    20988094.893   -12872842.807 8   5509460.259 7
  20894447.810    20894449.137   -23597258.894 9  12340251.377 7
 89 11 17 12 16 59.0800000  0  4G13G 6G11G 9
  22023570.467    22023572.413   -27911917.920 9   4525831.450 8
  21208630.549    21208631.968    -7250780.454 9   9883590.703 8
  20991212.192    20991214.923   -12856446.478 8   5522236.605 7
  20887050.700    20887052.848   -23636127.846 9  12309963.887 6
 89 11 17 12 17 29.0800000  0  4G13G 6G11G 9
  22009040.564    22009043.460   -27988271.216 9   4466335.400 7
  21217027.023    21217028.791    -7206656.801 9   9917972.766 8
  20994423.778    20994426.497   -12839569.323 7   5535387.638 7
  20879746.055    20879748.543   -23674512.624 8  12280053.666 7
 89 11 17 12 17 59.0800000  0  4G13G 6G11G 9
  21994593.572    21994595.417   -28064194.981 9   4407174.048 7
  21225524.010    21225525.006    -7162006.111 9   9952765.490 9
  20997726.695    20997728.579   -12822213.307 8   5548911.787 8
  20872536.167    20872536.619   -23712411.107 8  12250522.380 6
 89 11 17 12 18 29.0800000  0  4G13G 6G11G 9
  21980227.763    21980228.646   -28139687.589 9   4348348.668 8
  21234121.076    21234121.923    -7116828.450 9   9987968.848 8
  21001119.034    21001122.241   -12804379.874 8   5562807.963 7
  20865416.111    20865416.717   -23749821.127 8  12221371.715 7
 89 11 17 12 18 59.0800000  0  4G13G 6G11G 9
  21965943.596    21965947.674   -28214747.866 9   4289860.152 8
  21242818.054    21242819.760    -7071124.086 9  10023582.615 8
  21004604.641    21004607.011   -12786070.706 8   5577074.804 8
  20858389.895    20858392.771   -23786740.038 8  12192603.746 6
 89 11 17 12 19 29.0800000  0  4G13G 6G11G 9
  21951742.830    21951746.001   -28289374.915 9   4231709.236 8
  21251615.764    21251616.908    -7024893.077 9  10059606.769 8
  21008178.554    21008181.496   -12767287.162 8   5591711.323 7
  20851459.200    20851461.087   -23823165.571 8  12164220.237 7
 89 11 17 12 19 59.0800000  0  4G13G 6G11G 9
  21937624.297    21937626.804   -28363566.982 9   4173897.257 9
  21260513.045    21260514.249    -6978135.631 9  10096041.123 8
  21011842.119    21011845.678   -12748031.150 8   5606715.978 7
  20844621.150    20844624.313   -23859095.781 9  12136222.681 7
 89 11 17 12 20 29.0800000  0  4G13G 6G11G 9
  21923588.544    21923590.805   -28437323.147 9   4116424.935 9
  21269511.115    21269512.310    -6930851.923 9  10132885.579 9
  21015597.322    21015599.726   -12728304.412 8   5622087.447 8
  20837879.745    20837879.044   -23894528.427 8  12108612.820 7
 89 11 17 12 20 59.0800000  0  4G13G 6G11G 9
  21909637.143    21909639.392   -28510642.802 9   4059292.759 8
  21278609.188    21278610.930    -6883042.265 9  10170139.863 9
  21019439.960    21019441.604   -12708108.627 8   5637824.412 9
  20831231.974    20831234.608   -23929460.900 8  12081392.696 8
 89 11 17 12 21 29.0800000  0  4G13G 6G11G 9
  21895768.270    21895769.661   -28583524.282 9   4002502.028 7
  21287806.372    21287808.350    -6834706.939 9  10207803.743 8
  21023371.136    21023375.549   -12687445.677 8   5653925.394 7
  20824680.057    20824681.918   -23963891.187 8  12054563.887 7
 89 11 17 12 21 59.0800000  0  4G13G 6G11G 9
  21881982.594    21881984.518   -28655966.891 9   3946053.270 7
  21297104.394    21297105.589    -6785846.324 9  10245876.929 8
  21027391.801    21027395.180   -12666317.286 8   5670389.062 8
  20818224.579    20818225.147   -23997816.857 9  12028128.333 8
 89 11 17 12 22 29.0800000  0  4G13G 6G11G 9
  21868280.351    21868282.790   -28727969.113 9   3889947.661 8
  21306501.925    21306502.762    -6736460.598 9  10284359.299 8
  21031501.702    21031503.777   -12644725.184 8   5687214.070 7
  20811865.480    20811866.634   -24031235.854 9  12002087.597 8
 89 11 17 12 22 59.0800000  0  4G13G 6G11G 9
  21854662.884    21854665.749   -28799530.270 9   3834185.752 8
  21316000.109    21316001.554    -6686550.137 9  10323250.559 7
  21035697.635    21035702.015   -12622671.348 8   5704398.845 7
  20805602.934    20805603.266   -24064146.145 7  11976443.213 7
 89 11 17 12 23 29.0800000  0  4G13G 6G11G 9
  21841129.979    21841131.053   -28870648.709 9   3778768.816 8
  21325597.851    21325599.003    -6636115.226 9  10362550.482 9
  21039982.304    21039983.570   -12600157.481 8   5721942.097 7
  20799438.379    20799439.548   -24096545.386 8  11951197.058 7
 89 11 17 12 23 59.0800000  0  4G13G 6G11G 9
  21827680.821    21827682.941   -28941323.509 9   3723697.578 7
  21335294.558    21335295.748    -6585156.324 9  10402258.718 8
  21044354.033    21044357.479   -12577185.365 8   5739842.457 8
  20793368.946    20793370.521   -24128431.267 8  11926350.944 7
 89 11 17 12 24 29.0800000  0  4G13G 6G11G 9
  21814316.497    21814318.166   -29011554.193 9   3668972.392 7
  21345091.143    21345092.120    -6533673.898 9  10442374.886 9
  21048811.757    21048814.724   -12553756.954 8   5758098.309 8
  20787400.688    20787401.276   -24159801.670 8  11901906.515 7
 89 11 17 12 24 59.0800000  0  4G13G 6G11G 9
  21801035.700    21801039.511   -29081339.261 9   3614594.439 7
  21354988.663    21354989.726    -6481668.260 9  10482898.748 9
  21053357.857    21053359.780   -12529873.854 8   5776708.457 7
  20781529.034    20781530.867   -24190654.632 8  11877865.262 8
 89 11 17 12 25 29.0800000  0  4G13G 6G11G 9
  21787842.291    21787843.395   -29150677.937 9   3560564.332 8
  21364983.803    21364985.313    -6429139.788 9  10523830.017 8
  21057987.748    21057990.737   -12505537.963 8   5795671.454 8
  20775756.623    20775757.978   -24220987.980 8  11854228.962 8
 89 11 17 12 25 59.0800000  0  4G13G 6G11G 9
  21774731.656    21774733.739   -29219568.636 9   3506883.295 7
  21375078.534    21375080.343    -6376089.115 9  10565168.210 9
  21062703.337    21062707.893   -12480751.265 7   5814985.774 8
  20770083.733    20770084.875   -24250799.561 9  11830999.166 8
 89 11 17 12 26 29.0800000  0  4G13G 6G11G 9
  21761707.926    21761710.870   -29288010.803 9   3453551.769 8
  21385273.860    21385274.995    -6322516.564 9  10606913.048 9
  21067507.749    21067511.001   -12455515.712 8   5834649.810 8
  20764510.823    20764510.066   -24280087.323 9  11808177.570 8
 89 11 17 12 26 59.0800000  0  4G13G 6G11G 9
  21748769.644    21748771.294   -29356003.672 9   3400570.342 8
  21395567.631    21395569.113    -6268422.717 9  10649064.100 8
  21072394.834    21072396.809   -12429833.097 8   5854662.253 8
  20759037.600    20759038.649   -24308849.082 9  11785765.821 8
 89 11 17 12 27 29.0800000  0  4G13G 6G11G 9
  21735916.454    21735918.715   -29423546.363 9   3347939.709 8
  21405959.853    21405960.903    -6213808.230 9  10691620.841 7
  21077366.011    21077368.366   -12403705.311 8   5875021.555 8
  20753664.433    20753665.501   -24337083.109 9  11763765.284 7
 89 11 17 12 27 59.0800000  0  4G13G 6G11G 9
  21723149.173    21723151.460   -29490637.791 9   3295660.691 7
  21416452.094    21416453.057    -6158673.462 9  10734583.007 8
  21082422.577    21082425.957   -12377133.891 8   5895726.517 8
  20748392.712    20748393.875   -24364786.977 8  11742177.873 8
 89 11 17 12 28 29.0800000  0  4G13G 6G11G 9
  21710468.122    21710469.083   -29557277.268 9   3243733.864 7
  21427043.322    21427043.627    -6103019.155 9  10777949.975 9
  21087563.039    21087565.978   -12350121.314 8   5916775.244 8
  20743221.817    20743223.592   -24391958.700 9  11721005.127 8
 89 11 17 12 28 59.0800000  0  4G13G 6G11G 9
  21697873.140    21697876.223   -29623463.760 9   3192159.997 7
  21437732.114    21437732.721    -6046845.959 9  10821721.291 8
  21092786.508    21092789.435   -12322669.108 8   5938166.595 9
  20738152.450    20738155.041   -24418596.610 9  11700248.325 7
 89 11 17 12 29 29.0800000  0  4G13G 6G11G 9
  21685364.859    21685366.862   -29689196.605 9   3140939.630 8
  21448520.556    21448520.961    -5990154.378 9  10865896.538 8
  21098095.517    21098096.768   -12294779.517 8   5959898.702 8
  20733186.125    20733186.438   -24444698.389 8  11679909.287 7
 89 11 17 12 29 59.0800000  0  4G13G 6G11G 9
  21672943.517    21672944.677   -29754474.664 9   3090073.629 8
  21459406.730    21459408.264    -5932945.044 8  10910475.236 9
  21103484.416    21103487.789   -12266454.029 8   5981970.514 8
  20728321.755    20728321.696   -24470262.020 8  11659989.579 8
 89 11 17 12 30 29.0800000  0  4G13G 6G11G 9
  21660608.011    21660610.249   -29819297.152 9   3039562.598 8
  21470391.262    21470392.800    -5875218.599 9  10955456.879 9
  21108957.295    21108959.717   -12237695.159 9   6004380.022 7
  20723559.687    20723562.596   -24495285.695 8  11640490.587 7
 89 11 17 12 30 59.0800000  0  4G13G 6G11G 9
  21648358.560    21648361.243   -29883663.276 9   2989407.210 8
  21481474.474    21481475.750    -5816975.613 9  11000841.031 9
  21114511.630    21114514.417   -12208504.732 9   6027125.787 8
  20718901.101    20718902.985   -24519767.335 8  11621414.017 8
 89 11 17 12 31 29.0800000  0  4G13G 6G11G 9
  21636198.078    21636199.004   -29947572.189 9   2939608.082 8
  21492656.560    21492656.679    -5758217.015 9  11046626.972 7
  21120148.593    21120152.316   -12178884.458 9   6050206.522 7
  20714345.632    20714347.534   -24543705.111 8  11602761.248 8
 89 11 17 12 31 59.0800000  0  4G13G 6G11G 9
  21624123.089    21624124.749   -30011023.339 9   2890165.648 8
  21503935.634    21503937.355    -5698943.457 9  11092814.149 8
  21125866.587    21125869.133   -12148836.391 9   6073620.586 7
  20709894.255    20709895.824   -24567096.929 8  11584533.870 7
 89 11 17 12 32 29.0800000  0  4G13G 6G11G 9
  21612136.168    21612138.279   -30074016.021 9   2841080.457 8
  21515313.557    21515314.877    -5639155.642 9  11139402.067 8
  21131665.140    21131667.765   -12118362.705 8   6097366.335 7
  20705545.875    20705547.186   -24589940.973 9  11566733.303 8
 89 11 17 12 32 59.0800000  0  4G13G 6G11G 9
  21600236.465    21600239.304   -30136550.149 9   2792352.582 8
  21526787.552    21526789.102    -5578854.331 9  11186390.093 7
  21137544.885    21137548.396   -12087465.414 9   6121442.140 7
  20701304.458    20701306.228   -24612235.542 9  11549360.931 7
 89 11 17 12 33 29.0800000  0  4G13G 6G11G 9
  21588424.699    21588424.567   -30198623.936 9   2743983.427 7
  21538360.163    21538360.544    -5518040.394 9  11233777.581 9
  21143504.912    21143507.079   -12056146.625 9   6145846.364 8
  20697167.036    20697168.307   -24633978.588 8  11532418.315 7
 89 11 17 12 33 59.0800000  0  4G13G 6G11G 9
  21576699.194    21576701.348   -30260237.138 9   2695973.161 8
  21550029.765    21550031.245    -5456714.667 9  11281563.860 8
  21149545.026    21149546.747   -12024408.382 9   6170577.458 7
  20693135.247    20693136.475   -24655168.430 8  11515906.753 8
 89 11 17 12 34 29.0800000  0  4G13G 6G11G 9
  21565062.807    21565065.074   -30321388.868 9   2648322.476 8
  21561797.639    21561799.019    -5394877.857 9  11329748.390 8
  21155663.380    21155664.250   -11992252.586 8   6195633.948 7
  20689207.044    20689209.226   -24675802.792 8  11499828.057 8
 89 11 17 12 34 59.0800000  0  4G13G 6G11G 9
  21553513.839    21553516.283   -30382078.602 9   2601031.791 8
  21573661.735    21573662.869    -5332530.884 9  11378330.439 9
  21161861.592    21161863.890   -11959681.296 8   6221014.168 9
  20685387.446    20685389.393   -24695880.324 8  11484183.249 7
 89 11 17 12 35 29.0800000  0  4G13G 6G11G 9
  21542052.653    21542054.832   -30442305.833 9   2554101.495 8
  21585622.725    21585623.757    -5269674.716 9  11427309.280 9
  21168138.920    21168140.089   -11926696.619 9   6246716.504 8
  20681673.323    20681674.040   -24715399.092 7  11468973.839 8
 89 11 17 12 35 59.0800000  0  4G13G 6G11G 9
  21530679.857    21530682.733   -30502069.902 9   2507532.118 8
  21597680.310    21597682.341    -5206310.158 9  11476684.259 9
  21174493.090    21174495.797   -11893300.516 8   6272739.414 7
  20678065.375    20678067.042   -24734357.319 8  11454201.244 7
 89 11 17 12 36 29.0800000  0  4G13G 6G11G 9
  21519394.999    21519397.505   -30561370.539 9   2461323.834 8
  21609835.531    21609836.873    -5142438.162 9  11526454.624 7
  21180926.417    21180929.525   -11859495.054 9   6299081.324 8
  20674564.302    20674567.059   -24752753.325 8  11439866.699 7
 89 11 17 12 36 59.0800000  0  4G13G 6G11G 9
  21508198.613    21508200.128   -30620207.218 9   2415477.097 8
  21622086.204    21622087.964    -5078059.533 9  11576619.787 9
  21187436.472    21187439.516   -11825282.304 9   6325740.578 8
  20671170.860    20671173.463   -24770585.318 8  11425971.665 7
 89 11 17 12 37 29.0800000  0  4G13G 6G11G 9
  21497091.831    21497093.312   -30678578.432 9   2369993.045 7
  21634432.998    21634434.433    -5013175.407 9  11627178.846 9
  21194023.330    21194026.674   -11790664.581 8   6352715.418 7
  20667884.431    20667888.032   -24787851.489 9  11412517.518 7
 89 11 17 12 37 59.0800000  0  4G13G 6G11G 9
  21486072.978    21486074.237   -30736484.194 9   2324871.684 8
  21646875.441    21646877.759    -4947786.542 9  11678131.216 8
  21200688.116    21200691.028   -11755643.785 8   6380004.330 8
  20664706.989    20664708.953   -24804550.220 8  11399505.533 7
 89 11 17 12 38 29.0800000  0  4G13G 6G11G 9
  21475141.534    21475144.551   -30793924.068 9   2280113.367 7
  21659414.501    21659415.487    -4881894.157 9  11729475.929 9
  21207428.834    21207430.785   -11720222.165 8   6407605.556 7
  20661637.662    20661640.359   -24820679.985 8  11386936.890 8
 89 11 17 12 38 59.0800000  0  4G13G 6G11G 9
  21464298.932    21464303.016   -30850897.543 9   2235718.476 7
  21672049.826    21672050.533    -4815499.184 9  11781212.272 9
  21214244.867    21214248.888   -11684401.557 9   6435517.709 7
  20658677.634    20658678.499   -24836238.834 8  11374813.113 6
 89 11 17 12 39 29.0800000  0  4G13G 6G11G 9
  21453546.671    21453550.454   -30907403.885 9   2191687.570 7
  21684778.734    21684780.745    -4748602.657 9  11833339.435 8
  21221137.476    21221140.693   -11648184.574 8   6463738.699 7
  20655825.013    20655827.289   -24851225.388 8  11363135.293 8
 89 11 17 12 39 59.0800000  0  4G13G 6G11G 9
  21442883.436    21442886.308   -30963442.854 9   2148020.865 8
  21697605.121    21697606.087    -4681205.525 9  11885856.672 8
  21228104.552    21228107.295   -11611572.808 8   6492267.357 7
  20653083.638    20653083.725   -24865637.890 8  11351904.797 8
 89 11 17 12 40 29.0800000  0  4G13G 6G11G 9
  21432308.547    21432310.508   -31019013.957 9   2104718.730 8
  21710525.000    21710526.121    -4613309.169 9  11938762.912 9
  21235146.388    21235149.861   -11574568.696 9   6521101.715 8
  20650449.674    20650450.983   -24879474.589 8  11341122.967 6
 89 11 17 12 40 59.0800000  0  4G13G 6G11G 9
  21421823.026    21421824.862   -31074116.618 9   2061781.614 8
  21723539.925    21723542.061    -4544914.566 9  11992057.398 8
  21242261.680    21242264.543   -11537174.158 8   6550240.311 7
  20647926.755    20647927.986   -24892734.333 8  11330790.722 8
 89 11 17 12 41 29.0800000  0  4G13G 6G11G 9
  21411426.072    21411430.207   -31128750.757 9   2019209.586 8
  21736648.946    21736650.836    -4476022.734 9  12045739.330 8
  21249451.821    21249453.975   -11499391.406 8   6579681.406 8
  20645513.160    20645514.878   -24905415.446 7  11320909.315 7
 89 11 17 12 41 59.0800000  0  4G13G 6G11G 9
  21401119.221    21401121.420   -31182915.856 9   1977003.027 8
  21749853.666    21749855.301    -4406635.043 9  12099807.662 8
  21256714.379    21256716.262   -11461222.745 9   6609423.198 8
  20643209.495    20643212.095   -24917516.377 8  11311480.042 7
 89 11 17 12 42 29.0800000  0  4G13G 6G11G 9
  21390901.390    21390902.656   -31236611.724 9   1935162.115 8
  21763152.080    21763153.734    -4336752.471 9  12154261.614 8
  21264050.998    21264052.000   -11422670.105 9   6639464.212 7
  20641019.067    20641019.898   -24929035.445 8  11302504.162 6
 89 11 17 12 42 59.0800000  0  4G13G 6G11G 9
  21380772.183    21380775.062   -31289837.891 9   1893687.196 7
  21776543.994    21776545.058    -4266376.262 9  12209100.188 9
  21271460.826    21271462.215   -11383735.990 8   6669802.465 8
  20638937.574    20638938.746   -24939971.322 8  11293982.712 7
 89 11 17 12 43 29.0800000  0  4G13G 6G11G 9
  21370734.130    21370735.988   -31342593.908 9   1852578.627 8
  21790029.858    21790032.010    -4195507.520 9  12264322.578 8
  21278941.547    21278942.957   -11344422.419 8   6700436.394 7
  20636967.963    20636969.584   -24950322.480 7  11285916.905 7
 89 11 17 12 43 59.0800000  0  4G13G 6G11G 9
  21360783.280    21360786.538   -31394879.780 9   1811836.400 8
  21803609.567    21803611.104    -4124147.533 9  12319927.748 9
  21286495.011    21286497.662   -11304731.516 9   6731364.333 7
  20635109.070    20635110.797   -24960087.493 7  11278307.832 7
 89 11 17 12 44 29.0800000  0  4G13G 6G11G 9
  21350923.318    21350925.259   -31446694.997 9   1771460.929 8
  21817281.656    21817282.877    -4052297.557 9  12375914.733 8
  21294119.214    21294119.771   -11264665.503 9   6762584.574 7
  20633362.748    20633363.290   -24969264.743 7  11271156.741 6
 89 11 17 12 44 59.0800000  0  4G13G 6G11G 9
  21341153.508    21341154.407   -31498039.502 9   1731452.246 7
  21831046.636    21831048.473    -3979958.817 9  12432282.568 8
  21301814.330    21301815.303   -11224226.630 8   6794095.390 7
  20631728.710    20631729.970   -24977853.201 7  11264464.433 7
 89 11 17 12 45 29.0800000  0  4G13G 6G11G 9
  21331471.556    21331474.067   -31548912.833 9   1691810.719 7
  21844905.601    21844907.366    -3907132.696 9  12489030.180 9
  21309579.987    21309581.600   -11183417.057 9   6825895.060 7
  20630207.362    20630207.638   -24985851.430 8  11258232.049 7
 89 11 17 12 45 59.0800000  0  4G13G 6G11G 9
  21321880.724    21321883.518   -31599314.710 9   1652536.546 7
  21858856.291    21858858.164    -3833820.523 9  12546156.532 8
  21317415.920    21317418.564   -11142238.998 7   6857981.820 7
  20628797.833    20628800.535   -24993257.802 8  11252460.889 7
 89 11 17 12 46 29.0800000  0  4G13G 6G11G 9
  21312379.819    21312381.501   -31649244.777 9   1613630.023 7
  21872898.840    21872900.959    -3760023.475 9  12603660.718 9
  21325320.491    21325324.654   -11100694.281 9   6890354.333 8
  20627500.793    20627501.867   -25000071.136 7  11247151.802 7
 89 11 17 12 46 59.0800000  0  4G13G 6G11G 9
  21302968.495    21302970.366   -31698703.026 9   1575091.159 7
  21887034.228    21887036.665    -3685742.875 9  12661541.678 9
  21333296.554    21333298.047   -11058785.458 9   6923010.560 6
  20626318.522    20626317.828   -25006290.052 8  11242305.892 7
 89 11 17 12 47 29.0800000  0  4G13G 6G11G 9
  21293645.551    21293648.192   -31747689.180 9   1536920.137 8
  21901261.427    21901262.177    -3610980.188 9  12719798.302 8
  21341341.249    21341341.642   -11016514.944 9   6955948.606 7
  20625248.824    20625246.579   -25011913.415 9  11237924.085 6
 89 11 17 12 47 59.0800000  0  4G13G 6G11G 9
  21284414.053    21284417.252   -31796203.052 9   1499117.144 8
  21915580.489    21915581.864    -3535736.777 9  12778429.509 9
  21349451.921    21349454.522   -10973884.685 8   6989166.990 8
  20624291.554    20624292.104   -25016939.926 8  11234007.352 7
 89 11 17 12 48 29.0800000  0  4G13G 6G11G 9
  21275272.937    21275274.344   -31844244.669 9   1461682.149 8
  21929990.644    21929991.080    -3460014.040 9  12837434.214 8
  21357632.685    21357635.584   -10930896.840 9   7022663.981 8
  20623449.146    20623449.230   -25021368.265 7  11230556.714 7
 89 11 17 12 48 59.0800000  0  4G13G 6G11G 9
  21266220.326    21266222.118   -31891813.937 9   1424615.210 6
  21944490.016    21944490.957    -3383813.451 9  12896811.270 8
  21365881.481    21365882.748   -10887553.771 9   7056437.754 8
  20622720.141    20622720.291   -25025197.280 7  11227573.073 7
 89 11 17 12 49 29.0800000  0  4G13G 6G11G 9
  21257257.013    21257260.285   -31938910.322 9   1387916.733 8
  21959081.399    21959082.604    -3307136.324 9  12956559.653 9
  21374196.609    21374198.719   -10843857.535 9   7090486.762 7
  20622105.550    20622106.799   -25028425.632 8  11225057.479 6
 89 11 17 12 49 59.0800000  0  4G13G 6G11G 9
  21248385.916    21248387.497   -31985534.496 9   1351586.229 8
  21973762.720    21973764.679    -3229984.232 9  13016678.133 8
  21382577.981    21382580.424   -10799810.714 9   7124808.930 9
  20621604.394    20621607.024   -25031052.395 7  11223010.681 8
 89 11 17 12 50 29.0800000  0  4G13G 6G11G 9
  21239603.384    21239605.730   -32031685.683 9   1315624.284 7
  21988534.554    21988535.443    -3152358.660 9  13077165.560 8
  21391026.426    21391027.963   -10755415.461 9   7159402.586 8
  20621221.772    20621221.455   -25033076.339 7  11221433.590 6
 89 11 17 12 50 59.0800000  0  4G13G 6G11G 9
  21230911.578    21230912.244   -32077364.302 9   1280030.568 7
  22003396.241    22003397.363    -3074261.115 9  13138020.761 8
  21399539.951    21399542.005   -10710673.908 9   7194266.113 8
  20620950.492    20620950.290   -25034496.403 8  11220327.057 6
 89 11 17 12 51 29.0800000  0  4G13G 6G11G 9
  21222308.321    21222311.289   -32122570.517 9   1244804.975 8
  22018347.382    22018348.738    -2995692.838 9  13199242.761 9
  21408120.537    21408122.823   -10665588.013 9   7229397.959 7
  20620794.900    20620795.946   -25035311.162 8  11219692.197 7
 89 11 17 12 51 59.0800000  0  4G13G 6G11G 9
  21213796.466    21213798.131   -32167304.173 9   1209947.587 8
  22033387.351    22033389.078    -2916655.757 9  13260830.080 9
  21416763.974    21416766.548   -10620160.586 9   7264795.925 9
  20620757.496    20620756.676   -25035519.962 8  11219529.490 7
 89 11 17 12 52 29.0800000  0  4G13G 6G11G 9
  21205373.408    21205376.609   -32211564.701 9   1175458.871 8
  22048517.049    22048518.809    -2837151.070 9  13322781.754 9
  21425473.848    21425476.154   -10574393.497 8   7300458.546 9
  20620830.799    20620832.011   -25035121.636 7  11219839.893 7
 89 11 17 12 52 59.0800000  0  4G13G 6G11G 9
  21197040.221    21197043.175   -32255352.752 9   1141338.345 8
  22063735.101    22063736.073    -2757180.541 9  13385096.420 9
  21434246.718    21434249.014   -10528288.886 9   7336384.204 8
  20621024.165    20621023.897   -25034114.975 7  11220624.308 8
 89 11 17 12 53 29.0800000  0  4G13G 6G11G 9
  21188798.095    21188799.561   -32298668.330 9   1107585.975 7
  22079041.421    22079042.241    -2676745.613 9  13447772.956 9
  21443084.042    21443087.168   -10481849.315 9   7372570.884 7
  20621330.311    20621330.040   -25032499.034 8  11221883.485 6
 89 11 17 12 53 59.0800000  0  4G13G 6G11G 9
  21180645.370    21180647.155   -32341511.229 8   1074201.896 8
  22094435.839    22094436.304    -2595848.148 9  13510809.918 8
  21451983.634    21451987.795   -10435077.008 9   7409016.867 8
  20621754.893    20621754.903   -25030273.082 8  11223618.000 7
 89 11 17 12 54 29.0800000  0  4G13G 6G11G 9
  21172582.055    21172585.316   -32383881.488 9   1041186.123 8
  22109917.177    22109918.443    -2514489.634 9  13574206.116 8
  21460946.493    21460950.177   -10387974.217 9   7445720.306 8
  20622293.531    20622293.529   -25027435.990 8  11225828.731 6
 89 11 17 12 54 59.0800000  0  4G13G 6G11G 9
  21164609.512    21164611.197   -32425779.415 9   1008538.412 8
  22125487.112    22125488.689    -2432671.629 9  13637960.370 8
  21469974.451    21469976.399   -10340542.832 9   7482679.812 7
  20622948.938    20622951.031   -25023986.841 8  11228516.411 7
 89 11 17 12 55 29.0800000  0  4G13G 6G11G 9
  21156726.404    21156728.197   -32467204.939 8    976258.819 8
  22141143.282    22141144.165    -2350395.800 8  13702071.381 8
  21479061.553    21479064.682   -10292785.181 8   7519893.577 8
  20623723.266    20623722.754   -25019924.936 8  11231681.561 7
 89 11 17 12 55 59.0800000  0  4G13G 6G11G 9
  21148932.730    21148934.145   -32508158.524 9    944346.949 7
  22156886.860    22156888.770    -2267664.020 9  13766537.659 8
  21488211.424    21488213.986   -10244703.978 8   7557359.406 8
  20624612.588    20624613.113   -25015249.301 9  11235324.916 8
 89 11 17 12 56 29.0800000  0  4G13G 6G11G 9
  21141229.142    21141232.329   -32548640.223 8    912802.787 9
  22172717.167    22172718.937    -2184477.738 9  13831358.102 9
  21497421.889    21497425.732   -10196300.874 9   7595076.064 7
  20625619.034    20625620.308   -25009958.830 8  11239447.375 7
 89 11 17 12 56 59.0800000  0  4G13G 6G11G 9
  21133616.479    21133618.105   -32588650.144 9    881626.254 8
  22188632.780    22188634.774    -2100838.732 9  13896531.325 9
  21506693.732    21506696.163   -10147578.485 9   7633041.585 9
  20626743.960    20626744.416   -25004052.905 8  11244049.399 7
 89 11 17 12 57 29.0800000  0  4G13G 6G11G 9
  21126091.505    21126094.369   -32628188.480 9    850817.177 7
  22204634.992    22204635.180    -2016748.762 9  13962055.927 8
  21516025.389    21516028.013   -10098539.159 9   7671254.055 8
  20627985.279    20627985.360   -24997530.701 8  11249131.628 8
 89 11 17 12 57 59.0800000  0  4G13G 6G11G 9
  21118658.017    21118659.599   -32667255.917 9    820375.041 7
  22220721.561    22220723.321    -1932209.625 9  14027930.537 9
  21525417.907    21525419.900   -10049185.339 9   7709711.568 8
  20629343.196    20629343.864   -24990391.435 8  11254694.720 6
 89 11 17 12 58 29.0800000  0  4G13G 6G11G 9
  21111313.390    21111317.163   -32705852.301 9    790299.941 8
  22236893.740    22236896.114    -1847222.922 9  14094153.897 9
  21534869.414    21534870.357    -9999519.206 9   7748412.434 8
  20630819.195    20630818.821   -24982634.573 8  11260739.038 7
 89 11 17 12 58 59.0800000  0  4G13G 6G11G 9
  21104058.168    21104061.051   -32743977.617 9    760591.911 8
  22253150.814    22253154.090    -1761790.548 8  14160724.546 9
  21544378.960    21544381.550    -9949542.638 9   7787355.269 7
  20632414.401    20632414.388   -24974259.188 7  11267265.335 8
 89 11 17 12 59 29.0800000  0  4G13G 6G11G 9
  21096893.895    21096894.609   -32781632.485 9    731250.487 7
  22269493.359    22269495.838    -1675914.278 9  14227641.087 8
  21553947.069    21553950.326    -9899257.990 9   7826538.118 8
  20634123.414    20634125.704   -24965264.435 8  11274274.239 8
 89 11 17 12 59 59.0800000  0  4G13G 6G11G 9
  21089816.682    21089819.033   -32818816.915 9    702275.628 8
  22285919.492    22285920.023    -1589595.889 9  14294902.132 9
  21563574.822    21563578.229    -9848667.804 9   7865959.056 8
  20635954.344    20635955.404   -24955649.861 8  11281766.145 7
 89 11 17 13  0 29.0800000  0  4G13G 6G11G 9
  21082831.674    21082834.402   -32855530.853 9    673667.376 8
  22302428.328    22302430.216    -1502837.236 9  14362506.243 8
  21573259.130    21573260.945    -9797774.189 9   7905616.405 8
  20637901.559    20637901.317   -24945414.904 7  11289741.446 8
 89 11 17 13  0 59.0800000  0  4G13G 6G11G 9
  21075933.870    21075936.360   -32891775.455 9    645424.838 8
  22319021.802    22319023.066    -1415640.256 9  14430451.900 8
  21583001.489    21583003.149    -9746579.453 9   7945508.422 8
  20639967.185    20639968.308   -24934558.861 7  11298200.725 6
 89 11 17 13  1 29.0800000  0  4G13G 6G11G 9
  21069126.869    21069126.506   -32927550.921 9    617547.892 7
  22335697.700    22335699.938    -1328006.667 9  14498737.775 9
  21592800.719    21592802.667    -9695085.970 8   7985633.212 9
  20642152.202    20642152.595   -24923081.209 8  11307144.358 7
 89 11 17 13  1 59.0800000  0  4G13G 6G11G 9
  21062407.155    21062410.280   -32962857.249 9    590036.478 7
  22352456.223    22352459.035    -1239938.526 9  14567362.283 9
  21602655.280    21602658.291    -9643296.055 9   8025988.984 8
  20644454.050    20644455.362   -24910981.328 8  11316572.856 6
 89 11 17 13  2 29.0800000  0  4G13G 6G11G 9
  21055777.616    21055781.294   -32997695.105 9    562890.092 7
  22369298.149    22369299.932    -1151437.423 9  14636324.146 9
  21612566.574    21612568.993    -9591211.435 9   8066574.393 8
  20646874.522    20646876.151   -24898258.578 8  11326486.702 7
 89 11 17 13  2 59.0800000  0  4G13G 6G11G 9
  21049237.425    21049240.139   -33032065.092 8    536108.303 8
  22386220.639    22386223.306    -1062505.563 9  14705621.678 9
  21622534.566    21622536.773    -9538834.755 9   8107387.348 8
  20649415.565    20649415.174   -24884912.557 8  11336886.205 7
 89 11 17 13  3 29.0800000  0  4G13G 6G11G 9
  21042786.242    21042788.409   -33065967.078 9    509691.192 7
  22403227.165    22403226.862     -973144.695 9  14775253.494 9
  21632556.786    21632557.997    -9486168.292 9   8148426.144 8
  20652073.037    20652074.635   -24870942.807 8  11347771.775 7
 89 11 17 13  3 59.0800000  0  4G13G 6G11G 9
  21036422.509    21036424.579   -33099401.391 9    483638.502 8
  22420312.341    22420313.593     -883356.753 9  14845218.099 8
  21642632.316    21642634.444    -9433214.389 9   8189688.900 8
  20654851.052    20654852.479   -24856348.922 8  11359143.635 7
 89 11 17 13  4 29.0800000  0  4G13G 6G11G 9
  21030149.899    21030152.313   -33132368.749 9    457949.659 8
  22437479.047    22437481.629     -793143.678 9  14915513.980 9
  21652763.760    21652765.695    -9379975.350 8   8231173.888 8
  20657745.170    20657746.587   -24841130.337 8  11371002.281 7
 89 11 17 13  4 59.0800000  0  4G13G 6G11G 9
  21023966.064    21023967.317   -33164869.363 8    432624.536 8
  22454726.966    22454728.509     -702507.553 9  14986139.511 9
  21662948.558    21662950.953    -9326453.247 9   8272879.449 9
  20660761.130    20660763.578   -24825286.786 8  11383347.920 7
 89 11 17 13  5 29.0800000  0  4G13G 6G11G 9
  21017868.488    21017869.538   -33196904.318 9    407662.240 8
  22472054.358    22472056.761     -611450.262 9  15057093.215 9
  21673186.414    21673190.238    -9272650.392 9   8314803.728 8
  20663895.739    20663897.531   -24808817.802 8  11396180.917 7
 89 11 17 13  5 59.0800000  0  4G13G 6G11G 9
  21011862.227    21011864.452   -33228473.915 9    383062.573 7
  22489461.739    22489463.297     -519973.943 9  15128373.443 9
  21683477.891    21683481.062    -9218569.077 9   8356944.979 7
  20667146.564    20667148.866   -24791723.172 8  11409501.410 7
 89 11 17 13  6 29.0800000  0  4G13G 6G11G 9
  21005943.084    21005945.236   -33259578.564 8    358825.208 7
  22506947.646    22506949.492     -428080.500 9  15199978.698 9
  21693822.084    21693824.203    -9164211.445 9   8399301.573 9
  20670518.983    20670522.069   -24774002.334 7  11423309.875 7
 89 11 17 13  6 59.0800000  0  4G13G 6G11G 9
  21000110.600    21000114.123   -33290218.868 9    334949.655 7
  22524513.524    22524515.966     -335771.881 9  15271907.481 9
  21704217.324    21704220.771    -9109579.906 9   8441871.598 8
  20674011.983    20674011.909   -24755655.162 7  11437606.384 7
 89 11 17 13  7 29.0800000  0  4G13G 6G11G 9
  20994370.092    20994370.858   -33320395.272 9    311435.575 8
  22542158.842    22542160.181     -243050.292 9  15344158.052 8
  21714665.743    21714667.903    -9054676.896 8   8484653.171 8
  20677622.023    20677623.207   -24736681.481 9  11452391.088 7
 89 11 17 13  7 59.0800000  0  4G13G 6G11G 9
  20988715.354    20988718.367   -33350108.546 9    288282.392 7
  22559880.299    22559882.419     -149917.723 9  15416728.870 8
  21725164.390    21725167.535    -8999504.301 9   8527644.798 8
  20681353.563    20681353.447   -24717080.934 8  11467664.241 8
 89 11 17 13  8 29.0800000  0  4G13G 6G11G 9
  20983148.588    20983152.060   -33379359.011 8    265489.843 8
  22577681.069    22577683.655      -56376.322 9  15489618.251 7
  21735715.293    21735717.545    -8944064.545 9   8570844.578 8
  20685200.999    20685202.322   -24696853.501 8  11483425.903 7
 89 11 17 13  8 59.0800000  0  4G13G 6G11G 9
  20977670.711    20977673.168   -33408147.410 9    243057.334 7
  22595559.000    22595560.954       37571.971 9  15562824.692 8
  21746315.421    21746318.180    -8888359.555 9   8614251.118 8
  20689170.240    20689171.166   -24675998.803 8  11499676.324 6
 89 11 17 13  9 29.0800000  0  4G13G 6G11G 9
  20972280.865    20972281.957   -33436474.439 9    220984.349 7
  22613513.891    22613515.477      131924.862 9  15636346.399 9
  21756965.639    21756967.828    -8832391.922 9   8657862.300 8
  20693257.701    20693258.712   -24654516.687 8  11516415.656 8
 89 11 17 13  9 59.0800000  0  4G13G 6G11G 9
  20966977.189    20966979.331   -33464340.520 9    199270.535 8
  22631545.139    22631547.560      226680.492 9  15710181.931 8
  21767665.483    21767668.319    -8776164.027 9   8701676.205 8
  20697466.287    20697465.701   -24632407.220 7  11533643.820 8
 89 11 17 13 10 29.0800000  0  4G13G 6G11G 9
  20961762.058    20961765.059   -33491746.738 9    177915.034 7
  22649652.316    22649654.174      321836.446 9  15784329.419 8
  21778414.766    21778417.257    -8719678.165 9   8745691.122 8
  20701792.622    20701792.721   -24609670.115 8  11551361.055 6
 89 11 17 13 10 59.0800000  0  4G13G 6G11G 9
  20956635.642    20956636.995   -33518693.182 9    156917.842 7
  22667836.740    22667838.306      417390.618 9  15858787.188 8
  21789212.361    21789214.340    -8662936.191 9   8789905.642 8
  20706239.072    20706239.176   -24586305.557 7  11569567.227 7
 89 11 17 13 11 29.0800000  0  4G13G 6G11G 9
  20951593.366    20951595.410   -33545181.137 9    136277.893 7
  22686095.009    22686096.955      513340.985 9  15933553.693 9
  21800057.870    21800061.188    -8605940.668 9   8834317.727 9
  20710803.404    20710805.434   -24562313.200 8  11588262.570 7
 89 11 17 13 11 59.0800000  0  4G13G 6G11G 9
  20946640.469    20946642.811   -33571210.315 8    115995.420 7
  22704428.410    22704430.870      609685.398 9  16008627.266 8
  21810951.517    21810953.566    -8548693.466 9   8878925.967 8
  20715488.792    20715490.825   -24537693.185 8  11607447.009 7
 89 11 17 13 12 29.0800000  0  4G13G 6G11G 9
  20941775.283    20941776.950   -33596782.006 9     96069.449 8
  22722837.498    22722838.821      706421.686 9  16084006.178 9
  21821892.621    21821896.688    -8491196.996 9   8923728.405 8
  20720291.858    20720294.095   -24512445.441 8  11627120.587 7
 89 11 17 13 12 59.0800000  0  4G13G 6G11G 9
  20936995.066    20936996.345   -33621897.046 9     76499.279 8
  22741319.563    22741321.630      803547.587 9  16159688.677 8
  21832880.936    21832882.878    -8433453.280 9   8968723.506 8
  20725216.230    20725217.161   -24486569.978 8  11647283.326 7
 89 11 17 13 13 29.0800000  0  4G13G 6G11G 9
  20932303.021    20932305.308   -33646556.290 9     57284.321 8
  22759875.762    22759877.335      901060.911 9  16235673.069 8
  21843916.311    21843919.544    -8375464.691 9   9013909.418 8
  20730260.790    20730260.510   -24460067.004 7  11667934.996 7
 89 11 17 13 13 59.0800000  0  4G13G 6G11G 9
  20927696.889    20927700.273   -33670760.264 9     38424.086 8
  22778505.599    22778506.906      998959.334 9  16311957.514 9
  21854997.210    21854999.818    -8317233.646 9   9059284.247 8
  20735423.586    20735424.194   -24432936.630 7  11689075.547 6
 89 11 17 13 14 29.0800000  0  4G13G 6G11G 9
  20923177.816    20923180.296   -33694509.765 9     19917.993 8
  22797206.998    22797209.075     1097240.639 9  16388540.318 8
  21866123.600    21866125.738    -8258762.359 9   9104846.320 8
  20740703.240    20740706.032   -24405178.744 7  11710705.087 7
 89 11 17 13 14 59.0800000  0  4G13G 6G11G 9
  20918744.993    20918747.305   -33717805.528 9      1765.451 7
  22815981.927    22815984.179     1195902.645 9  16465419.775 9
  21877295.072    21877298.163    -8200053.309 9   9150593.607 8
  20746104.981    20746107.231   -24376793.936 8  11732823.119 7
 89 11 17 13 15 29.0800000  0  4G13G 6G11G 9
  20914398.090    20914398.588   -33740648.558 9    -16034.299 7
  22834829.315    22834830.925     1294943.061 9  16542594.122 8
  21888512.460    21888514.038    -8141108.322 9   9196524.784 9
  20751627.313    20751628.158   -24347782.067 8  11755429.787 7
 89 11 17 13 15 59.0800000  0  4G13G 6G11G 9
  20910136.521    20910139.316   -33763039.706 9    -33481.926 7
  22853747.788    22853748.775     1394359.695 9  16620061.610 8
  21899773.937    21899776.557    -8081929.504 9   9242638.125 8
  20757267.250    20757268.802   -24318143.353 8  11778524.886 8
 89 11 17 13 16 29.0800000  0  3G13G 6G 3
  20905961.484    20905965.201   -33784979.789 8    -50578.096 7
  22872737.037    22872738.657     1494150.127 9  16697820.370 8
                  24290486.082   -60934988.080 9
 89 11 17 13 16 59.0800000  0  4G13G 6G 3G 9
  20901872.074    20901874.194   -33806469.702 9    -67323.469 7
  22891797.327    22891799.193     1594312.236 9  16775868.759 9
  24273903.711    24273907.078   -61022229.449 9  77454682.176 8
                  20768873.808   -60989399.306 9
 89 11 17 13 17 29.0800000  0  4G13G 6G 3G 9
  20897869.212    20897869.303   -33827510.163 8    -83718.617 7
  22910927.870    22910928.898     1694843.679 9  16854204.937 9
  24257348.419    24257350.817   -61109231.192 9  77386889.116 8
                  20774903.075   -60957881.980 7
 89 11 17 13 17 59.0800000  0  4G13G 6G 3G 9
  20893950.023    20893951.484   -33848102.024 9    -99764.228 8
  22930128.414    22930131.035     1795741.959 9  16932826.944 9
  24240838.281    24240840.382   -61195992.959 9  77319282.562 8
  20781019.596    20781019.940   -60925738.758 9  77797399.379 7
 89 11 17 13 18 29.0800000  0  4G13G 6G 3G 9
  20890117.345    20890119.400   -33868246.514 9   -115461.213 8
  22949398.021    22949400.280     1897004.861 9  17011733.071 9
  24224374.780    24224375.067   -61282513.826 9  77251863.722 8
  20787255.514    20787256.935   -60892970.388 8  77822933.167 7
 89 11 17 13 18 59.0800000  0  4G13G 6G 3G 9
  20886368.806    20886370.382   -33887944.342 9   -130810.158 7
  22968736.672    22968737.894     1998629.989 9  17090921.472 9
  24207957.038    24207956.764   -61368792.807 9  77184633.338 8
  20793610.241    20793609.654   -60859576.939 9  77848954.039 8
 89 11 17 13 19 29.0800000  0  4G13G 6G 3G 9
  20882704.527    20882706.139   -33907196.216 9   -145811.634 7
  22988143.990    22988145.455     2100615.002 9  17170390.282 8
  24191583.766    24191585.992   -61454829.341 9  77117591.903 8
  20800083.520    20800083.906   -60825559.072 8  77875461.476 8
 89 11 17 13 19 59.0800000  0  4G13G 6G 3G 9
  20879126.071    20879127.041   -33926003.390 9   -160466.553 7
  23007619.042    23007620.629     2202957.520 9  17250137.671 8
  24175257.961    24175259.323   -61540622.431 9  77050740.148 8
  20806676.528    20806676.304   -60790916.958 9  77902455.349 8
 89 11 17 13 20 29.0800000  0  4G13G 6G 3G 9
  20875631.260    20875633.018   -33944366.667 9   -174775.600 7
  23027161.444    23027162.917     2305655.154 9  17330161.747 8
  24158977.958    24158980.439   -61626171.328 9  76984078.670 8
  20813385.507    20813387.954   -60755651.322 9  77929935.064 7
 89 11 17 13 20 59.0800000  0  4G13G 6G 3G 9
  20872220.629    20872223.871   -33962287.152 9   -188739.620 7
  23046771.237    23046773.428     2408705.565 9  17410460.738 8
  24142745.959    24142747.875   -61711475.031 9  76917608.270 8
  20820215.462    20820215.795   -60719762.459 8  77957900.404 7
 89 11 17 13 21 29.0800000  0  4G13G 6G 3G 9
  20868895.412    20868896.380   -33979766.114 9   -202359.587 7
  23066447.767    23066449.373     2512106.544 9  17491032.886 8
  24126560.057    24126561.689   -61796532.901 9  76851329.407 8
  20827163.023    20827164.311   -60683250.879 9  77986351.001 8
 89 11 17 13 21 59.0800000  0  4G13G 6G 3G 9
  20865652.947    20865655.142   -33996804.050 8   -215635.879 7
  23086189.676    23086192.382     2615855.375 9  17571876.109 9
  24110420.662    24110423.093   -61881344.101 8  76785242.778 9
  20834229.756    20834230.247   -60646117.237 9  78015286.301 7
 89 11 17 13 22 29.0800000  0  4G13G 6G 3G 9
  20862494.355    20862496.553   -34013401.893 9   -228569.273 8
  23105999.395    23106001.278     2719949.741 9  17652988.565 8
  24094327.700    24094330.508   -61965907.950 9  76719348.866 8
  20841414.583    20841415.466   -60608362.134 8  78044705.864 8
 89 11 17 13 22 59.0800000  0  4G13G 6G 3G 9
  20859419.385    20859421.595   -34029560.740 8   -241160.569 7
  23125873.341    23125875.352     2824387.265 9  17734368.405 8
  24078283.393    24078284.652   -62050223.682 9  76653648.324 8
  20848716.264    20848717.656   -60569985.977 8  78074609.362 7
 89 11 17 13 23 29.0800000  0  4G13G 6G 3G 9
  20856428.937    20856430.455   -34045282.168 9   -253411.034 7
  23145812.219    23145813.796     2929165.268 9  17816013.550 8
  24062285.362    24062288.218   -62134290.122 8  76588142.039 8
  20856137.765    20856138.614   -60530989.559 8  78104996.179 7
 89 11 17 13 23 59.0800000  0  4G13G 6G 3G 9
  20853518.687    20853519.988   -34060566.956 8   -265321.247 8
  23165814.896    23165817.143     3034281.525 9  17897922.247 9
  24046336.158    24046337.394   -62218106.981 9  76522830.227 9
  20863677.546    20863676.944   -60491373.442 8  78135865.887 7
 89 11 17 13 24 29.0800000  0  4G13G 6G 3G 9
  20850692.835    20850695.551   -34075415.533 8   -276891.567 8
  23185881.808    23185883.904     3139733.529 9  17980092.567 9
  24030435.192    24030436.543   -62301673.494 9  76457713.492 9
  20871332.291    20871334.547   -60451138.271 8  78167217.961 8
 89 11 17 13 24 59.0800000  0  4G13G 6G 3G 9
  20847950.155    20847952.815   -34089829.611 8   -288123.297 9
  23206011.650    23206013.495     3245518.726 9  18062522.540 9
  24014580.326    24014582.423   -62384989.044 9  76392792.317 8
  20879107.601    20879109.304   -60410285.087 8  78199051.608 8
 89 11 17 13 25 29.0800000  0  4G13G 6G 3G 9
  20845290.169    20845292.242   -34103810.433 8   -299017.429 7
  23226204.725    23226207.146     3351634.753 9  18145210.299 9
  23998772.743    23998774.849   -62468052.727 9  76328067.395 7
  20886998.086    20887000.166   -60368814.334 8  78231366.486 8
 89 11 17 13 25 59.0800000  0  4G13G 6G 3G 9
  20842711.628    20842713.519   -34117358.957 9   -309574.696 7
  23246460.807    23246463.013     3458079.131 9  18228153.915 8
  23983014.239    23983017.070   -62550863.782 8  76263539.323 9
  20895006.388    20895008.009   -60326726.857 7  78264161.911 7
 89 11 17 13 26 29.0800000  0  4G13G 6G 3G 9
  20840216.254    20840218.396   -34130476.094 9   -319795.842 6
  23266778.780    23266780.491     3564849.330 9  18311351.399 8
  23967305.567    23967306.822   -62633421.464 9  76199208.699 8
  20903134.734    20903133.561   -60284023.172 9  78297437.513 7
 89 11 17 13 26 59.0800000  0  4G13G 6G 3G 9
  20837801.331    20837802.459   -34143163.240 8   -329681.926 7
  23287157.743    23287159.974     3671942.714 9  18394800.709 8
  23951642.468    23951645.039   -62715725.256 9  76135075.877 9
  20911376.710    20911377.535   -60240704.333 9  78331192.444 8
 89 11 17 13 27 29.0800000  0  4G13G 6G 3G 9
  20835469.215    20835470.940   -34155421.593 8   -339233.884 7
  23307598.099    23307600.397     3779356.839 9  18478499.962 9
  23936030.124    23936031.894   -62797774.475 9  76071141.460 9
  20919737.638    20919737.767   -60196771.399 8  78365425.899 7
 89 11 17 13 27 59.0800000  0  4G13G 6G 3G 9
  20833217.117    20833219.267   -34167252.253 9   -348452.565 7
  23328098.335    23328100.456     3887089.159 9  18562447.152 9
  23920464.120    23920465.429   -62879568.608 9  76007405.765 9
  20928214.246    20928215.324   -60152224.988 8  78400137.385 8
 89 11 17 13 28 29.0800000  0  4G13G 6G 3G 9
  20831047.603    20831049.649   -34178656.167 9   -357338.746 8
  23348659.523    23348662.451     3995137.184 9  18646640.344 9
  23904948.558    23904950.058   -62961106.927 9  75943869.425 8
  20936806.997    20936807.527   -60107066.185 8  78435326.052 7
 89 11 17 13 28 59.0800000  0  4G13G 6G 3G 9
  20828958.677    20828962.016   -34189635.075 9   -365893.727 8
  23369280.982    23369282.879     4103498.280 9  18731077.497 9
  23889481.530    23889483.293   -63042388.667 9  75880532.992 8
  20945516.493    20945518.458   -60061295.649 8  78470991.410 7
 89 11 17 13 29 29.0800000  0  4G13G 6G 3G 9
  20826950.317    20826952.344   -34200189.730 9   -374118.140 7
  23389959.694    23389962.552     4212170.010 9  18815756.703 8
  23874062.906    23874063.715   -63123413.312 9  75817396.928 8
  20954343.934    20954344.311   -60014914.386 8  78507132.641 7
 89 11 17 13 29 59.0800000  0  4G13G 6G 3G 9
  20825022.240    20825022.838   -34210321.203 9   -382012.790 7
  23410697.658    23410701.130     4321149.798 9  18900675.950 8
  23858693.114    23858694.581   -63204180.001 9  75754461.826 8
  20963285.433    20963287.003   -59967923.534 9  78543748.891 7
 89 11 17 13 30 29.0800000  0  4G13G 6G 3G 9
  20823174.159    20823176.539   -34220031.372 9   -389579.155 8
  23431494.090    23431496.098     4430434.940 9  18985833.134 8
  23843372.460    23843373.975   -63284688.509 9  75691727.908 9
  20972343.886    20972345.714   -59920323.988 7  78580839.456 8
 89 11 17 13 30 59.0800000  0  4G13G 6G 3G 9
  20821407.104    20821408.580   -34229321.196 9   -396817.984 8
  23452348.061    23452350.371     4540022.766 9  19071226.181 8
  23828101.399    23828103.288   -63364938.038 9  75629195.792 8
  20981515.855    20981518.212   -59872117.013 8  78618403.335 7
 89 11 17 13 31 29.0800000  0  4G13G 6G 3G 9
  20819717.936    20819719.924   -34238192.252 9   -403730.492 7
  23473259.337    23473262.013     4649910.755 9  19156853.117 8
  23812879.450    23812880.846   -63444928.064 9  75566865.912 8
  20990804.882    20990806.079   -59823303.530 9  78656439.801 7
 89 11 17 13 31 59.0800000  0  4G13G 6G 3G 9
  20818109.781    20818111.222   -34246645.662 9   -410317.555 8
  23494227.131    23494229.591     4760096.343 9  19242711.967 7
  23797708.093    23797708.563   -63524657.934 9  75504738.722 8
  21000210.162    21000210.863   -59773884.554 8  78694948.081 7
 89 11 17 13 32 29.0800000  0  4G13G 6G 3G 9
  20816580.980    20816582.307   -34254682.178 9   -416579.769 7
  23515250.997    23515253.420     4870577.001 9  19328800.721 8
  23782586.077    23782587.470   -63604127.199 9  75442814.609 8
  21009728.522    21009731.055   -59723861.147 8  78733927.354 8
 89 11 17 13 32 59.0800000  0  4G13G 6G 3G 9
  20815130.070    20815132.438   -34262303.159 8   -422518.187 7
  23536330.814    23536332.430     4981350.021 9  19415117.318 8
  23767512.515    23767514.670   -63683335.150 9  75381094.139 8
  21019363.145    21019364.337   -59673234.618 8  78773376.614 7
 89 11 17 13 33 29.0800000  0  4G13G 6G 3G 9
  20813757.741    20813761.004   -34269509.953 9   -428133.856 6
  23557465.410    23557467.299     5092412.807 9  19501659.692 8
  23752489.184    23752490.219   -63762281.425 9  75319577.579 7
  21029112.117    21029112.685   -59622005.882 9  78813295.078 8
 89 11 17 13 33 59.0800000  0  4G13G 6G 3G 9
  20812465.101    20812466.201   -34276304.234 8   -433428.088 7
  23578654.704    23578656.052     5203762.592 9  19588425.681 9
  23737516.453    23737518.457   -63840965.350 8  75258265.430 7
  21038974.494    21038972.548   -59570176.396 8  78853681.699 7
 89 11 17 13 34 29.0800000  0  4G13G 6G 3G 9
  20811250.993    20811253.378   -34282687.134 9   -438401.785 7
  23599898.355    23599901.052     5315396.936 9  19675413.396 8
  23722594.415    23722595.453   -63919386.336 9  75197158.166 8
  21048949.957    21048952.085   -59517747.301 8  78894535.529 6
 89 11 17 13 34 59.0800000  0  4G13G 6G 3G 9
  20810114.697    20810116.306   -34288659.821 8   -443055.837 8
  23621195.053    23621197.452     5427313.098 9  19762620.684 9
  23707720.806    23707723.368   -63997544.048 9  75136256.058 7
  21059042.584    21059043.480   -59464719.881 8  78935855.600 7
 89 11 17 13 35 29.0800000  0  4G13G 6G 3G 9
  20809056.024    20809057.653   -34294223.742 9   -447391.355 8
  23642544.488    23642546.831     5539508.439 9  19850045.540 8
  23692898.444    23692899.761   -64075437.973 9  75075559.486 8
  21069246.168    21069246.288   -59411095.248 8  78977641.018 6
 89 11 17 13 35 59.0800000  0  4G13G 6G 3G 9
  20808074.717    20808075.860   -34299380.476 8   -451409.611 7
  23663948.110    23663949.536     5651980.259 9  19937685.819 8
  23678125.262    23678127.256   -64153067.562 9  75015068.908 8
  21079564.761    21079562.767   -59356874.833 8  79019890.680 8
 89 11 17 13 36 29.0800000  0  4G13G 6G 3G 9
  20807170.383    20807172.715   -34304131.463 9   -455111.684 7
  23685402.746    23685405.245     5764725.958 9  20025539.493 9
  23663403.192    23663404.836   -64230432.237 8  74954784.745 8
  21089995.647    21089995.475   -59302059.877 9  79062603.609 8
 89 11 17 13 36 59.0800000  0  4G13G 6G 3G 9
  20806343.520    20806346.182   -34308477.931 8   -458498.536 8
  23706908.783    23706911.576     5877742.853 9  20113604.488 8
  23648732.452    23648733.552   -64307531.610 9  74894707.317 8
  21100538.355    21100540.120   -59246651.819 9  79105778.719 7
 89 11 17 13 55 29.0800000  0  4G13G 6G 3G 9
  20482430.377    20482431.627   -34198229.445 9   -372605.357 8
  24189294.606    24189301.057    10225091.070 7  23501125.723 8
  22797132.291    22797134.318   -66970288.599 9  72819817.650 8
  21222374.624    21222375.967   -56793978.664 9  81016937.434 8
 89 11 17 13 55 59.0800000  0  4G13G 6G 3G 9
  20484318.619    20484320.133   -34188304.088 9   -364871.324 6
  24212375.268    24212379.748    10346381.869 9  23595637.682 7
  22784427.901    22784429.673   -67037054.138 9  72767792.528 8
  21236973.941    21236974.433   -56717255.885 9  81076721.378 8
 89 11 17 13 56 29.0800000  0  4G13G12G 3G 9
  20486273.754    20486274.945   -34178033.902 8   -356868.596 8
                  20610750.267   -75281496.159 9
  22771775.628    22771777.148   -67103543.479 8  72715982.650 8
  21251674.469    21251673.772   -56640010.073 8  81136912.877 8
 89 11 17 13 56 59.0800000  0  4G13G12G 3G 9
  20488292.810    20488294.977   -34167420.759 9   -348598.653 8
  20605565.180    20605567.470   -75308898.204 9  95640229.331 8
  22759174.362    22759176.741   -67169756.790 9  72664387.833 9
  21266473.204    21266472.984   -56562243.597 8  81197510.075 8
 89 11 17 13 57 29.0800000  0  4G13G12G 3G 9
  20490376.932    20490380.006   -34156466.336 9   -340062.790 7
  20600462.692    20600463.344   -75335715.838 9  95619332.469 8
  22746627.955    22746629.484   -67235693.956 9  72613008.204 8
  21281369.781    21281371.421   -56483958.566 8  81258511.356 8
 89 11 17 13 57 59.0800000  0  4G13G12G 3G 9
  20492526.912    20492527.661   -34145172.203 9   -331262.214 8
  20595470.231    20595472.558   -75361948.068 9  95598891.754 9
  22734132.736    22734134.675   -67301354.535 9  72561844.093 9
  21296364.641    21296366.710   -56405157.491 9  81319914.738 8
 89 11 17 13 58 29.0800000  0  4G13G12G 3G 9
  20494739.078    20494742.175   -34133539.892 8   -322198.114 7
  20590589.302    20590591.867   -75387593.486 9  95578908.305 8
  22721689.803    22721692.216   -67366739.265 9  72510894.937 8
  21311458.546    21311459.754   -56325842.473 9  81381718.605 9
 89 11 17 13 58 59.0800000  0  4G13G12G 3G 9
  20497017.663    20497018.961   -34121571.174 9   -312871.886 8
  20585822.402    20585822.805   -75412650.587 8  95559383.283 8
  22709300.868    22709302.758   -67431847.581 9  72460161.184 9
  21326648.837    21326649.142   -56246015.703 8  81443921.239 9
 89 11 17 13 59 29.0800000  0  4G13G12G 3G 9
  20499359.161    20499361.553   -34109268.124 9   -303285.104 7
  20581166.373    20581167.625   -75437117.911 9  95540317.840 7
  22696964.318    22696965.105   -67496679.458 8  72409642.848 8
  21341935.863    21341936.925   -56165679.713 9  81506520.659 8
 89 11 17 13 59 59.0800000  0  4G13G12G 3G 9
  20501763.248    20501764.204   -34096632.018 9   -293438.804 8
  20576622.100    20576623.680   -75460993.635 9  95521713.406 8
  22684679.213    22684681.697   -67561234.891 9  72359339.933 9
  21357320.671    21357322.293   -56084836.855 9  81569515.065 8
 89 11 17 14  0 29.0800000  0  4G13G12G 3G 9
  20504231.458    20504231.561   -34083664.352 9   -283334.133 6
  20572191.924    20572193.861   -75484276.238 9  95503571.127 9
  22672447.213    22672448.664   -67625513.856 9  72309252.430 8
  21372799.780    21372801.518   -56003489.192 9  81632902.806 8
 89 11 17 14  0 59.0800000  0  4G13G12G 3G 9
  20506761.815    20506764.683   -34070367.289 9   -272972.820 8
  20567873.777    20567876.464   -75506964.449 9  95485892.010 7
  22660268.110    22660269.640   -67689516.495 9  72259380.249 8
  21388375.879    21388377.340   -55921639.326 9  81696681.869 8
 89 11 17 14  1 29.0800000  0  4G13G12G 3G 9
  20509355.419    20509356.818   -34056742.192 9   -262355.867 7
  20563670.649    20563671.833   -75529056.725 9  95468677.265 8
  22648141.056    22648143.760   -67753242.883 8  72209723.328 9
  21404046.241    21404047.091   -55839289.579 9  81760850.458 8
 89 11 17 14  1 59.0800000  0  4G13G12G 3G 9
  20512009.299    20512010.941   -34042790.451 9   -251484.399 7
  20559580.109    20559581.850   -75550551.695 9  95451927.911 8
  22636067.071    22636069.368   -67816692.883 8  72160281.791 9
  21419812.188    21419813.680   -55756442.434 9  81825406.630 7
 89 11 17 14  2 29.0800000  0  4G13G12G 3G 9
  20514725.744    20514727.627   -34028514.197 9   -240360.085 7
  20555603.657    20555604.766   -75571447.952 9  95435645.111 8
  22624045.438    22624048.680   -67879866.632 8  72111055.487 8
  21435671.322    21435672.714   -55673100.155 9  81890348.606 7
 89 11 17 14  2 59.0800000  0  4G13G12G 3G 9
  20517504.303    20517505.634   -34013915.169 9   -228984.249 8
  20551740.803    20551743.308   -75591743.766 8  95419830.189 7
  22612076.899    22612078.716   -67942764.069 9  72062044.507 8
  21451624.008    21451625.713   -55589265.229 8  81955674.461 9
 89 11 17 14  3 29.0800000  0  4G13G12G 3G 9
  20520343.991    20520346.172   -33998994.862 9   -217358.047 7
  20547993.902    20547995.838   -75611437.950 9  95404484.072 8
  22600159.497    22600162.775   -68005385.245 9  72013248.790 7
  21467670.530    21467672.430   -55504940.212 8  82021382.226 7
 89 11 17 14  3 59.0800000  0  4G13G12G 3G 9
  20523243.926    20523244.779   -33983755.387 9   -205483.140 7
  20544360.151    20544362.239   -75630529.353 9  95389607.646 8
  22588295.950    22588297.841   -68067730.375 9  71964668.186 9
  21483809.580    21483811.491   -55420127.365 9  82087470.114 8
 89 11 17 14  4 29.0800000  0  4G13G12G 3G 9
  20526203.851    20526205.448   -33968198.381 9   -193360.823 7
  20540842.668    20540844.772   -75649016.429 9  95375202.122 9
  22576484.502    22576486.363   -68129798.978 8  71916303.063 7
  21500041.470    21500043.277   -55334829.500 9  82153935.930 8
 89 11 17 14  4 59.0800000  0  4G13G12G 3G 9
  20529225.174    20529227.160   -33952325.398 9   -180992.294 7
  20537439.876    20537442.129   -75666898.113 9  95361268.345 8
  22564726.014    22564727.527   -68191591.665 9  71868152.913 8
  21516365.305    21516366.299   -55249048.896 9  82220777.898 8
 89 11 17 14  5 29.0800000  0  4G13G12G 3G 9
  20532304.357    20532305.519   -33936138.146 9   -168378.883 7
  20534152.395    20534155.938   -75684172.691 8  95347807.641 8
  22553020.147    22553022.134   -68253108.413 9  71820217.776 8
  21532780.492    21532781.803   -55162788.192 8  82287993.962 9
 89 11 17 14  5 59.0800000  0  4G13G12G 3G 9
  20535445.002    20535446.338   -33919638.481 9   -155522.032 7
  20530981.681    20530983.204   -75700839.341 9  95334820.629 8
  22541366.673    22541367.592   -68314349.525 9  71772497.430 8
  21549286.024    21549288.077   -55076049.779 9  82355582.259 8
 89 11 17 14  6 29.0800000  0  4G13G12G 3G 9
  20538643.616    20538646.197   -33902827.979 9   -142422.976 7
  20527925.535    20527927.735   -75716896.609 9  95322308.456 8
  22529765.126    22529767.468   -68375314.726 8  71724992.084 9
  21565883.398    21565883.533   -54988836.277 8  82423540.771 7
 89 11 17 14  6 59.0800000  0  4G13G12G 3G 9
  20541901.263    20541903.798   -33885708.453 9   -129083.109 7
  20524985.768    20524988.379   -75732343.570 9  95310271.847 9
  22518215.885    22518218.013   -68436004.230 9  71677701.549 8
  21582568.315    21582570.735   -54901150.369 9  82491867.401 8
 89 11 17 14  7 29.0800000  0  4G13G12G 3G 9
  20545217.922    20545219.737   -33868281.818 8   -115503.925 7
  20522163.085    20522164.892   -75747178.935 9  95298711.831 9
  22506719.765    22506721.614   -68496418.279 9  71630625.655 8
  21599344.037    21599346.273   -54812994.454 9  82560560.271 8
 89 11 17 14  7 59.0800000  0  4G13G12G 3G 9
  20548591.886    20548593.451   -33850549.601 9   -101686.661 7
  20519457.008    20519459.054   -75761401.792 8  95287629.061 8
  22495276.496    22495278.460   -68556556.886 9  71583764.401 8
  21616208.676    21616210.414   -54724371.276 9  82629617.231 8
 89 11 17 14  8 29.0800000  0  4G13G12G 3G 9
  20552024.575    20552026.484   -33832513.102 9    -87632.273 8
  20516867.634    20516867.690   -75775011.399 9  95277024.157 8
  22483883.915    22483886.134   -68616420.181 9  71537117.680 8
  21633161.572    21633163.669   -54635283.471 9  82699036.234 8
 89 11 17 14  8 59.0800000  0  4G13G12G 3G 9
  20555514.107    20555515.368   -33814174.509 9    -73342.488 8
  20514392.871    20514394.789   -75788006.160 9  95266898.365 8
  22472544.731    22472545.832   -68676008.530 9  71490685.207 9
  21650202.758    21650205.069   -54545733.579 9  82768815.311 9
 89 11 17 14  9 29.0800000  0  4G13G12G 3G 9
  20559060.027    20559062.628   -33795535.356 8    -58818.512 8
  20512038.357    20512039.984   -75800384.903 9  95257252.593 8
  22461258.561    22461260.827   -68735321.806 9  71444467.071 7
  21667331.148    21667332.866   -54455724.120 9  82838952.509 8
 89 11 17 14  9 59.0800000  0  4G13G12G 3G 9
  20562664.266    20562666.101   -33776597.775 9    -44061.964 8
  20509800.594    20509801.905   -75812146.696 9  95248087.555 8
  22450023.552    22450025.529   -68794360.463 9  71398462.930 8
  21684545.985    21684547.642   -54365257.924 9  82909445.586 8
 89 11 17 14 10 29.0800000  0  4G13G12G 3G 9
  20566325.697    20566326.982   -33757363.050 9    -29073.915 8
  20507678.871    20507681.440   -75823290.492 9  95239404.072 9
  22438840.772    22438842.502   -68853124.446 9  71352672.827 8
  21701847.544    21701848.535   -54274337.597 9  82980292.554 8
 89 11 17 14 10 59.0800000  0  4G13G12G 3G 9
  20570040.752    20570044.023   -33737833.045 9    -13855.747 8
  20505676.110    20505678.992   -75833815.421 9  95231202.807 8
  22427710.375    22427712.239   -68911613.919 9  71307096.605 9
  21719235.410    21719236.547   -54182965.976 9  83051491.166 8
 89 11 17 14 11 29.0800000  0  4G13G12G 3G 9
  20573813.199    20573815.972   -33718009.781 9      1590.938 8
  20503791.989    20503794.008   -75843720.608 9  95223484.469 7
  22416633.030    22416633.736   -68969829.142 9  71261734.106 7
  21736707.965    21736709.714   -54091145.545 9  83123039.486 8
 89 11 17 14 11 59.0800000  0  4G13G12G 3G 9
  20577641.738    20577644.202   -33697894.373 9     17265.277 7
  20502024.949    20502026.423   -75853004.986 9  95216249.874 8
  22405607.095    22405608.334   -69027770.507 9  71216584.996 8
  21754266.082    21754267.519   -53998879.117 9  83194935.366 8
 89 11 17 14 12 29.0800000  0  4G13G12G 3G 9
  20581525.080    20581526.360   -33677488.693 9     33165.781 7
  20500375.584    20500378.303   -75861667.872 9  95209499.567 9
  22394633.326    22394635.432   -69085437.863 9  71171649.397 8
  21771907.685    21771908.816   -53906169.573 9  83267176.496 8
 89 11 17 14 12 59.0800000  0  4G13G12G 3G 9
  20585462.827    20585465.228   -33656794.583 9     49291.057 8
  20498846.696    20498848.510   -75869708.258 9  95203234.324 8
  22383711.775    22383713.143   -69142831.556 9  71126927.043 9
  21789633.853    21789635.034   -53813019.265 8  83339761.098 8
 89 11 17 14 13 29.0800000  0  4G13G12G 3G 9
  20589454.777    20589456.720   -33635814.001 9     65639.553 7
  20497435.545    20497437.291   -75877125.516 9  95197454.625 8
  22372841.090    22372844.005   -69199951.822 9  71082417.742 8
  21807442.698    21807444.534   -53719431.151 9  83412686.843 8
 89 11 17 14 13 59.0800000  0  4G13G12G 3G 9
  20593501.840    20593505.282   -33614548.274 9     82210.222 8
  20496142.904    20496144.448   -75883918.575 9  95192161.320 8
  22362023.988    22362025.667   -69256799.052 9  71038121.205 8
  21825334.991    21825336.244   -53625407.987 8  83485951.577 7
 89 11 17 14 14 29.0800000  0  4G13G12G 3G 9
  20597602.459    20597604.454   -33592999.811 9     99001.197 7
  20494968.139    20494969.952   -75890086.414 9  95187355.211 8
  22351257.756    22351260.407   -69313373.426 9  70994037.267 8
  21843309.196    21843310.976   -53530952.667 9  83559553.060 8
 89 11 17 14 14 59.0800000  0  4G13G12G 3G 9
  20601756.726    20601758.395   -33571169.691 9    116011.653 8
  20493914.065    20493916.102   -75895628.532 9  95183036.628 8
  22340544.019    22340546.212   -69369675.101 9  70950165.821 7
  21861365.016    21861366.799   -53436067.948 9  83633489.125 8
 89 11 17 14 15 29.0800000  0  4G13G12G 3G 9
  20605964.104    20605967.257   -33549059.756 9    133240.114 8
  20492979.178    20492980.389   -75900544.431 9  95179206.047 8
  22329882.812    22329886.233   -69425704.213 9  70906506.761 8
  21879502.258    21879505.454   -53340756.495 8  83707757.726 9
 89 11 17 14 15 59.0800000  0  4G13G12G 3G 9
  20610223.961    20610226.334   -33526671.830 9    150685.211 7
  20492163.312    20492165.341   -75904833.110 9  95175864.207 8
  22319272.319    22319274.151   -69481461.209 9  70863059.750 8
  21897719.662    21897722.070   -53245021.018 9  83782356.710 9
 89 11 17 14 16 29.0800000  0  4G13G12G 3G 9
  20614536.649    20614540.303   -33504007.748 9    168345.498 8
  20491466.486    20491467.436   -75908493.822 9  95173011.699 8
  22308714.339    22308716.015   -69536946.315 9  70819824.595 9
  21916018.196    21916019.876   -53148864.657 9  83857283.669 8
 89 11 17 14 16 59.0800000  0  4G13G12G 3G 9
  20618901.170    20618904.756   -33481069.281 9    186219.569 8
  20490889.183    20490890.960   -75911525.901 9  95170649.006 8
  22298207.234    22298209.008   -69592159.881 9  70776801.038 8
  21934395.692    21934398.286   -53052290.090 8  83932536.511 9
 89 11 17 14 17 29.0800000  0  4G13G12G 3G 9
  20623318.847    20623321.946   -33457857.784 9    204306.405 8
  20490431.086    20490434.314   -75913928.742 9  95168776.653 7
  22287752.327    22287754.057   -69647102.046 8  70733988.950 8
  21952852.400    21952854.766   -52955300.164 9  84008112.998 8
 89 11 17 14 17 59.0800000  0  4G13G12G 3G 9
  20627787.396    20627791.259   -33434375.005 9    222604.646 7
  20490094.746    20490096.399   -75915701.827 9  95167395.007 8
  22277348.576    22277350.604   -69701772.987 9  70691388.211 8
  21971388.210    21971389.657   -52857897.612 9  84084011.012 9
 89 11 17 14 18 29.0800000  0  4G13G12G 3G 9
  20632307.143    20632310.949   -33410623.122 9    241112.587 8
  20489876.619    20489879.183   -75916844.549 9  95166504.566 8
  22266996.821    22266998.358   -69756173.544 9  70648998.152 8
  21990000.830    21990003.914   -52760085.640 9  84160228.039 8
 89 11 17 14 18 59.0800000  0  4G13G12G 3G 9
  20636878.255    20636882.155   -33386603.564 9    259829.080 8
  20489779.192    20489780.345   -75917356.270 9  95166105.798 7
  22256696.030    22256697.905   -69810303.403 9  70606819.035 8
  22008691.353    22008692.901   -52661866.857 9  84236762.070 7
 89 11 17 14 19 29.0800000  0  4G13G12G 3G 9
  20641499.746    20641502.951   -33362318.369 9    278752.568 8
  20489802.560    20489803.518   -75917237.082 9  95166198.631 7
  22246446.740    22246447.919   -69864163.437 9  70564850.163 8
  22027459.460    22027460.106   -52563244.485 8  84313610.583 9
 89 11 17 14 19 59.0800000  0  4G13G12G 3G 9
  20646171.387    20646173.362   -33337768.722 8    297882.113 8
  20489943.988    20489947.605   -75916485.966 9  95166783.893 8
  22236249.016    22236250.619   -69917753.610 9  70523091.572 8
  22046301.453    22046304.452   -52464221.014 9  84390771.638 9
 89 11 17 14 20 29.0800000  0  4G13G12G 3G 9
  20650892.133    20650895.353   -33312956.624 9    317216.174 8
  20490208.244    20490210.370   -75915102.712 9  95167861.732 8
  22226102.750    22226104.076   -69971074.292 9  70481542.979 9
  22065220.611    22065222.633   -52364799.473 9  84468242.887 8
 89 11 17 14 20 59.0800000  0  4G13G12G 3G 9
  20655663.928    20655666.320   -33287884.152 9    336753.132 8
  20490591.949    20490594.175   -75913086.845 9  95169432.514 7
  22216006.990    22216008.919   -70024125.775 9  70440204.167 8
  22084215.485    22084218.883   -52264982.914 9  84546021.942 8
 89 11 17 14 21 29.0800000  0  4G13G12G 3G 9
  20660484.929    20660487.811   -33262552.352 9    356492.150 8
  20491096.695    20491097.835   -75910437.990 9  95171496.552 8
  22205962.824    22205963.895   -70076908.528 9  70399074.738 9
  22103285.856    22103286.780   -52164774.075 8  84624106.682 7
 89 11 17 14 21 59.0800000  0  4G13G12G 3G 9
  20665353.798    20665356.932   -33236963.354 8    376431.604 8
  20491720.443    20491722.212   -75907155.720 9  95174054.140 8
  22195969.513    22195970.867   -70129422.961 9  70358154.410 8
  22122428.663    22122431.333   -52064176.108 9  84702494.627 8
 89 11 17 14 22 29.0800000  0  4G13G12G 3G 9
  20670272.565    20670274.980   -33211118.684 9    396570.248 9
  20492466.236    20492468.265   -75903239.396 9  95177105.793 8
  22186027.262    22186028.115   -70181669.158 9  70317443.062 9
  22141644.847    22141645.829   -51963191.702 9  84781183.694 8
 89 11 17 14 22 59.0800000  0  4G13G12G 3G 9
  20675239.131    20675241.692   -33185019.580 8    416907.186 8
  20493331.561    20493333.528   -75898688.651 9  95180651.803 8
  22176136.108    22176138.047   -70233647.881 9  70276940.139 8
  22160934.897    22160936.317   -51861823.993 9  84860171.415 7
 89 11 17 14 23 29.0800000  0  4G13G12G 3G 9
  20680253.227    20680256.735   -33158668.253 9    437440.653 8
  20494319.369    20494320.386   -75893503.455 9  95184692.177 8
  22166295.767    22166297.361   -70285359.278 9  70236645.517 8
  22180296.862    22180299.455   -51760075.825 8  84939455.591 8
 89 11 17 14 23 59.0800000  0  4G13G12G 3G 9
  20685315.682    20685318.266   -33132066.562 9    458169.209 7
  20495425.756    20495428.054   -75887683.910 9  95189226.864 8
  22156506.588    22156510.052   -70336803.728 9  70196558.918 7
  22199731.437    22199733.217   -51657950.349 9  85019033.800 8
 89 11 17 14 24 29.0800000  0  4G13G12G 3G 9
  20690424.772    20690427.174   -33105216.234 9    479091.525 8
  20496654.392    20496656.825   -75881229.486 9  95194256.282 7
  22146767.052    22146769.428   -70387981.601 9  70156680.051 8
  22219236.091    22219238.512   -51555450.578 8  85098903.672 8
 89 11 17 14 24 59.0800000  0  4G13G12G 3G 9
  20695581.004    20695584.264   -33078118.460 9    500206.687 9
  20498003.789    20498006.261   -75874140.026 9  95199780.526 7
  22137079.412    22137080.859   -70438893.302 9  70117008.614 8
  22238812.377    22238814.449   -51452579.208 8  85179063.107 8
 89 11 17 14 25 29.0800000  0  4G13G12G 3G 9
  20700783.723    20700787.976   -33050775.449 9    521512.918 7
  20499472.973    20499475.442   -75866415.310 9  95205799.759 8
  22127441.517    22127443.488   -70489539.288 9  70077544.215 8
  22258458.408    22258461.403   -51349339.589 9  85259509.468 8
 89 11 17 14 25 59.0800000  0  4G13G12G 3G 9
  20706034.126    20706037.226   -33023188.698 9    543009.072 9
  20501063.989    20501066.450   -75858055.043 9  95212314.243 7
  22117854.556    22117856.383   -70539920.096 9  70038286.446 8
  22278173.756    22278176.003   -51245734.492 9  85340240.639 7
 89 11 17 14 26 29.0800000  0  4G13G12G 3G 9
  20711329.735    20711333.693   -32995360.142 9    564693.663 8
  20502776.185    20502778.984   -75849059.055 9  95219324.101 9
  22108317.721    22108319.284   -70590035.842 9  69999235.223 8
  22297957.840    22297959.668   -51141767.085 9  85421254.123 8
 89 11 17 14 26 59.0800000  0  4G13G12G 3G 9
  20716671.316    20716673.900   -32967291.100 9    586565.670 8
  20504608.821    20504612.329   -75839427.718 9  95226829.015 7
  22098831.173    22098833.387   -70639887.044 9  69960390.136 8
  22317811.386    22317812.655   -51037440.389 9  85502547.571 8
 89 11 17 14 27 29.0800000  0  4G13G12G 3G 9
  20722057.743    20722061.792   -32938983.310 9    608623.674 7
  20506562.935    20506564.154   -75829161.108 9  95234828.961 8
  22089394.694    22089397.105   -70689474.323 9  69921750.704 8
  22337730.782    22337733.077   -50932757.320 9  85584118.695 8
 89 11 17 14 27 59.0800000  0  4G13G12G 3G 9
  20727489.157    20727493.261   -32910438.380 9    630866.466 8
  20508635.494    20508638.931   -75818259.028 9  95243324.059 8
  22080009.174    22080011.222   -70738797.633 9  69883316.959 8
  22357718.628    22357722.024   -50827721.175 9  85665964.926 8
 89 11 17 14 28 29.0800000  0  4G13G12G 3G 9
  20732966.698    20732969.489   -32881657.982 9    653292.736 7
  20510832.737    20510835.736   -75806721.259 8  95252314.509 8
  22070673.857    22070676.341   -70787858.230 9  69845087.924 8
  22377773.505    22377776.302   -50722334.781 9  85748084.087 8
 89 11 17 14 28 59.0800000  0  4G13G12G 3G 9
  20738488.038    20738490.622   -32852643.619 9    675901.315 8
  20513149.187    20513151.014   -75794547.847 9  95261800.259 7
  22061387.404    22061390.584   -70836656.006 9  69807063.670 8
  22397893.973    22397895.522   -50616601.166 9  85830473.815 8
 89 11 17 14 29 29.0800000  0  4G13G12G 3G 9
  20744053.982    20744057.942   -32823397.727 9    698690.277 8
  20515587.042    20515587.464   -75781738.799 9  95271781.303 8
  22052151.148    22052153.683   -70885191.549 9  69769243.756 8
  22418079.434    22418081.003   -50510523.484 9  85913131.620 8
 89 11 17 14 29 59.0800000  0  4G13G12G 3G 9
  20749662.458    20749664.744   -32793921.325 9    721658.886 8
  20518145.561    20518147.188   -75768294.611 9  95282257.255 9
  22042964.558    22042968.311   -70933465.335 9  69731627.806 8
  22438330.662    22438332.668   -50404104.872 9  85996055.110 8
 89 11 17 14 30 29.0800000  0  4G13G12G 3G 9
  20755314.984    20755318.767   -32764216.360 9    744805.571 8
  20520824.240    20520825.921   -75754215.167 8  95293228.217 8
  22033828.049    22033831.328   -70981477.517 9  69694215.696 8
  22458646.048    22458648.516   -50297348.413 9  86079241.819 9
 89 11 17 14 30 59.0800000  0  4G13G12G 3G 9
  20761011.181    20761014.638   -32734284.297 9    768129.228 7
  20523624.237    20523627.632   -75739500.652 8  95304694.036 7
  22024742.007    22024744.515   -71029229.192 8  69657006.571 8
  22479025.366    22479027.964   -50190257.080 9  86162689.474 8
 89 11 17 14 31 29.0800000  0  4G13G12G 3G 9
  20766749.075    20766753.308   -32704126.944 9    791628.420 8
  20526545.914    20526547.767   -75724151.355 9  95316654.489 9
  22015705.060    22015706.412   -71076720.294 9  69620000.502 8
  22499467.048    22499470.615   -50082833.959 9  86246395.665 8
 89 11 17 14 31 59.0800000  0  4G13G12G 3G 9
  20772532.095    20772533.598   -32673745.474 9    815302.284 7
  20529586.834    20529588.456   -75708167.578 9  95329109.349 9
  22006716.644    22006719.123   -71123951.484 9  69583196.944 7
  22519971.431    22519974.240   -49975082.323 8  86330357.847 9
 89 11 17 14 32 29.0800000  0  4G13G12G 3G 9
  20778354.740    20778357.336   -32643141.369 9    839149.616 7
  20532749.894    20532751.945   -75691549.552 9  95342058.400 8
  21997778.977    21997780.308   -71170923.335 9  69546595.477 8
  22540538.311    22540539.940   -49867005.107 9  86414573.710 8
 89 11 17 14 32 59.0800000  0  4G13G12G 3G 9
  20784220.410    20784222.210   -32612317.330 9    863168.350 7
  20536033.627    20536035.670   -75674297.252 9  95355501.731 8
  21988888.896    21988890.983   -71217636.179 9  69510195.833 8
  22561165.272    22561167.524   -49758605.709 8  86499040.628 8
 89 11 17 14 33 29.0800000  0  4G13G12G 3G 9
  20790128.703    20790130.635   -32581274.457 9    887357.588 7
  20539437.505    20539438.613   -75656410.715 8  95369439.264 7
  21980049.468    21980051.098   -71264090.508 9  69473997.651 8
  22581853.758    22581857.714   -49649886.770 8  86583756.550 8
 89 11 17 14 33 59.0800000  0  4G13G12G 3G 9
  20796076.021    20796079.963   -32550014.126 9    911716.271 7
  20542960.261    20542961.999   -75637890.536 9  95383870.534 9
  21971258.064    21971260.891   -71310287.051 9  69438000.341 8
  22602602.197    22602606.252   -49540851.699 9  86668718.782 8
 89 11 17 14 34 29.0800000  0  4G13G12G 3G 9
  20802066.639    20802068.385   -32518538.005 9    936243.091 7
  20546606.453    20546607.851   -75618737.189 9  95398795.177 8
  21962516.706    21962519.587   -71356226.309 9  69402203.492 8
  22623410.625    22623414.449   -49431503.456 9  86753925.062 9
 89 11 17 14 34 59.0800000  0  4G13G12G 3G 9
  20808096.521    20808099.967   -32486847.729 9    960936.784 7
  20550371.552    20550373.918   -75598950.672 9  95414213.212 8
  21953824.061    21953826.839   -71401908.528 9  69366606.953 8
  22644278.918    22644280.929   -49321845.369 9  86839372.784 8
 89 11 17 14 35 29.0800000  0  4G13G12G 3G 9
  20814167.448    20814169.880   -32454945.206 9    985795.879 7
  20554255.899    20554258.625   -75578531.785 9  95430124.002 8
  21945179.277    21945181.009   -71447334.702 9  69331209.916 8
  22665204.650    22665207.933   -49211880.546 8  86925059.511 9
 89 11 17 14 35 59.0800000  0  4G13G12G 3G 9
  20820278.835    20820282.046   -32422831.774 9   1010819.296 7
  20558261.564    20558264.611   -75557480.951 9  95446527.212 8
  21936583.831    21936585.782   -71492504.763 9  69296012.463 7
  22686187.509    22686189.800   -49101612.124 9  87010982.808 8
 89 11 17 14 36 29.0800000  0  4G13G12G 3G 9
  20826430.105    20826432.357   -32390508.949 9   1036005.902 8
  20562388.531    20562389.973   -75535798.783 9  95463422.381 9
  21928036.591    21928039.067   -71537419.608 9  69261013.860 8
  22707229.110    22707231.935   -48991043.151 9  87097140.308 8
 89 11 17 14 36 59.0800000  0  4G13G12G 3G 9
  20832619.443    20832622.474   -32357978.897 9   1061353.963 8
  20566634.670    20566636.296   -75513485.886 9  95480809.004 8
  21919538.309    21919540.225   -71582079.619 9  69226213.848 8
  22728325.784    22728329.352   -48880176.839 9  87183529.486 8
 89 11 17 14 37 29.0800000  0  4G13G12G 3G 9
  20838849.471    20838852.956   -32325242.910 9   1086862.479 8
  20571000.420    20571003.461   -75490542.296 9  95498687.089 9
  21911088.554    21911090.227   -71626485.478 9  69191611.870 8
  22749478.717    22749482.029   -48769016.456 9  87270147.809 8
 89 11 17 14 37 59.0800000  0  4G13G12G 3G 9
  20845117.469    20845119.572   -32292302.219 9   1112530.538 7
  20575486.273    20575489.140   -75466968.771 9  95517056.026 9
  21902685.419    21902688.130   -71670637.723 9  69157207.494 8
  22770688.343    22770690.829   -48657565.066 8  87356992.866 9
 89 11 17 14 38 29.0800000  0  4G13G12G 3G 9
  20851425.247    20851427.528   -32259158.306 9   1138356.904 8
  20580091.971    20580093.802   -75442766.016 9  95535915.273 9
  21894331.844    21894334.837   -71714536.843 9  69123000.353 7
  22791951.310    22791954.494   -48545825.815 9  87444062.212 8
 89 11 17 14 38 59.0800000  0  4G13G12G 3G 9
  20857769.806    20857772.450   -32225813.231 9   1164340.014 8
  20584817.392    20584820.608   -75417934.754 9  95555264.261 8
  21886027.265    21886028.796   -71758183.589 9  69088989.862 8
  22813269.331    22813271.254   -48433801.943 8  87531353.339 8
 89 11 17 14 39 29.0800000  0  4G13G12G 3G 9
  20864153.224    20864157.350   -32192268.171 9   1190478.915 7
  20589661.968    20589663.813   -75392475.703 9  95575102.441 8
  21877769.016    21877771.101   -71801578.299 9  69055175.775 7
  22834640.118    22834643.801   -48321496.512 9  87618863.866 8
 89 11 17 14 39 59.0800000  0  4G13G12G 3G 9
  20870574.730    20870577.597   -32158524.982 9   1216772.204 7
  20594626.912    20594628.972   -75366389.191 9  95595429.538 9
  21869559.200    21869560.042   -71844721.425 9  69021557.711 8
  22856064.089    22856067.558   -48208912.777 9  87706591.255 8
 89 11 17 14 40 29.0800000  0  4G13G12G 3G 9
  20877033.714    20877036.366   -32124585.202 9   1243218.746 8
  20599710.215    20599712.296   -75339676.181 9  95616244.818 8
  21861396.513    21861399.586   -71887613.877 9  68988134.999 8
  22877540.590    22877543.761   -48096053.751 9  87794533.161 8
 89 11 17 14 40 59.0800000  0  4G13G12G 3G 9
  20883528.625    20883531.592   -32090449.934 9   1269817.661 7
  20604912.259    20604914.797   -75312337.080 9  95637547.976 9
  21853283.300    21853284.086   -71930255.918 9  68954907.411 7
  22899069.118    22899072.370   -47982922.921 9  87882686.879 8
 89 11 17 14 41 29.0800000  0  4G13G12G 3G 9
  20890061.273    20890063.683   -32056120.998 9   1296567.532 7
  20610232.809    20610236.996   -75284372.672 9  95659338.393 8
  21845215.504    21845216.777   -71972648.135 9  68921874.492 7
  22920648.133    22920651.736   -47869523.263 9  87971050.048 8
 89 11 17 14 41 59.0800000  0  4G13G12G 3G 9
  20896630.207    20896634.524   -32021599.956 9   1323467.029 7
  20615673.891    20615676.009   -75255783.947 9  95681615.295 9
  21837195.819    21837197.692   -72014791.346 9  68889035.621 8
  22942278.312    22942281.677   -47755858.050 9  88059620.168 9
 89 11 17 14 42 29.0800000  0  4G13G12G 3G 9
  20903235.699    20903238.554   -31986889.179 9   1350514.353 8
  20621232.673    20621235.134   -75226571.592 9  95704378.115 8
  21829224.066    21829226.614   -72056686.209 9  68856390.251 7
  22963958.549    22963962.690   -47641930.361 9  88148394.798 8
 89 11 17 14 42 59.0800000  0  4G13G12G 3G 9
  20909877.479    20909880.215   -31951988.965 9   1377709.283 7
  20626909.947    20626912.764   -75196736.185 9  95727626.416 9
  21821298.956    21821300.699   -72098333.152 8  68823938.055 8
  22985686.673    22985691.175   -47527743.574 9  88237371.335 9
 89 11 17 14 43 29.0800000  0  4G13G12G 3G 9
  20916554.949    20916556.662   -31916900.747 9   1405050.726 7
  20632704.575    20632708.323   -75166279.188 9  95751359.094 9
  21813420.460    21813421.946   -72139732.649 9  68791678.667 7
  23007464.703    23007468.106   -47413300.646 8  88326547.459 8
 89 11 17 14 43 59.0800000  0  4G13G12G 3G 9
  20923266.804    20923269.362   -31881626.506 9   1432537.077 8
  20638619.839    20638621.792   -75135201.326 9  95775575.579 7
  21805590.459    21805591.886   -72180885.366 9  68759611.581 8
  23029290.697    23029295.508   -47298605.173 9  88415920.346 8
 89 11 17 14 44 29.0800000  0  4G13G12G 3G 9
  20930015.229    20930017.255   -31846167.646 9   1460167.290 7
  20644651.620    20644654.225   -75103503.715 9  95800274.958 8
  21797806.316    21797807.116   -72221792.133 9  68727736.171 8
  23051163.445    23051168.642   -47183660.051 9  88505487.766 8
 89 11 17 14 44 59.0800000  0  4G13G12G 3G 9
  20936797.187    20936799.642   -31810526.078 9   1487939.891 8
  20650801.112    20650804.326   -75071187.249 9  95825456.559 8
  21790067.832    21790068.657   -72262453.250 9  68696052.158 7
  23073084.818    23073089.122   -47068468.464 8  88595247.244 9
 89 11 17 14 45 29.0800000  0  4G13G12G 3G 9
  20943613.770    20943616.858   -31774703.521 9   1515853.502 8
  20657068.268    20657071.336   -75038252.788 9  95851119.732 8
  21782376.736    21782377.776   -72302869.433 9  68664559.009 9
  23095051.800    23095054.213   -46953033.715 8  88685196.187 8
 89 11 17 14 45 59.0800000  0  4G13G12G 3G 9
  20950464.837    20950467.692   -31738700.869 9   1543907.505 8
  20663452.929    20663456.203   -75004701.325 9  95877263.668 7
  21774731.780    21774735.525   -72343041.489 9  68633256.057 8
  23117063.768    23117067.440   -46837358.958 9  88775332.153 8
 89 11 17 14 46 29.0800000  0  4G13G12G 3G 9
  20957350.379    20957353.050   -31702519.885 9   1572100.412 6
  20669955.519    20669957.656   -74970533.941 9  95903887.546 8
  21767134.415    21767136.304   -72382969.882 9  68602142.988 8
  23139121.162    23139125.706   -46721447.531 9  88865652.527 8
 89 11 17 14 46 59.0800000  0  4G13G12G 3G 9
  20964268.457    20964271.254   -31666161.593 9   1600431.497 8
  20676574.267    20676577.519   -74935751.759 9  95930990.484 8
  21759582.796    21759584.803   -72422655.221 9  68571219.302 8
  23161223.521    23161226.253   -46605302.523 9  88956154.913 9
 89 11 17 14 47 29.0800000  0  4G13G12G 3G 9
  20971221.004    20971223.834   -31629627.660 9   1628899.424 7
  20683308.589    20683312.135   -74900356.067 9  95958571.481 8
  21752077.344    21752079.717   -72462097.995 9  68540484.630 7
  23183369.319    23183372.018   -46488927.156 8  89046836.823 8
 89 11 17 14 47 59.0800000  0  4G13G12G 3G 9
  20978206.823    20978208.433   -31592919.334 9   1657503.225 7
  20690162.438    20690163.204   -74864347.458 9  95986630.076 9
  21744617.925    21744619.745   -72501299.126 9  68509938.262 8
  23205557.127    23205561.477   -46372324.576 9  89137695.740 9
 89 11 17 14 48 29.0800000  0  4G13G12G 3G 9
  20985225.035    20985227.894   -31556038.307 9   1686241.610 8
  20697130.072    20697133.598   -74827727.048 9  96015165.397 8
  21737203.614    21737206.184   -72540259.089 9  68479579.801 7
  23227789.221    23227794.269   -46255498.291 9  89228729.009 8
 89 11 17 14 48 59.0800000  0  4G13G12G 3G 9
  20992275.805    20992279.090   -31518986.127 9   1715113.352 7
  20704214.719    20704219.100   -74790496.821 9  96044175.905 8
  21729835.418    21729837.538   -72578978.594 9  68449408.715 7
  23250062.160    23250066.372   -46138451.264 8  89319934.261 8
 89 11 17 14 49 29.0800000  0  4G13G12G 3G 9
  20999358.723    20999360.791   -31481764.041 9   1744117.481 8
  20711416.355    20711418.620   -74752657.478 9  96073661.070 7
  21722512.669    21722514.332   -72617458.229 9  68419424.553 8
  23272377.717    23272382.084   -46021186.702 9  89411309.019 9
 89 11 17 14 49 59.0800000  0  4G13G12G 3G 9
  21006473.780    21006476.497   -31444373.608 9   1773252.828 8
  20718732.921    20718734.675   -74714210.386 9  96103619.800 8
  21715236.360    21715237.704   -72655698.488 9  68389626.890 7
  23294732.327    23294738.102   -45903707.961 9  89502850.661 9
 89 11 17 14 50 29.0800000  0  4G13G12G 3G 9
  21013621.123    21013622.990   -31406815.889 9   1802518.554 7
  20726164.653    20726166.434   -74675156.689 9  96134051.192 7
  21708004.274    21708007.216   -72693700.267 9  68360015.080 8
  23317129.655    23317134.644   -45786018.125 9  89594556.797 8
 89 11 17 14 50 59.0800000  0  4G13G12G 3G 9
  21020799.471    21020802.168   -31369092.375 9   1831913.447 7
  20733711.037    20733714.418   -74635497.753 9  96164954.193 8
  21700818.312    21700819.317   -72731464.300 9  68330588.528 7
  23339564.526    23339568.704   -45668120.485 8  89686424.847 7
 89 11 17 14 51 29.0800000  0  4G13G12G 3G 9
  21028009.987    21028012.770   -31331204.487 9   1861436.429 8
  20741372.520    20741375.190   -74595234.967 9  96196327.723 8
  21693676.656    21693679.911   -72768991.029 9  68301346.883 7
  23362037.824    23362043.511   -45550018.398 8  89778452.208 8
 89 11 17 14 51 59.0800000  0  4G13G12G 3G 9
  21035250.339    21035254.110   -31293154.128 9   1891086.019 7
  20749149.042    20749150.778   -74554369.469 9  96228170.920 8
  21686581.846    21686583.128   -72806280.904 9  68272289.797 8
  23384551.655    23384555.338   -45431714.958 8  89870636.455 8
 89 11 17 14 52 29.0800000  0  4G13G12G 3G 9
  21042522.252    21042524.527   -31254942.017 9   1920861.614 7
  20757040.338    20757042.387   -74512902.715 9  96260482.602 8
  21679530.471    21679532.228   -72843334.869 9  68243416.543 7
  23407100.976    23407105.979   -45313213.524 9  89962974.994 8
 89 11 17 14 52 59.0800000  0  4G13G12G 3G 9
  21049824.046    21049827.732   -31216569.675 9   1950762.054 8
  20765045.845    20765047.190   -74470836.517 9  96293261.383 8
  21672524.024    21672526.223   -72880153.514 9  68214726.639 7
  23429689.301    23429693.697   -45194517.015 9  90055465.519 8
 89 11 17 14 53 29.0800000  0  4G13G12G 3G 9
  21057156.046    21057158.678   -31178038.894 9   1980785.962 7
  20773163.551    20773166.046   -74428172.074 9  96326506.341 9
  21665562.207    21665564.289   -72916737.601 9  68186219.508 8
  23452313.401    23452317.199   -45075628.768 9  90148105.455 8
 89 11 17 14 53 59.0800000  0  4G13G12G 3G 9
  21064518.610    21064521.125   -31139350.427 9   2010932.739 7
  20781396.519    20781398.796   -74384910.909 9  96360216.271 8
  21658644.661    21658647.225   -72953087.579 9  68157894.818 8
  23474971.790    23474976.680   -44956552.164 9  90240892.171 9
 89 11 17 14 54 29.0800000  0  4G13G12G 3G 9
  21071910.338    21071912.965   -31100506.171 9   2041200.888 7
  20789742.578    20789744.547   -74341054.228 9  96394390.234 9
  21651772.320    21651773.910   -72989204.338 9  68129751.838 8
  23497668.137    23497673.498   -44837290.339 8  90333823.178 8
 89 11 17 14 54 59.0800000  0  4G13G12G 3G 9
  21079331.414    21079334.397   -31061507.352 9   2071589.517 8
  20798200.933    20798203.227   -74296603.672 9  96429026.935 8
  21644944.715    21644945.290   -73025088.396 9  68101790.175 7
  23520398.329    23520402.155   -44717846.587 8  90426895.988 8
 89 11 17 14 55 29.0800000  0  4G13G12G 3G 9
  21086781.236    21086783.706   -31022355.190 9   2102097.628 8
  20806772.681    20806775.238   -74251560.745 9  96464125.246 9
  21638159.538    21638162.876   -73060740.567 8  68074009.195 7
  23543161.254    23543165.419   -44598224.137 9  90520108.015 8
 89 11 17 14 55 59.0800000  0  4G13G12G 3G 9
  21094260.965    21094263.407   -30983051.090 9   2132724.189 8
  20815456.450    20815458.840   -74205927.248 9  96499683.736 8
  21631419.039    21631421.195   -73096161.399 9  68046408.516 8
  23565957.386    23565962.892   -44478426.077 9  90613456.888 7
 89 11 17 14 56 29.0800000  0  4G13G12G 3G 9
  21101768.470    21101772.381   -30943596.664 9   2163467.921 8
  20824253.053    20824254.790   -74159704.708 9  96535701.230 8
  21624722.892    21624725.123   -73131351.526 9  68018987.592 7
  23588786.769    23588792.567   -44358455.520 8  90706940.186 7
 89 11 17 14 56 59.0800000  0  4G13G12G 3G 9
  21109306.249    21109309.034   -30903992.889 9   2194327.921 8
  20833159.755    20833163.000   -74112894.382 9  96572176.721 9
  21618069.850    21618071.670   -73166311.847 9  67991745.727 8
  23611648.840    23611654.569   -44238315.956 8  90800555.153 8
 89 11 17 14 57 29.0800000  0  4G13G12G 3G 9
  21116870.983    21116873.301   -30864240.924 9   2225303.483 8
  20842178.947    20842182.714   -74065498.178 9  96609108.755 8
  21611460.819    21611463.500   -73201042.758 9  67964682.607 7
  23634543.542    23634548.081   -44118010.584 9  90894299.332 8
 89 11 17 14 57 59.0800000  0  4G13G12G 3G 9
  21124462.985    21124466.386   -30824342.304 9   2256393.307 7
  20851309.663    20851312.286   -74017517.673 9  96646496.063 8
  21604895.522    21604896.335   -73235545.154 9  67937797.574 8
  23657468.662    23657472.111   -43997542.501 8  90988170.271 8
 89 11 17 14 58 29.0800000  0  4G13G12G 3G 9
  21132083.174    21132085.171   -30784297.814 9   2287596.739 8
  20860550.816    20860553.527   -73968954.489 9  96684337.418 8
  21598373.956    21598376.027   -73269819.413 9  67911090.322 8
  23680422.827    23680427.191   -43876914.956 9  91082165.478 9
 89 11 17 14 58 59.0800000  0  4G13G12G 3G 9
  21139730.835    21139734.063   -30744109.502 9   2318912.236 7
  20869902.587    20869905.886   -73919810.371 9  96722631.443 8
  21591893.981    21591896.536   -73303866.567 9  67884560.035 7
  23703407.079    23703412.871   -43756131.225 9  91176282.392 8
 89 11 17 14 59 29.0800000  0  4G13G12G 3G 9
  21147404.970    21147408.653   -30703777.905 9   2350339.369 7
  20879365.181    20879367.484   -73870087.119 9  96761376.744 8
  21585458.825    21585460.989   -73337686.960 9  67858206.419 9
  23726420.595    23726426.768   -43635194.458 9  91270518.553 8
 89 11 17 14 59 59.0800000  0  4G13G12G 3G 9
  21155107.375    21155109.975   -30663304.992 9   2381876.664 8
  20888936.554    20888940.462   -73819786.543 9  96800571.916 8
  21579065.228    21579068.835   -73371281.582 9  67832028.761 8
  23749462.874    23749467.893   -43514107.905 9  91364871.421 8
 89 11 17 15  0 29.0800000  0  4G13G12G 3G 9
  21162836.712    21162840.255   -30622691.546 9   2413523.444 8
  20898617.857    20898621.081   -73768910.255 9  96840215.696 8
  21572716.567    21572718.565   -73404651.052 9  67806026.537 7
  23772532.176    23772540.229   -43392874.636 8  91459338.579 8
 89 11 17 15  0 59.0800000  0  4G13G12G 3G 9
  21170591.123    21170594.439   -30581938.934 9   2445278.635 8
  20908408.532    20908412.338   -73717460.366 9  96880306.443 8
  21566409.236    21566410.593   -73437796.101 9  67780199.184 8
  23795628.777    23795635.821   -43271498.089 8  91553917.391 8
 89 11 17 15  1 29.0800000  0  4G13G12G 3G 9
  21178371.416    21178375.144   -30541048.024 9   2477141.660 7
  20918307.986    20918311.782   -73665438.325 9  96920843.009 8
  21560143.751    21560146.699   -73470717.458 9  67754546.135 7
  23818754.358    23818761.410   -43149981.298 8  91648605.471 8
 89 11 17 15  1 59.0800000  0  4G13G12G 3G 9
  21186179.295    21186182.669   -30500020.227 9   2509111.346 8
  20928315.895    20928320.276   -73612845.902 9  96961824.037 8
  21553921.846    21553923.097   -73503415.349 9  67729067.223 8
  23841904.261    23841909.985   -43028327.671 9  91743400.182 8
 89 11 17 15  2 29.0800000  0  4G13G12G 3G 9
  21194012.549    21194015.806   -30458857.300 9   2541186.306 9
  20938431.966    20938435.603   -73559685.120 9  97003247.929 8
  21547741.721    21547743.953   -73535890.948 9  67703761.504 7
  23865079.099    23865087.425   -42906540.153 8  91838299.195 8
 89 11 17 15  2 59.0800000  0  4G13G12G 3G 9
  21201871.714    21201874.439   -30417560.175 9   2573365.876 7
  20948656.516    20948660.642   -73505958.076 9  97045113.061 9
  21541603.999    21541606.171   -73568144.630 9  67678628.719 8
  23888280.574    23888287.554   -42784621.969 8  91933300.041 9
 89 11 17 15  3 29.0800000  0  4G13G12G 3G 9
  21209756.149    21209758.434   -30376130.175 9   2605648.953 8
  20958988.527    20958991.796   -73451666.866 9  97087417.814 8
  21535508.378    21535512.080   -73600177.434 9  67653668.064 8
  23911504.953    23911511.275   -42662576.430 8  92028400.126 9
 89 11 17 15  3 59.0800000  0  4G13G12G 3G 9
  21217664.497    21217668.039   -30334568.328 9   2638034.770 8
  20969426.841    20969430.410   -73396813.133 9  97130160.900 9
  21529455.328    21529456.596   -73631989.736 9  67628879.201 7
  23934754.560    23934760.879   -42540406.818 8  92123596.871 8
 89 11 17 15  4 29.0800000  0  4G13G12G 3G 9
  21225598.197    21225601.824   -30292875.464 9   2670522.689 8
  20979970.138    20979973.729   -73341399.116 9  97173340.555 8
  21523443.681    21523445.479   -73663582.298 9  67604261.576 8
  23958025.302    23958031.237   -42418116.222 9  92218887.881 8
 89 11 17 15  4 59.0800000  0  4G13G12G 3G 9
  21233556.339    21233560.028   -30251053.425 9   2703111.202 8
  20990623.121    20990625.514   -73285426.662 9  97216955.369 9
  21517473.364    21517474.994   -73694956.014 9  67579814.465 8
  23981319.029    23981326.659   -42295707.835 9  92314270.691 8
 89 11 17 15  5 29.0800000  0  4G13G12G 3G 9
  21241539.153    21241543.867   -30209102.832 9   2735799.888 8
  21001379.804    21001382.604   -73228897.921 9  97261003.633 8
  21511544.433    21511547.297   -73726111.352 9  67555537.530 8
  24004634.255    24004641.697   -42173184.985 9  92409742.655 8
 89 11 17 15  5 59.0800000  0  4G13G12G 3G 9
  21249546.646    21249550.744   -30167024.823 9   2768587.846 8
  21012241.999    21012246.105   -73171814.956 9  97305483.793 8
  21505656.699    21505659.188   -73757049.092 9  67531430.145 8
  24027970.742    24027978.100   -42050550.886 9  92505301.319 8
 89 11 17 15  6 29.0800000  0  4G13G12G 3G 9
  21257578.710    21257581.097   -30124820.820 9   2801474.054 7
  21023209.892    21023213.730   -73114179.726 9  97350394.278 8
  21499811.165    21499813.785   -73787769.966 9  67507491.787 8
  24051329.708    24051336.677   -41927808.451 9  92600944.383 8
 89 11 17 15  6 59.0800000  0  4G13G12G 3G 9
  21265632.811    21265636.794   -30082492.116 9   2834457.393 8
  21034282.753    21034285.394   -73055994.270 9  97395733.497 8
  21494006.540    21494009.563   -73818274.556 9  67483721.926 7
  24074706.195    24074713.833   -41804961.010 8  92696669.250 8
 89 11 17 15  7 29.0800000  0  4G13G12G 3G 9
  21273710.708    21273713.705   -30040039.422 9   2867537.389 8
  21045459.481    21045462.841   -72997260.687 9  97441499.838 8
  21488242.828    21488245.038   -73848563.696 9  67460119.969 8
  24098102.391    24098110.896   -41682011.768 8  92792473.445 8
 89 11 17 15  7 59.0800000  0  4G13G12G 3G 9
  21281813.098    21281816.167   -29997464.291 9   2900712.717 8
  21056740.119    21056741.967   -72937981.150 9  97487691.574 8
  21482520.519    21482522.592   -73878637.892 9  67436685.495 8
  24121518.568    24121524.747   -41558963.779 9  92888354.588 8
 89 11 17 15  8 29.0800000  0  4G13G12G 3G 9
  21289938.169    21289941.188   -29954767.494 9   2933982.882 8
  21068123.694    21068127.288   -72878157.810 9  97534307.071 8
  21476837.714    21476839.706   -73908497.974 9  67413417.859 8
  24144952.523    24144959.964   -41435820.253 8  92984310.148 8
 89 11 17 15  8 59.0800000  0  4G13G12G 3G 9
  21298086.638    21298089.811   -29911949.998 8   2967347.084 7
  21079611.263    21079613.534   -72817792.865 9  97581344.591 9
  21471195.956    21471198.523   -73938144.597 9  67390316.548 7
  24168403.796    24168410.091   -41312584.248 9  93080337.763 8
 89 11 17 15  9 29.0800000  0  4G13G12G 3G 9
  21306256.559    21306260.844   -29869013.328 9   3000804.212 7
  21091200.351    21091203.126   -72756888.717 9  97628802.273 8
  21465594.659    21465596.742   -73967578.619 9  67367380.878 7
  24191872.831    24191879.496   -41189259.184 8  93176434.759 8
 89 11 17 15  9 59.0800000  0  4G13G12G 3G 9
  21314450.358    21314453.746   -29825958.125 9   3034353.655 7
  21102892.419    21102895.581   -72695447.298 9  97676678.608 8
  21460034.354    21460036.329   -73996800.351 9  67344610.661 7
  24215357.541    24215364.773   -41065848.296 9  93272598.604 8
 89 11 17 15 10 29.0800000  0  4G13G12G 3G 9
  21322665.864    21322668.570   -29782786.017 9   3067994.174 8
  21114686.397    21114691.234   -72633471.086 9  97724971.666 9
  21454514.107    21454516.148   -74025810.787 9  67322005.093 8
  24238858.529    24238864.463   -40942354.626 8  93368826.944 9
 89 11 17 15 10 59.0800000  0  4G13G12G 3G 9
  21330903.239    21330906.947   -29739497.995 9   3101725.037 8
  21126581.821    21126584.739   -72570962.246 9  97773679.770 8
  21449033.109    21449036.282   -74054610.624 9  67299563.614 8
  24262372.600    24262380.301   -40818781.050 8  93465117.572 7
 89 11 17 15 11 29.0800000  0  4G13G12G 3G 9
  21339162.734    21339165.188   -29696094.652 9   3135545.756 8
  21138577.673    21138581.024   -72507922.908 9  97822801.228 8
  21443593.073    21443595.266   -74083200.376 9  67277285.849 8
  24285902.666    24285911.034   -40695130.976 8  93561467.792 8
 89 11 17 15 11 59.0800000  0  4G13G12G 3G 9
  21347443.985    21347446.354   -29652577.029 9   3169455.516 7
  21150674.227    21150678.115   -72444355.613 9  97872334.077 9
  21438192.298    21438193.754   -74111580.694 9  67255171.264 8
  24309447.636    24309456.255   -40571407.472 9  93657875.239 8
 89 11 17 15 12 29.0800000  0  4G13G12G 3G 9
  21355747.274    21355749.206   -29608946.237 9   3203453.459 8
  21162871.388    21162874.409   -72380262.365 9  97922276.777 8
  21432831.007    21432835.005   -74139752.484 9  67233219.164 8
  24333004.808    24333013.547   -40447613.600 8  93754337.486 9
 89 11 17 15 12 59.0800000  0  4G13G12G 3G 9
  21364070.130    21364073.558   -29565203.540 8   3237538.601 8
  21175167.075    21175170.967   -72315645.749 9  97972627.287 8
  21427510.380    21427513.270   -74167716.433 9  67211429.040 8
  24356574.965    24356583.015   -40323752.515 8  93850852.133 8
 89 11 17 15 13 29.0800000  0  4G13G12G 3G 9
  21372415.248    21372420.296   -29521349.772 9   3271710.324 7
  21187562.284    21187565.772   -72250508.039 9  98023383.834 8
  21422229.296    21422231.219   -74195473.014 9  67189800.486 8
  24380158.138    24380166.593   -40199827.721 9  93947416.404 8
 89 11 17 15 13 59.0800000  0  4G13G12G 3G 9
  21380781.020    21380784.606   -29477386.263 9   3305967.527 8
  21200055.955    21200059.819   -72184851.714 9  98074544.529 8
  21416985.750    21416989.008   -74223022.955 9  67168332.943 8
  24403752.008    24403760.520   -40075842.205 9  94044027.968 9
 89 11 17 15 14 29.0800000  0  4G13G12G 3G 9
  21389168.783    21389171.315   -29433313.870 9   3340309.624 7
  21212648.860    21212652.216   -72118679.340 9  98126107.300 8
  21411782.872    21411784.713   -74250366.922 9  67147025.916 8
  24427356.827    24427365.173   -39951798.817 9  94140684.678 8
 89 11 17 15 14 59.0800000  0  4G13G12G 3G 9
  21397575.803    21397579.459   -29389133.573 9   3374735.777 8
  21225339.409    21225341.502   -72051992.659 9  98178070.838 8
  21406618.514    21406621.908   -74277505.810 9  67125878.683 8
  24450973.470    24450981.876   -39827700.812 9  94237383.897 8
 89 11 17 15 15 29.0800000  0  4G13G12G 3G 9
  21406003.501    21406006.920   -29344846.206 9   3409245.348 7
  21238126.040    21238130.436   -71984794.559 9  98230432.891 9
  21401492.731    21401495.037   -74304440.112 9  67104890.886 8
  24474597.089    24474606.437   -39703551.426 9  94334123.140 8
 89 11 17 15 15 59.0800000  0  4G13G12G 3G 9
  21414451.400    21414455.513   -29300452.720 9   3443837.602 7
  21251011.234    21251013.840   -71917087.925 9  98283191.212 9
  21396405.932    21396408.920   -74331170.451 8  67084062.006 8
  24498232.452    24498241.202   -39579353.634 9  94430900.124 8
 89 11 17 15 16 29.0800000  0  4G13G12G 3G 9
  21422919.437    21422921.782   -29255954.186 9   3478511.725 8
  21263991.092    21263994.425   -71848875.057 9  98336344.008 8
  21391358.536    21391361.810   -74357697.652 9  67063391.451 8
  24521875.639    24521883.967   -39455110.481 8  94527712.452 7
 89 11 17 15 16 59.0800000  0  4G13G12G 3G 9
  21431405.818    21431409.311   -29211351.661 9   3513266.890 7
  21277067.487    21277071.516   -71780158.373 9  98389889.367 8
  21386348.492    21386351.943   -74384022.388 9  67042878.631 7
  24545526.021    24545536.207   -39330825.188 8  94624557.587 7
 89 11 17 15 17 29.0800000  0  4G13G12G 3G 9
  21439913.677    21439916.960   -29166645.852 9   3548102.550 7
  21290239.266    21290243.288   -71710940.485 9  98443825.279 8
  21381377.617    21381380.262   -74410145.396 9  67022523.022 8
  24569182.928    24569194.963   -39206500.920 8  94721433.072 8
 89 11 17 15 17 59.0800000  0  4G13G12G 3G 9
  21448440.012    21448444.347   -29121837.646 9   3583017.996 8
  21303505.974    21303509.939   -71641223.765 9  98498149.899 8
  21376445.186    21376447.721   -74436067.171 9  67002324.200 8
  24592853.103    24592859.910   -39082140.781 8  94818336.512 8
 89 11 17 15 18 29.0800000  0  4G13G12G 3G 9
  21456986.244    21456988.702   -29076927.803 9   3618012.649 7
  21316867.490    21316871.696   -71571010.597 9  98552861.349 8
  21371551.104    21371552.756   -74461788.383 9  66982281.654 9
  24616519.476    24616530.863   -38957747.683 7  94915265.622 8
 89 11 17 15 18 59.0800000  0  4G13G12G 3G 9
  21465551.109    21465554.492   -29031917.598 9   3653085.494 7
  21330322.305    21330325.688   -71500303.618 9  98607957.586 8
  21366694.630    21366697.666   -74487309.854 9  66962394.774 8
  24640201.154    24640208.548   -38833324.776 7  95012217.952 8
 89 11 17 15 19 29.0800000  0  4G13G12G 3G 9
  21474135.892    21474139.385   -28986807.952 9   3688235.806 8
  21343871.245    21343874.238   -71429105.512 9  98663436.526 8
  21361875.275    21361878.101   -74512632.099 9  66942663.126 7
  24663875.191    24663891.537   -38708875.165 7  95109191.068 9
 89 11 17 15 19 59.0800000  0  4G13G12G 3G 9
  21482738.752    21482742.924   -28941599.450 9   3723463.179 7
  21357512.935    21357516.755   -71357419.002 9  98719296.026 8
  21357095.652    21357097.123   -74537755.960 9  66923086.079 8
  24687571.819    24687577.784   -38584401.997 8  95206182.541 8
 89 11 17 15 20 29.0800000  0  4G13G12G 3G 9
  21491360.830    21491363.228   -28896293.248 9   3758766.691 7
  21371246.177    21371250.638   -71285246.689 9  98775534.066 8
  21352351.263    21352353.349   -74562681.884 9  66903663.251 7
  24711258.564    24711268.643   -38459908.274 8  95303190.040 7
 89 11 17 15 20 59.0800000  0  4G13G12G 3G 9
  21499999.747    21500004.270   -28850890.342 9   3794145.541 8
  21385072.485    21385075.927   -71212590.997 9  98832148.811 7
  21347645.070    21347648.544   -74587410.552 9  66884394.162 7
  24734954.707    24734962.649   -38335396.878 9  95400211.292 7
 89 11 17 15 21 29.0800000  0  4G13G12G 3G 9
  21508658.549    21508661.744   -28805391.286 9   3829599.292 8
  21398990.143    21398993.162   -71139454.685 9  98889138.015 8
  21342977.583    21342980.027   -74611942.662 9  66865278.177 8
  24758650.090    24758660.085   -38210871.061 9  95497243.815 8
 89 11 17 15 21 59.0800000  0  4G13G12G 3G 9
  21517334.669    21517339.699   -28759796.740 9   3865127.443 7
  21412998.120    21413001.802   -71065840.578 9  98946499.514 8
  21338347.023    21338348.829   -74636278.941 9  66846314.837 8
  24782349.220    24782360.374   -38086333.793 9  95594285.264 8
 89 11 17 15 22 29.0800000  0  4G13G12G 3G 9
  21526029.538    21526032.180   -28714108.008 9   3900728.990 7
  21427097.082    21427101.386   -70991751.112 9  99004231.469 9
  21333753.504    21333754.977   -74660419.993 7  66827503.606 7
  24806049.572    24806061.174   -37961788.120 8  95691333.230 9
 89 11 17 15 22 59.0800000  0  4G13G12G 3G 9
  21534740.952    21534745.160   -28668325.672 9   3936403.529 8
  21441285.817    21441290.104   -70917189.006 9  99062331.694 8
  21329195.705    21329199.899   -74684366.392 9  66808844.062 7
  24829754.199    24829763.613   -37837237.278 9  95788385.216 8
 89 11 17 15 23 29.0800000  0  4G13G12G 3G 9
  21543471.093    21543474.979   -28622450.512 9   3972150.388 8
  21455564.085    21455567.611   -70842157.485 9  99120797.685 9
  21324675.607    21324678.748   -74708118.716 8  66790335.742 7
  24853454.269    24853465.101   -37712684.057 9  95885439.042 8
 89 11 17 15 23 59.0800000  0  4G13G12G 3G 9
  21552218.558    21552221.578   -28576483.589 9   4007968.748 7
  21469931.235    21469934.222   -70766658.913 9  99179627.618 8
  21320191.793    21320195.453   -74731677.766 7  66771978.005 6
  24877155.641    24877168.207   -37588131.676 6  95982492.194 6
 89 11 17 15 24 29.0800000  0  4G13G12G 3G 9
  21560983.753    21560986.105   -28530425.292 7   4043858.305 8
  21484386.188    21484390.311   -70690696.138 8  99238819.270 6
  21315745.741    21315748.892   -74755044.170 9  66753770.413 7
  24900858.155    24900868.571   -37463583.111 7  96079542.387 7
 89 11 17 15 24 59.0800000  0  4G13G12G 3G 9
  21569765.307    21569766.888   -28484276.646 9   4079818.241 7
  21498928.855    21498933.132   -70614271.872 9  99298370.524 7
  21311336.755    21311338.188   -74778218.552 9  66735712.423 8
  24924555.834    24924569.676   -37339041.347 8  96176587.258 8
 89 11 17 15 25 29.0800000  0  4G13G12G 3G 9
  21578562.994    21578566.893   -28438038.866 9   4115847.617 8
  21513560.517    21513563.882   -70537388.687 9  99358279.368 9
  21306963.012    21306965.461   -74801201.627 9  66717803.519 8
  24948257.536    24948266.763   -37214509.186 9  96273624.635 8
 89 11 17 15 25 59.0800000  0  4G13G12G 3G 9
  21587379.126    21587382.386   -28391712.223 9   4151946.289 7
  21528277.178    21528280.852   -70460049.386 9  99418543.656 8
  21302625.890    21302628.161   -74823993.995 9  66700043.196 9
  24971953.121    24971964.097   -37089989.988 7  96370651.924 8
 89 11 17 15 26 29.0800000  0  4G13G12G 3G 9
  21596212.340    21596215.445   -28345297.804 9   4188113.313 8
  21543080.787    21543085.247   -70382256.990 9  99479160.970 8
  21298324.259    21298327.393   -74846596.011 1  66682431.227 2
  24995644.475    24995654.628   -36965486.591 6  96467666.863 5
 89 11 17 15 26 59.0800000  0  4G13G12G 3G 9
  21605061.457    21605064.212   -28298796.204 9   4224348.246 7
  21557970.598    21557974.426   -70304014.311 9  99540129.159 8
  21294059.423    21294062.241   -74869008.749 9  66664966.728 8
  25019333.996    25019345.598   -36841002.016 7  96564667.137 7
 89 11 17 15 27 29.0800000  0  4G13G12G 3G 9
  21613925.569    21613930.661   -28252207.789 9   4260650.825 8
  21572944.595    21572948.166   -70225324.355 9  99601445.884 8
  21289830.504    21289832.369   -74891232.634 9  66647649.386 8
  25043018.773    25043030.700   -36716539.396 7  96661650.272 8
 89 11 17 15 27 59.0800000  0  4G13G12G 3G 9
  21622807.750    21622811.985   -28205533.749 9   4297020.149 8
  21588003.096    21588007.636   -70146189.898 9  99663108.985 7
  21285636.858    21285639.809   -74913268.380 9  66630478.642 8
  25066696.856    25066711.275   -36592101.509 7  96758614.125 7
 89 11 17 15 28 29.0800000  0  4G13G12G 3G 9
  21631706.265    21631709.649   -28158774.847 9   4333455.593 8
  21603146.199    21603150.297   -70066613.729 9  99725116.273 8
  21281479.515    21281482.206   -74935116.300 9  66613454.271 8
  25090373.055    25090387.979   -36467691.648 6  96855556.124 7
 89 11 17 15 28 59.0800000  0  4G13G12G 3G 9
  21640620.000    21640623.834   -28111931.481 9   4369956.850 9
  21618372.648    21618376.826   -69986599.222 9  99787465.084 9
  21277357.959    21277359.384   -74956777.343 9  66596575.509 7
  25114043.560    25114055.899   -36343312.623 7  96952474.096 6
 89 11 17 15 29 29.0800000  0  4G13G12G 3G 9
  21649550.205    21649553.861   -28065004.723 9   4406523.111 7
  21633682.590    21633686.073   -69906148.867 9  99850153.546 9
  21273271.053    21273274.536   -74978251.940 8  66579842.045 8
  25137706.308    25137718.336   -36218967.191 9  97049365.891 8
 89 11 17 15 29 59.0800000  0  4G13G12G 3G 9
  21658495.648    21658499.081   -28017995.241 9   4443153.830 8
  21649073.735    21649077.929   -69825265.741 9  99913179.227 9
  21269220.728    21269222.504   -74999540.880 9  66563253.227 8
  25161359.841    25161374.411   -36094658.508 9  97146229.058 7
 89 11 17 15 30 29.0800000  0  4G13G12G 3G 9
  21667457.473    21667459.788   -27970903.350 8   4479848.743 7
  21664546.624    21664552.226   -69743952.615 9  99976539.987 9
  21265204.454    21265206.428   -75020644.512 9  66546808.821 7
  25185010.943    25185021.761   -35970389.648 9  97243061.197 7
 89 11 17 15 30 59.0800000  0  3G13G12G 3
  21676433.847    21676437.259   -27923729.938 9   4516607.166 7
  21680101.869    21680105.435   -69662212.548 9 100040233.408 8
  21261222.076    21261223.744   -75041563.627 4  66530508.208 1
 89 11 17 15 31 29.0800000  0  3G13G12G 3
  21685425.949    21685429.702   -27876475.583 9   4553428.682 7
  21695737.567    21695741.942   -69580048.565 9 100104257.156 8
  21257277.294    21257279.618   -75062298.820 1  66514350.900 1
 89 11 17 15 31 59.0800000  0  3G13G12G 3
  21694433.382    21694437.173   -27829141.454 9   4590312.404 7
  21711452.780    21711457.222   -69497463.521 8 100168609.023 8
  21253366.114    21253369.410   -75082850.731 9  66498336.409 7
 89 11 17 15 32 29.0800000  0  3G13G12G 3
  21703454.927    21703459.796   -27781727.783 9   4627258.084 9
  21727247.888    21727251.755   -69414460.142 9 100233286.845 8
  21249490.399    21249493.633   -75103219.694 9  66482464.481 8
 89 11 17 15 32 59.0800000  0  3G13G12G 3
  21712493.526    21712497.895   -27734235.775 8   4664264.763 8
  21743121.505    21743126.621   -69331042.062 9 100298287.807 9
  21245649.432    21245652.356   -75123406.676 9  66466734.344 7
 89 11 17 15 33 29.0800000  0  3G13G12G 3
  21721545.345    21721550.142   -27686665.472 9   4701332.429 8
  21759074.141    21759079.533   -69247212.029 9 100363609.788 8
  21241842.594    21241845.808   -75143412.081 9  66451145.707 8
 89 11 17 15 33 59.0800000  0  3G13G12G 3
  21730611.701    21730618.115   -27639017.420 9   4738460.683 7
  21775103.798    21775109.490   -69162972.808 9 100429250.598 8
  21238069.603    21238072.935   -75163236.257 9  66435698.269 9
 89 11 17 15 34 29.0800000  0  3G13G12G 3
  21739695.129    21739699.021   -27591291.674 8   4775649.529 7
  21791211.705    21791216.861   -69078327.582 9 100495207.778 8
  21234331.504    21234334.769   -75182879.863 9  66420391.548 8
 89 11 17 15 34 59.0800000  0  3G13G12G 3
  21748790.813    21748796.017   -27543489.874 9   4812897.593 8
  21807396.177    21807401.674   -68993279.386 9 100561478.966 8
  21230628.774    21230631.329   -75202343.654 9  66405224.917 8
 89 11 17 15 35 29.0800000  0  3G13G12G 3
  21757902.427    21757906.463   -27495611.997 9   4850204.898 8
  21823656.708    21823661.644   -68907831.511 9 100628061.610 8
  21226957.380    21226961.953   -75221628.393 9  66390197.818 8
 89 11 17 15 35 59.0800000  0  3G13G12G 3
  21767027.165    21767031.857   -27447659.328 9   4887570.492 7
  21839992.932    21839997.276   -68821986.282 9 100694953.838 8
  21223323.416    21223325.615   -75240734.251 9  66375310.105 8
 89 11 17 15 36 29.0800000  0  3G13G12G 3
  21776166.929    21776171.014   -27399631.869 9   4924994.373 8
  21856402.886    21856408.803   -68735747.366 9 100762152.849 8
  21219721.744    21219723.461   -75259661.940 9  66360561.220 7
 89 11 17 15 36 59.0800000  0  3G13G12G 3
  21785320.234    21785325.110   -27351530.310 9   4962476.009 6
  21872888.480    21872893.112   -68649117.963 9 100829656.152 8
  21216152.914    21216154.286   -75278412.028 9  66345950.727 7
 89 11 17 15 37 29.0800000  0  3G13G12G 3
  21794487.795    21794492.050   -27303355.147 9   5000015.032 8
  21889447.004    21889451.976   -68562100.993 9 100897461.446 9
  21212618.499    21212621.063   -75296984.663 9  66331478.498 7
 89 11 17 15 37 59.0800000  0  3G13G12G 3
  21803668.634    21803674.474   -27255106.710 8   5037611.154 9
  21906079.208    21906084.796   -68474699.043 9 100965566.733 8
  21209118.614    21209119.858   -75315380.843 9  66317143.795 7
 89 11 17 15 38 29.0800000  0  3G13G12G 3
  21812864.747    21812868.394   -27206785.942 9   5075263.728 9
  21922784.437    21922789.050   -68386915.623 9 101033969.254 9
  21205650.842    21205655.021   -75333600.898 8  66302946.306 8
 89 11 17 15 38 59.0800000  0  3G13G12G 3
  21822073.588    21822078.251   -27158393.368 9   5112972.181 7
  21939561.125    21939565.460   -68298754.191 9 101102666.335 9
  21202217.462    21202219.482   -75351645.587 9  66288885.481 7
 89 11 17 15 39 29.0800000  0  3G13G12G 3
  21831295.656    21831299.180   -27109929.593 9   5150736.124 8
  21956409.056    21956413.093   -68210217.639 9 101171655.696 9
  21198817.030    21198818.796   -75369515.108 9  66274961.138 8
 89 11 17 15 39 59.0800000  0  3G13G12G 3
  21840530.988    21840535.911   -27061395.040 9   5188555.232 9
  21973327.428    21973332.976   -68121309.140 9 101240934.899 8
  21195450.319    21195452.583   -75387210.156 9  66261172.770 7
 89 11 17 15 40 29.0800000  0  3G13G12G 3
  21849780.674    21849786.037   -27012789.710 9   5226429.490 9
  21990316.872    21990320.533   -68032032.225 9 101310501.160 8
  21192114.429    21192118.116   -75404731.235 9  66247519.933 7
 89 11 17 15 40 59.0800000  0  3G13G12G 3
  21859043.053    21859047.550   -26964114.600 9   5264358.109 7
  22007375.095    22007380.493   -67942389.989 9 101380352.101 8
  21188815.341    21188816.560   -75422078.951 9  66234002.188 8
 89 11 17 15 41 29.0800000  0  3G13G12G 3
  21868319.377    21868323.783   -26915369.974 9   5302340.910 8
  22024502.810    22024508.147   -67852385.385 9 101450485.407 9
  21185546.410    21185549.126   -75439253.485 9  66220619.397 7
 89 11 17 15 41 59.0800000  0  3G13G12G 3
  21877608.676    21877611.561   -26866555.638 9   5340378.007 8
  22041698.460    22041704.046   -67762021.512 9 101520898.654 9
  21182310.508    21182313.956   -75456255.433 9  66207371.110 8
 89 11 17 15 42 29.0800000  0  3G13G12G 3
  21886909.942    21886914.956   -26817672.787 8   5378468.447 8
  22058962.274    22058968.131   -67671301.624 9 101591589.292 9
  21179108.165    21179111.109   -75473085.594 9  66194256.677 8
 89 11 17 15 42 59.0800000  0  3G13G12G 3
  21896225.221    21896230.768   -26768721.944 9   5416611.851 7
  22076291.700    22076298.279   -67580228.995 9 101662554.802 9
  21175937.021    21175939.419   -75489744.364 9  66181275.804 8
 89 11 17 15 43 29.0800000  0  3G13G12G 3
  21905553.207    21905557.932   -26719703.533 9   5454807.938 8
  22093690.012    22093694.776   -67488806.466 9 101733792.981 9
  21172800.969    21172803.252   -75506231.902 9  66168428.321 7
 89 11 17 15 43 59.0800000  0  3G13G12G 3
  21914893.838    21914899.554   -26670617.463 9   5493056.779 8
  22111153.299    22111158.901   -67397037.611 9 101805301.006 9
  21169696.711    21169698.014   -75522548.940 9  66155713.732 7
 89 11 17 15 44 29.0800000  0  3G13G12G 3
  21924248.709    21924253.057   -26621464.822 8   5531357.490 7
  22128681.936    22128686.757   -67304925.932 9 101877076.158 9
  21166623.089    21166625.884   -75538695.970 9  66143131.591 8
 89 11 17 15 44 59.0800000  0  3G13G12G 3
  21933614.307    21933618.763   -26572245.732 9   5569710.015 7
  22146274.487    22146280.795   -67212474.350 9 101949116.164 8
  21163582.306    21163583.803   -75554673.422 9  66130681.618 8
 89 11 17 15 45 29.0800000  0  3G13G12G 3
  21942992.602    21942997.300   -26522959.888 9   5608114.463 7
  22163931.219    22163937.801   -67119685.728 9 102021418.783 9
  21160574.346    21160576.906   -75570481.458 9  66118363.666 8
 89 11 17 15 45 59.0800000  0  3G13G12G 3
  21952383.707    21952388.156   -26473608.646 9   5646569.864 8
  22181652.136    22181657.559   -67026563.623 8 102093981.292 8
  21157599.184    21157601.836   -75586120.817 9  66106177.124 7
 89 11 17 15 46 29.0800000  0  3G13G12G 3
  21961788.499    21961793.107   -26424192.209 9   5685076.009 8
  22199436.300    22199441.937   -66933111.340 9 102166801.057 8
  21154655.335    21154656.836   -75601592.074 9  66094121.584 8
 89 11 17 15 46 59.0800000  0  3G13G12G 3
  21971204.070    21971209.339   -26374711.329 9   5723632.340 8
  22217281.876    22217287.588   -66839332.025 9 102239875.638 8
  21151741.841    21151745.369   -75616895.448 9  66082196.854 9
 89 11 17 15 47 29.0800000  0  3G13G12G 3
  21980631.757    21980635.808   -26325165.573 9   5762239.297 8
  22235188.987    22235193.320   -66745228.857 9 102313202.594 8
  21148861.793    21148865.359   -75632031.491 9  66070402.478 7
 89 11 17 15 47 59.0800000  0  3G13G12G 3
  21990072.221    21990077.993   -26275554.747 9   5800897.116 8
  22253157.888    22253162.600   -66650805.274 9 102386779.202 8
  21146012.434    21146015.712   -75647000.516 9  66058738.275 8
 89 11 17 15 48 29.0800000  0  3G13G12G 3
  21999525.216    21999529.964   -26225880.292 9   5839604.490 8
  22271185.724    22271192.213   -66556064.602 9 102460602.895 8
  21143197.286    21143198.701   -75661803.404 9  66047203.515 7
 89 11 17 15 48 59.0800000  0  3G13G12G 3
  22008990.315    22008994.452   -26176142.378 9   5878361.272 8
  22289274.952    22289281.097   -66461009.837 9 102534671.343 8
  21140411.003    21140414.025   -75676439.954 9  66035798.363 8
 89 11 17 15 49 29.0800000  0  3G13G12G 3
  22018466.184    22018471.786   -26126340.990 9   5917167.539 8
  22307422.369    22307429.072   -66365644.386 9 102608981.865 9
  21137657.580    21137660.660   -75690910.707 9  66024522.414 8
 89 11 17 15 49 59.0800000  0  3G13G12G 3
  22027956.202    22027960.955   -26076477.044 9   5956022.460 8
  22325628.617    22325634.922   -66269971.807 9 102683531.728 9
  21134936.337    21134937.411   -75705216.322 9  66013375.191 8
 89 11 17 15 50 29.0800000  0  3G13G12G 3
  22037456.612    22037461.661   -26026550.442 9   5994926.203 8
  22343893.146    22343898.802   -66173995.290 9 102758318.416 8
  21132245.040    21132246.682   -75719357.137 9  66002356.308 7
 89 11 17 15 50 59.0800000  0  3G13G12G 3
  22046969.686    22046974.377   -25976561.258 9   6033878.762 8
  22362213.442    22362218.660   -66077718.216 9 102833339.297 9
  21129585.707    21129587.658   -75733333.180 9  65991465.881 8
 89 11 17 15 51 29.0800000  0  3G13G12G 3
  22056494.199    22056497.927   -25926510.006 9   6072879.642 8
  22380590.526    22380596.262   -65981143.860 9 102908591.829 8
  21126956.591    21126960.252   -75747145.109 9  65980703.338 8
 89 11 17 15 51 59.0800000  0  3G13G12G 3
  22066030.525    22066035.509   -25876396.796 8   6111928.860 7
  22399024.151    22399031.592   -65884275.565 9 102984073.402 9
  21124359.856    21124363.392   -75760793.357 8  65970068.317 7
 89 11 17 15 52 29.0800000  0  3G13G12G 3
  22075579.020    22075581.477   -25826222.050 7   6151026.037 7
  22417513.230    22417520.691   -65787116.282 9 103059781.718 9
  21121793.132    21121795.676   -75774278.233 9  65959560.624 8
 89 11 17 15 52 59.0800000  0  3G13G12G 3
  22085137.638    22085143.317   -25775985.685 8   6190171.207 7
  22436057.414    22436064.055   -65689669.312 9 103135714.217 8
  21119258.027    21119261.105   -75787600.112 9  65949179.928 7
 89 11 17 15 53 29.0800000  0  3G13G12G 3
  22094709.808    22094713.194   -25725688.228 9   6229363.978 8
  22454654.676    22454662.799   -65591938.405 9 103211867.963 8
  21116754.580    21116756.980   -75800759.228 9  65938926.059 7
 89 11 17 15 53 59.0800000  0  3G13G12G 3
  22104291.583    22104295.869   -25675330.275 9   6268603.860 8
  22473306.130    22473313.474   -65493927.180 9 103288240.129 8
  21114280.839    21114283.477   -75813756.536 9  65928798.285 7
 89 11 17 15 54 29.0800000  0  3G13G12G 3
  22113886.351    22113890.242   -25624912.476 9   6307890.353 8
  22492009.615    22492016.521   -65395638.667 9 103364828.371 8
  21111838.470    21111840.247   -75826591.772 8  65918796.811 8
 89 11 17 15 54 59.0800000  0  3G13G12G 3
  22123491.997    22123497.787   -25574434.470 8   6347223.768 8
  22510766.687    22510772.439   -65297076.187 9 103441630.092 8
  21109426.253    21109429.602   -75839265.226 9  65908921.404 8
 89 11 17 15 55 29.0800000  0  3G13G12G 3
  22133108.526    22133113.358   -25523896.067 9   6386604.269 7
  22529573.760    22529580.145   -65198243.117 9 103518642.680 8
  21107045.915    21107048.540   -75851777.581 9  65899171.513 8
 89 11 17 15 55 59.0800000  0  3G13G12G 3
  22142737.382    22142744.121   -25473297.633 9   6426031.567 8
  22548431.127    22548439.335   -65099143.197 9 103595863.197 8
  21104695.552    21104698.259   -75864129.239 9  65889546.857 8
 89 11 17 15 56 29.0800000  0  3G13G12G 3
  22152378.159    22152382.370   -25422639.401 8   6465505.478 8
  22567339.566    22567346.575   -64999779.503 9 103673289.270 9
  21102376.000    21102378.236   -75876320.046 9  65880047.524 7
 89 11 17 15 56 59.0800000  0  3G13G12G 3
  22162029.195    22162033.806   -25371921.858 8   6505025.590 8
  22586297.750    22586305.223   -64900155.086 9 103750918.482 9
  21100085.617    21100087.768   -75888350.616 9  65870673.061 7
 89 11 17 15 57 29.0800000  0  3G13G12G 3
  22171691.820    22171697.006   -25321144.835 8   6544592.040 8
  22605305.090    22605312.016   -64800273.688 9 103828747.975 9
  21097827.360    21097829.447   -75900221.485 9  65861423.038 7
 89 11 17 15 57 59.0800000  0  3G13G12G 3
  22181365.248    22181369.550   -25270308.947 8   6584204.405 7
  22624360.022    22624367.042   -64700138.404 9 103906775.296 8
  21095598.407    21095601.913   -75911932.991 9  65852297.147 9
 89 11 17 15 58 29.0800000  0  3G13G12G 3
  22191051.180    22191055.509   -25219414.035 9   6623862.752 8
  22643462.783    22643469.898   -64599752.803 9 103984997.662 8
  21093399.687    21093401.961   -75923485.173 9  65843295.379 8
 89 11 17 15 58 59.0800000  0  3G13G12G 3
  22200745.812    22200751.380   -25168460.451 7   6663566.770 8
  22662612.277    22662619.959   -64499120.046 9 104063412.613 8
  21091232.506    21091236.309   -75934878.173 9  65834417.693 8
 89 11 17 15 59 29.0800000  0  3G13G12G 3
  22210453.759    22210458.748   -25117448.583 9   6703316.160 8
  22681808.451    22681816.071   -64398243.487 9 104142017.530 9
  21089094.284    21089097.281   -75946112.471 9  65825663.671 7
 89 11 17 15 59 59.0800000  0  3G13G12G 3
  22220171.567    22220177.694   -25066378.197 8   6743111.260 7
  22701051.653    22701058.672   -64297126.871 9 104220809.513 8
  21086987.318    21086989.679   -75957188.480 9  65817033.027 8
 89 11 17 16  0 29.0800000  0  3G13G12G 3
  22229901.673    22229906.943   -25015249.707 8   6782951.563 8
  22720337.895    22720346.832   -64195773.236 9 104299786.180 8
  21084909.141    21084911.385   -75968106.192 9  65808525.705 8
 89 11 17 16  0 59.0800000  0  3G13G12G 3
  22239641.102    22239647.328   -24964062.926 8   6822837.190 7
  22739669.478    22739676.776   -64094186.312 9 104378944.629 9
  21082862.045    21082864.891   -75978866.178 9  65800141.305 8
 89 11 17 16  1 29.0800000  0  3G13G12G 3
  22249393.636    22249398.070   -24912817.554 7   6862768.580 8
  22759045.298    22759051.736   -63992369.391 9 104458282.270 9
  21080843.560    21080847.728   -75989468.424 9  65791879.808 9
 89 11 17 16  1 59.0800000  0  3G13G12G 3
  22259156.726    22259161.861   -24861514.420 9   6902744.739 8
  22778463.527    22778471.359   -63890325.639 9 104537796.663 9
  21078855.817    21078858.865   -75999913.407 8  65783740.814 7
 89 11 17 16  2 29.0800000  0  3G13G12G 3
  22268930.699    22268936.931   -24810152.954 9   6942766.560 8
  22797924.398    22797932.536   -63788058.253 8 104617485.305 9
  21076899.817    21076902.149   -76010200.942 9  65775724.543 8
 89 11 17 16  2 59.0800000  0  3G13G12G 3
  22278714.584    22278721.309   -24758733.510 8   6982833.618 8
  22817427.801    22817435.352   -63685571.352 9 104697344.983 8
  21074971.138    21074974.863   -76020331.721 9  65767830.368 8
 89 11 17 16  3 29.0800000  0  3G13G12G 3
  22288511.544    22288516.653   -24707256.448 8   7022945.583 8
  22836970.882    22836978.057   -63582868.103 9 104777373.235 8
  21073073.731    21073077.137   -76030306.052 9  65760058.144 8
 89 11 17 16  3 59.0800000  0  3G13G12G 3
  22298318.457    22298322.797   -24655721.742 8   7063102.468 8
  22856556.487    22856563.020   -63479951.755 8 104857567.533 9
  21071204.928    21071208.614   -76040123.838 9  65752407.939 7
 89 11 17 16  4 29.0800000  0  3G13G12G 3
  22308136.030    22308141.488   -24604129.321 9   7103304.359 8
  22876180.038    22876186.836   -63376826.018 9 104937924.990 8
  21069366.435    21069369.376   -76049785.364 9  65744879.426 7
 89 11 17 16  4 59.0800000  0  3G13G12G 3
  22317963.354    22317970.352   -24552479.850 9   7143550.591 7
  22895843.646    22895850.718   -63273494.347 9 105018442.899 8
  21067557.040    21067561.694   -76059291.115 9  65737472.256 8
 89 11 17 16  5 29.0800000  0  3G13G12G 3
  22327804.264    22327809.024   -24500772.956 8   7183841.625 8
  22915546.082    22915554.215   -63169959.560 9 105099119.083 9
  21065778.436    21065780.229   -76068640.804 9  65730186.804 7
 89 11 17 16  5 59.0800000  0  3G13G12G 3
  22337654.317    22337659.679   -24449008.536 9   7224177.464 8
  22935285.860    22935293.621   -63066225.087 9 105179950.868 8
  21064029.803    21064032.186   -76077834.841 9  65723022.639 8
 89 11 17 16  6 29.0800000  0  3G13G12G 3
  22347515.843    22347520.642   -24397186.894 9   7264557.872 8
  22955063.732    22955072.280   -62962294.610 8 105260935.378 8
  21062309.041    21062313.001   -76086873.289 9  65715979.702 8
 89 11 17 16  6 59.0800000  0  3G13G12G 3
  22357388.406    22357394.684   -24345308.077 9   7304982.768 7
  22974877.987    22974885.026   -62858171.675 9 105342069.856 8
  21060618.492    21060621.115   -76095756.526 8  65709057.735 8
 89 11 17 16  7 29.0800000  0  3G13G12G 3
  22367271.084    22367278.638   -24293371.950 8   7345452.321 7
  22994727.862    22994735.397   -62753859.772 9 105423351.570 9
  21058957.544    21058959.940   -76104484.636 9  65702256.592 8
 89 11 17 16  7 59.0800000  0  3G13G12G 3
  22377165.392    22377170.331   -24241378.231 8   7385966.831 8
  23014613.661    23014622.654   -62649361.664 9 105504778.394 8
  21057326.097    21057329.100   -76113057.599 9  65695576.372 8
 89 11 17 16  8 29.0800000  0  3G13G12G 3
  22387071.250    22387076.270   -24189326.601 8   7426526.515 7
  23034534.042    23034541.964   -62544680.882 9 105586347.557 9
  21055723.548    21055727.939   -76121475.781 9  65689016.737 8
 89 11 17 16  8 59.0800000  0  3G13G12G 3
  22396987.714    22396992.938   -24137217.683 9   7467130.738 8
  23054488.260    23054496.377   -62439821.197 9 105668056.134 8
  21054151.752    21054154.761   -76129739.592 9  65682577.380 9
 89 11 17 16  9 29.0800000  0  3G13G12G 3
  22406914.687    22406919.482   -24085051.501 8   7507779.674 8
  23074476.485    23074484.098   -62334786.102 9 105749901.381 9
  21052608.368    21052611.286   -76137848.761 9  65676258.532 8
 89 11 17 16  9 59.0800000  0  3G13G12G 3
  22416852.229    22416857.413   -24032827.978 9   7548473.262 7
  23094495.731    23094505.042   -62229578.649 9 105831880.950 8
  21051094.196    21051097.443   -76145803.390 9  65670060.076 8
 89 11 17 16 10 29.0800000  0  3G13G12G 3
  22426800.803    22426804.897   -23980547.556 8   7589211.200 8
  23114549.567    23114557.055   -62124202.520 9 105913991.927 9
  21049610.161    21049613.502   -76153603.895 9  65663981.684 8
 89 11 17 16 10 59.0800000  0  3G13G12G 3
  22436759.767    22436765.903   -23928209.352 9   7629994.207 8
  23134633.421    23134640.914   -62018660.845 8 105996231.913 8
  21048156.179    21048158.457   -76161250.489 9  65658023.168 8
 89 11 17 16 11 29.0800000  0  3G13G12G 3
  22446730.961    22446735.999   -23875813.785 9   7670821.838 8
  23154748.331    23154756.841   -61912957.051 8 106078598.208 9
  21046729.761    21046733.074   -76168742.599 9  65652185.185 8
 89 11 17 16 11 59.0800000  0  3G13G12G 3
  22456712.479    22456718.339   -23823360.469 8   7711694.448 8
  23174892.926    23174902.515   -61807094.620 8 106161088.122 9
  21045333.378    21045336.893   -76176080.812 9  65646467.094 9
 89 11 17 16 12 29.0800000  0  3G13G12G 3
  22466703.984    22466709.876   -23770849.242 8   7752612.196 8
  23195067.646    23195077.167   -61701077.036 8 106243698.917 9
  21043966.597    21043970.079   -76183265.343 9  65640868.727 9
 89 11 17 16 12 59.0800000  0  3G13G12G 3
  22476709.033    22476714.246   -23718280.307 8   7793574.939 7
  23215270.868    23215280.314   -61594907.479 8 106326428.151 8
  21042628.459    21042630.894   -76190296.110 9  65635390.151 8
 89 11 17 16 13 29.0800000  0  3G13G12G 3
  22486722.888    22486727.386   -23665654.257 8   7834582.008 8
  23235502.421    23235511.728   -61488589.188 8 106409273.262 9
  21041319.394    21041322.289   -76197172.961 9  65630031.553 9
 89 11 17 16 13 59.0800000  0  3G13G12G 3
  22496748.109    22496754.479   -23612969.648 8   7875634.927 7
  23255762.153    23255772.677   -61382125.937 8 106492231.316 9
  21040039.884    21040045.111   -76203896.319 9  65624792.535 7
 89 11 17 16 14 29.0800000  0  3G13G12G 3
  22506784.773    22506791.684   -23560227.764 8   7916732.350 8
  23276048.451    23276058.989   -61275520.932 9 106575299.841 8
  21038790.203    21038794.766   -76210466.270 9  65619673.041 7
 89 11 17 16 14 59.0800000  0  3G13G12G 3
  22516831.458    22516838.906   -23507427.646 8   7957875.116 8
  23296362.592    23296371.642   -61168777.589 9 106658476.166 8
  21037569.966    21037573.101   -76216882.705 9  65614673.142 8
 89 11 17 16 15 29.0800000  0  3G13G12G 3
  22526890.845    22526898.865   -23454569.975 8   7999062.582 7
  23316701.165    23316709.447   -61061899.263 9 106741757.672 9
  21036376.761    21036380.614   -76223145.526 9  65609792.959 8
 89 11 17 16 15 59.0800000  0  3G13G12G 3
  22536961.489    22536966.371   -23401654.022 8   8040295.511 8
  23337063.928    23337074.109   -60954889.232 9 106825141.790 8
  21035216.034    21035218.220   -76229254.884 9  65605032.365 8
 89 11 17 16 16 29.0800000  0  3G13G12G 3
  22547042.024    22547046.377   -23348679.215 8   8081574.711 8
  23357452.714    23357462.064   -60847751.211 9 106908625.635 9
  21034081.521    21034084.882   -76235211.073 9  65600391.110 8
 89 11 17 16 16 59.0800000  0  3G13G12G 3
  22557133.728    22557139.569   -23295645.691 8   8122899.682 8
  23377864.399    23377873.306   -60740488.516 8 106992206.612 9
  21032978.166    21032981.112   -76241013.804 9  65595869.431 8
 89 11 17 16 17 29.0800000  0  3G13G12G 3
  22567236.555    22567242.097   -23242553.050 8   8164270.665 6
  23398297.916    23398308.652   -60633104.698 9 107075881.959 8
  21031902.891    21031906.451   -76246662.845 9  65591467.519 8
 89 11 17 16 17 59.0800000  0  3G13G12G 3
  22577350.868    22577356.807   -23189401.960 9   8205687.154 8
  23418756.764    23418765.855   -60525603.044 8 107159649.119 9
  21030857.511    21030859.398   -76252158.697 8  65587184.989 8
 89 11 17 16 18 29.0800000  0  3G13G12G 3
  22587476.786    22587481.413   -23136192.401 9   8247149.217 8
  23439235.697    23439244.865   -60417986.357 9 107243505.909 8
  21029840.883    21029844.025   -76257501.158 9  65583021.993 8
 89 11 17 16 18 59.0800000  0  3G13G12G 3
  22597612.948    22597619.641   -23082924.174 9   8288656.849 7
  23459735.743    23459743.825   -60310257.862 8 107327449.819 8
  21028852.496    21028855.195   -76262690.139 9  65578978.587 7
 89 11 17 16 19 29.0800000  0  3G13G12G 3
  22607761.472    22607766.063   -23029596.687 9   8330210.685 8
  23480256.355    23480265.980   -60202421.237 9 107411477.969 9
  21027894.215    21027898.021   -76267725.623 9  65575054.795 8
 89 11 17 16 19 59.0800000  0  3G13G12G 3
  22617919.933    22617926.073   -22976209.961 9   8371810.655 8
  23500796.103    23500807.711   -60094480.051 9 107495587.567 8
  21026964.911    21026969.627   -76272607.540 9  65571250.705 8
 89 11 17 16 20 29.0800000  0  3G13G12G 3
  22628091.060    22628096.478   -22922763.741 8   8413456.947 7
  23521356.776    23521367.940   -59986437.718 8 107579775.982 8
  21026066.210    21026068.433   -76277336.258 9  65567565.960 7
 89 11 17 16 20 59.0800000  0  3G13G12G 3
  22638273.811    22638278.097   -22869257.719 9   8455149.888 8
  23541935.668    23541946.631   -59878297.660 9 107664040.535 9
  21025196.018    21025199.151   -76281911.018 9  65564001.246 8
 89 11 17 16 21 29.0800000  0  3G13G12G 3
  22648466.316    22648471.963   -22815691.768 8   8496889.558 8
  23562531.575    23562542.764   -59770063.048 9 107748378.748 8
  21024354.359    21024357.745   -76286332.231 9  65560556.186 8
 89 11 17 16 21 59.0800000  0  3G13G12G 3
  22658670.021    22658676.741   -22762066.258 8   8538675.584 8
  23583145.197    23583157.368   -59661737.563 9 107832787.779 8
  21023542.314    21023545.604   -76290599.754 9  65557230.869 8
 89 11 17 16 22 29.0800000  0  3G13G12G 3
  22668886.326    22668893.049   -22708380.805 9   8580508.316 9
  23603776.455    23603787.078   -59553324.386 8 107917265.126 8
  21022758.941    21022761.829   -76294713.943 9  65554025.005 8
 89 11 17 16 22 59.0800000  0  3G13G12G 3
  22679114.762    22679120.557   -22654634.272 8   8622388.665 7
  23624422.781    23624434.831   -59444826.925 9 108001808.160 9
  21022005.086    21022008.924   -76298674.319 9  65550939.040 8
 89 11 17 16 23 29.0800000  0  3G13G12G 3
  22689353.854    22689359.589   -22600827.035 9   8664316.312 8
  23645085.863    23645097.588   -59336248.500 8 108086414.256 8
  21021280.520    21021283.631   -76302480.719 9  65547973.037 8
 89 11 17 16 23 59.0800000  0  3G13G12G 3
  22699604.180    22699610.102   -22546959.109 9   8706291.258 7
  23665763.892    23665773.647   -59227592.263 9 108171080.997 8
  21020585.095    21020587.825   -76306133.178 9  65545126.974 8
 89 11 17 16 24 29.0800000  0  3G13G12G 3
  22709866.819    22709873.154   -22493029.889 9   8748313.970 8
  23686454.206    23686464.188   -59118861.492 8 108255805.810 8
  21019920.263    21019922.826   -76309631.576 9  65542400.981 9
 89 11 17 16 24 59.0800000  0  3G13G12G 3
  22720141.056    22720146.213   -22439039.441 8   8790384.376 8
  23707158.618    23707169.108   -59010059.380 9 108340586.189 8
  21019283.514    21019286.787   -76312975.793 9  65539795.061 8
 89 11 17 16 25 29.0800000  0  3G13G12G 3
  22730427.584    22730433.428   -22384987.652 9   8832502.555 8
  23727877.498    23727887.999   -58901189.378 9 108425419.459 8
  21018677.054    21018678.882   -76316165.889 8  65537309.301 8
 89 11 17 16 25 59.0800000  0  3G13G12G 3
  22740724.506    22740731.398   -22330873.769 9   8874669.115 8
  23748606.689    23748616.780   -58792255.158 9 108510302.783 7
  21018099.228    21018103.171   -76319201.750 9  65534943.686 8
 89 11 17 16 26 29.0800000  0  3G13G12G 3
  22751034.082    22751040.506   -22276697.682 9   8916884.139 8
  23769347.431    23769360.117   -58683259.329 9 108595234.079 8
  21017551.533    21017554.671   -76322082.847 9  65532698.660 8
 89 11 17 16 26 59.0800000  0  3G13G12G 3
  22761355.016    22761361.799   -22222459.495 9   8959147.540 7
  23790101.611    23790112.950   -58574205.934 8 108680210.219 8
  21017031.369    21017035.276   -76324809.293 9  65530574.125 8
 89 11 17 16 27 29.0800000  0  3G13G12G 3
  22771688.706    22771694.394   -22168158.862 9   9001459.596 8
  23810863.596    23810874.613   -58465097.991 8 108765228.851 7
  21016542.456    21016546.290   -76327380.995 8  65528570.217 8
 89 11 17 16 27 59.0800000  0  3G13G12G 3
  22782033.906    22782039.975   -22113795.704 9   9043820.395 7
  23831636.799    23831648.435   -58355938.992 8 108850287.258 7
  21016082.986    21016086.233   -76329797.782 8  65526686.993 8
 89 11 17 16 28 29.0800000  0  3G13G12G 3
  22792390.787    22792397.127   -22059369.250 9   9086230.525 7
  23852418.996    23852430.504   -58246731.958 9 108935383.084 8
  21015652.743    21015655.555   -76332059.257 9  65524924.823 8
 89 11 17 16 28 59.0800000  0  3G13G12G 3
  22802759.573    22802765.813   -22004879.492 9   9128689.966 8
  23873208.473    23873220.882   -58137480.294 8 109020513.659 7
  21015251.538    21015254.913   -76334165.488 9  65523283.584 8
 89 11 17 16 29 29.0800000  0  3G13G12G 3
  22813140.035    22813148.025   -21950326.509 8   9171198.705 7
  23894007.181    23894018.979   -58028187.418 9 109105676.345 8
  21014878.986    21014882.376   -76336116.472 9  65521763.304 8
 89 11 17 16 29 59.0800000  0  3G13G12G 3
  22823534.396    22823539.122   -21895709.687 8   9213757.247 8
  23914811.867    23914824.284   -57918856.690 8 109190868.520 9
  21014537.626    21014541.220   -76337911.599 8  65520364.505 8
 89 11 17 16 30 29.0800000  0  3G13G12G 3
  22833939.266    22833946.178   -21841028.628 8   9256365.807 8
  23935624.030    23935637.110   -57809491.026 9 109276087.889 8
  21014226.632    21014229.974   -76339550.832 9  65519087.170 8
 89 11 17 16 30 59.0800000  0  3G13G12G 3
  22844356.361    22844364.548   -21786282.728 8   9299024.872 7
  23956444.009    23956454.675   -57700093.806 8 109361331.865 9
  21013945.292    21013947.103   -76341033.879 9  65517931.522 9
 89 11 17 16 31 29.0800000  0  3G13G12G 3
  22854786.845    22854793.489   -21731472.231 9   9341734.288 8
  23977264.325    23977278.805   -57590668.436 8 109446597.739 9
  21013691.941    21013694.986   -76342360.871 9  65516897.490 8
 89 11 17 16 31 59.0800000  0  3G13G12G 3
  22865230.234    22865236.340   -21676596.850 9   9384494.291 7
  23998094.388    23998107.502   -57481217.660 9 109531883.411 8
  21013468.824    21013473.695   -76343531.468 8  65515985.323 8
 89 11 17 16 32 29.0800000  0  3G13G12G 3
  22875684.561    22875690.464   -21621656.178 8   9427305.150 7
  24018926.368    24018939.615   -57371745.006 9 109617186.117 8
  21013275.887    21013280.746   -76344545.233 9  65515195.340 8
 89 11 17 16 32 59.0800000  0  3G13G12G 3
  22886153.422    22886158.312   -21566649.898 9   9470167.144 7
  24039762.267    24039775.641   -57262254.174 9 109702502.995 9
  21013113.171    21013116.902   -76345402.048 9  65514527.670 9
 89 11 17 16 33 29.0800000  0  3G13G12G 3
  22896632.306    22896638.053   -21511577.578 9   9513080.483 7
  24060601.443    24060614.442   -57152748.198 9 109787831.656 8
  21012980.406    21012983.262   -76346101.783 9  65513982.384 8
 89 11 17 16 33 59.0800000  0  3G13G12G 3
  22907125.030    22907131.607   -21456438.768 9   9556045.610 8
  24081441.426    24081455.539   -57043230.140 9 109873169.728 8
  21012876.525    21012879.762   -76346643.920 9  65513559.916 8
 89 11 17 16 34 29.0800000  0  3G13G12G 3
  22917631.403    22917637.593   -21401233.435 9   9599062.657 7
  24102284.427    24102298.454   -56933703.258 9 109958514.684 9
  21012804.331    21012806.903   -76347028.392 8  65513260.316 8
 89 11 17 16 34 59.0800000  0  3G13G12G 3
  22928148.948    22928155.635   -21345961.904 8   9642131.278 7
  24123128.399    24123142.912   -56824171.171 8 110043863.656 8
  21012760.069    21012764.797   -76347255.003 8  65513083.724 8
 89 11 17 16 35 29.0800000  0  3G13G12G 3
  22938679.447    22938684.590   -21290622.409 9   9685252.889 8
  24143974.524    24143988.268   -56714636.485 9 110129214.680 9
  21012747.443    21012751.272   -76347322.998 9  65513030.744 9
 89 11 17 16 35 59.0800000  0  3G13G12G 3
  22949223.357    22949229.291   -21235215.047 9   9728427.369 7
  24164816.726    24164832.454   -56605102.541 9 110214565.107 9
  21012764.732    21012768.791   -76347232.464 9  65513101.252 8
 89 11 17 16 36 29.0800000  0  3G13G12G 3
  22959779.706    22959786.190   -21179740.305 9   9771654.319 7
  24185661.423    24185674.235   -56495572.860 9 110299912.189 8
  21012813.210    21012815.017   -76346983.408 8  65513295.278 8
 89 11 17 16 36 59.0800000  0  3G13G12G 3
  22970348.416    22970355.129   -21124197.026 9   9814934.691 7
  24206502.793    24206515.506   -56386050.359 9 110385253.687 9
  21012890.478    21012892.757   -76346575.231 9  65513613.337 8
 89 11 17 16 37 29.0800000  0  3G13G12G 3
  22980931.151    22980937.358   -21068584.868 9   9858268.711 8
  24227341.977    24227357.119   -56276538.515 8 110470586.877 8
  21012998.005    21013000.947   -76346007.582 9  65514055.655 8
 89 11 17 16 37 59.0800000  0  3G13G12G 3
  22991528.164    22991534.234   -21012903.679 9   9901656.547 7
  24248178.016    24248196.075   -56167040.423 9 110555909.363 8
  21013136.285    21013139.722   -76345279.986 8  65514622.605 7
 89 11 17 16 38 29.0800000  0  3G13G12G 3
  23002136.138    23002142.610   -20957153.578 9   9945098.070 8
  24269015.106    24269029.067   -56057559.353 9 110641218.577 8
  21013306.839    21013309.003   -76344392.442 9  65515314.209 8
 89 11 17 16 38 59.0800000  0  3G13G12G 3
  23012759.655    23012765.323   -20901333.843 9   9988593.843 8
  24289845.346    24289858.223   -55948098.211 9 110726512.273 8
  21013504.010    21013508.649   -76343344.678 9  65516130.637 8
 89 11 17 16 39 29.0800000  0  3G13G12G 3
  23023394.903    23023401.383   -20845443.423 9  10032144.719 8
  24310671.248    24310685.023   -55838660.272 9 110811787.857 7
  21013735.455    21013737.963   -76342136.204 9  65517072.303 8
 89 11 17 16 39 59.0800000  0  3G13G12G 3
  23034043.176    23034050.767   -20789482.083 9  10075750.840 8
  24331492.187    24331506.482   -55729248.559 8 110897043.001 7
  21013995.768    21013999.036   -76340766.538 9  65518139.500 8
 89 11 17 16 40 29.0800000  0  3G13G12G 3
  23044706.184    23044713.217   -20733450.093 9  10119412.025 8
  24352307.717    24352321.699   -55619866.612 8 110982274.992 7
  21014287.312    21014289.680   -76339235.656 9  65519332.330 8
